     2.11           OBSERVATION DATA    G (GPS)             RINEX VERSION / TYPE
teqc 2010Oct21 OPUS Account 20111026 14:51:52UTC            PGM / RUN BY / DATE
3396                                                        MARKER NAME
1139                                                        MARKER NUMBER
CSMIDDLETON NGS                                             OBSERVER / AGENCY
0220390627 TRIMBLE R7 2.32                                  REC # / TYPE / VERS
60124849 TRM41249.00 NONE                                   ANT # / TYPE
  -738589.2396 -5481944.0734  3165082.7407                  APPROX POSITION XYZ
        2.0010        0.0000        0.0000                  ANTENNA: DELTA H/E/N
     1     1                                                WAVELENGTH FACT L1/2
     5    L1    L2    C1    P1    P2                        # / TYPES OF OBSERV
    15                                                      LEAP SECONDS
  2011     7    30     0     0   30.0000000     GPS         TIME OF FIRST OBS
                                                            END OF HEADER
 11  7 30  0  0 30.0000000  0  8G02G28G17G09G04G10G27G20
 -17271374.14158 -13426247.89556  22174898.4774                   22174895.5354
 -45758554.41457 -35646953.56655  22051248.4844                   22051245.8094
 -38145168.57058 -29689589.65656  21556376.3054                   21556373.3984
 -14816872.82457 -11517640.84455  22190717.4064                   22190716.1134
 -34162609.90658 -26587609.06256  19959507.5004                   19959505.7464
  -7694662.94156  -5970464.22754  23331346.3444                   23331346.3714
 -21550953.12957 -16766015.77055  22475638.2664                   22475636.9344
      3402.73856      1232.67653  24421369.0234                   24421367.4654
 11  7 30  0  1  0.0000000  0  8G02G28G17G09G04G10G27G20
 -17381506.88348 -13512065.57046  22153940.8444                   22153937.5664
 -45737535.17247 -35630574.96545  22055248.4144                   22055245.4924
 -38148187.15648 -29691941.82446  21555802.1094                   21555799.1094
 -14869676.58647 -11558786.64545  22180669.0394                   22180667.6484
 -34202999.36748 -26619081.36746  19951821.5554                   19951819.7304
  -7822552.25446  -6070118.15644  23307010.1094                   23307009.3754
 -21588944.42247 -16795619.39845  22468408.3524                   22468407.2854
     11016.46546      7165.43843  24422817.6884                   24422816.6414
 11  7 30  0  1 30.0000000  0  8G02G28G17G09G04G10G27G20
 -17491322.71148 -13597636.30545  22133043.7344                   22133040.4844
 -45716138.92647 -35613902.59045  22059319.7894                   22059317.1484
 -38151111.37548 -29694220.46946  21555245.4304                   21555242.5434
 -14921834.04747 -11599428.83245  22170744.3284                   22170742.5554
 -34242818.40648 -26650109.17646  19944244.2664                   19944242.2894
  -7950338.41047  -6169691.69544  23282692.5634                   23282692.9224
 -21626441.69947 -16824838.08245  22461273.1094                   22461271.3954
     19116.08246     13476.83243  24424359.1174                   24424357.8404
 11  7 30  0  2  0.0000000  0  8G02G28G17G09G04G10G27G20
 -17600828.83248 -13682965.70345  22112205.2274                   22112201.7194
 -45694373.91847 -35596942.89145  22063461.6334                   22063459.4534
 -38153949.80948 -29696432.26246  21554705.4774                   21554702.6024
 -14973353.44147 -11639573.83245  22160939.9774                   22160938.5594
 -34282076.18048 -26680699.64547  19936774.0784                   19936771.7624
  -8078026.36746  -6269188.74644  23258394.2894                   23258394.3364
 -21663453.66047 -16853678.59845  22454229.6094                   22454228.9264
     27692.41046     20159.66043  24425991.1564                   24425990.2974
 11  7 30  0  2 30.0000000  0  8G02G28G17G09G04G10G27G20
 -17710020.27048 -13768049.89845  22091427.0394                   22091423.1524
 -45672236.67647 -35579693.13345  22067674.1094                   22067671.7584
 -38156698.73448 -29698574.29346  21554182.3054                   21554179.8404
 -15024230.71947 -11679218.47345  22151258.4614                   22151257.0514
 -34320769.68448 -26710850.41846  19929410.7344                   19929408.4844
  -8205608.96547  -6368603.66044  23234116.6804                   23234115.7544
 -21699977.05547 -16882138.40245  22447279.9844                   22447278.5434
     36748.11346     27215.99243  24427715.6724                   24427713.5984
 11  7 30  0  3  0.0000000  0  8G02G28G17G09G04G10G27G20
 -17818903.99248 -13852894.31645  22070706.8984                   22070703.1524
 -45649735.80947 -35562160.02745  22071955.5864                   22071953.3524
 -38159366.83647 -29700653.35946  21553674.5944                   21553672.2624
 -15074474.30947 -11718369.34845  22141697.2814                   22141696.2584
 -34358907.62148 -26740568.28547  19922153.4144                   19922151.3134
  -8333091.10947  -6467940.32844  23209857.8204                   23209856.9614
 -21736020.48847 -16910224.21545  22440421.1414                   22440419.8484
     46273.69946     34638.51242  24429527.4694                   24429525.2814
 11  7 30  0  3 30.0000000  0  8G02G28G17G09G04G10G27G20
 -17927469.48448 -13937490.77345  22050047.4924                   22050044.1954
 -45626862.07447 -35544336.37545  22076308.0084                   22076306.0944
 -38161944.82848 -29702662.21146  21553183.8524                   21553181.3754
 -15124074.55947 -11757018.90245  22132259.0314                   22132257.3014
 -34396481.49248 -26769846.62546  19915003.0394                   19915001.0314
  -8460460.35547  -6567189.00844  23185620.3284                   23185619.2344
 -21771575.10247 -16937929.13745  22433655.5234                   22433654.0234
     56277.75046     42433.87542  24431429.9304                   24431429.5274
 11  7 30  0  4  0.0000000  0  8G02G28G17G09G04G10G27G20
 -18035714.82448 -14021837.75445  22029449.3364                   22029445.6054
 -45603614.75847 -35526221.63745  22080732.4774                   22080730.3954
 -38164432.12547 -29704600.39146  21552710.7584                   21552708.5124
 -15173030.81248 -11795166.64845  22122943.0634                   22122941.6454
 -34433491.23048 -26798685.37947  19907960.3674                   19907958.3834
  -8587712.73847  -6666346.65244  23161404.5864                   23161403.9614
 -21806640.33247 -16965252.72345  22426982.2664                   22426981.1764
     66759.98046     44485.81352  24433426.1024                   24433424.5864
 11  7 30  0  4 30.0000000  0  8G02G28G17G09G04G10G27G20
 -18143640.17648 -14105935.39146  22008911.6644                   22008908.2234
 -45579995.66847 -35507817.19145  22085227.4384                   22085225.2624
 -38166830.05947 -29706468.93446  21552254.3594                   21552251.5904
 -15221344.07048 -11832813.35545  22113749.2034                   22113747.8094
 -34469938.97748 -26827086.21546  19901024.8674                   19901022.5744
  -8714845.96147  -6765411.43444  23137211.9144                   23137210.8834
 -21841218.09047 -16992196.44945  22420402.7274                   22420401.4574
     77718.12146     53024.59442  24435511.8754                   24435509.9064
 11  7 30  0  5  0.0000000  0  9G02G28G17G09G04G10G27G20G12
 -18251248.20348 -14189785.77046  21988434.4224                   21988431.1954
 -45556008.59447 -35489126.00845  22089791.7894                   22089789.9694
 -38169142.81248 -29708271.10946  21551813.9454                   21551811.8054
 -15269018.05948 -11869961.92645  22104677.3054                   22104675.7814
 -34505829.04748 -26855052.50446  19894195.1804                   19894193.2194
  -8841860.52747  -6864383.77344  23113040.9534                   23113040.8834
 -21875312.73447 -17018763.73445  22413914.8674                   22413913.4384
     89147.41846     61930.56342  24437684.6094                   24437685.3834
   -193352.31256   -119082.93453  24669981.9534                   24669981.5124
 11  7 30  0  5 30.0000000  0  9G02G28G17G09G04G10G27G20G12
 -18358529.02748 -14273381.17646  21968019.7034                   21968015.8794
 -45531645.20747 -35470141.60245  22094427.9144                   22094425.5904
 -38171361.72347 -29710000.14846  21551391.7344                   21551389.8134
 -15316044.34047 -11906605.79345  22095728.5394                   22095726.9964
 -34541153.93748 -26882578.39146  19887473.0164                   19887470.9884
  -8968744.65246  -6963254.44944  23088896.1414                   23088895.6954
 -21908916.35247 -17044948.39145  22407519.8984                   22407518.7854
    101055.43045     71209.48442  24439951.3524                   24439951.9184
   -325562.64146   -222103.85943  24644823.9924                   24644823.2344
 11  7 30  0  6  0.0000000  0  9G02G28G17G09G04G10G27G20G12
 -18465488.17648 -14356725.94146  21947666.0474                   21947662.2934
 -45506912.35947 -35450869.28545  22099134.6484                   22099131.8014
 -38173493.47748 -29711661.27746  21550986.3914                   21550983.7424
 -15362429.57048 -11942750.15645  22086901.4774                   22086899.9844
 -34575921.08248 -26909669.67647  19880856.8364                   19880854.9144
  -9095501.43046  -7062025.87544  23064775.0944                   23064774.7114
 -21942035.71147 -17070755.71545  22401217.7734                   22401216.1334
    113434.34846     80855.33242  24442308.2584                   24442307.8754
   -457794.69146   -325141.73843  24619660.3834                   24619660.1724
 11  7 30  0  6 30.0000000  0  9G02G28G17G09G04G10G27G20G12
 -18572128.48048 -14439822.23846  21927372.8984                   21927369.7304
 -45481814.39147 -35431312.46145  22103910.9384                   22103908.6914
 -38175542.27047 -29713257.75846  21550596.4844                   21550594.1254
 -15408177.55947 -11978397.94145  22078195.8754                   22078194.3284
 -34610135.10248 -26936329.94546  19874346.1564                   19874344.2504
  -9222131.64546  -7160698.70744  23040677.9774                   23040677.5634
 -21974675.39547 -17096189.25045  22395006.3984                   22395004.7304
    126278.99246     90864.09043  24444752.1174                   24444751.4304
   -590051.02346   -428198.55943  24594493.8204                   24594491.8054
 11  7 30  0  7  0.0000000  0  9G02G28G17G09G04G10G27G20G12
 -18678447.29748 -14522668.03546  21907141.2664                   21907137.6844
 -45456349.85547 -35411470.01645  22108756.4064                   22108753.5784
 -38177506.44547 -29714788.30146  21550222.8914                   21550220.2114
 -15453286.99647 -12013548.17245  22069611.9844                   22069610.3054
 -34643795.19548 -26962558.59447  19867941.1414                   19867938.8594
  -9348630.26647  -7259268.98844  23016606.2424                   23016606.2774
 -22006834.16447 -17121248.05545  22388886.9144                   22388885.7074
    139590.12546    101236.36742  24447284.3054                   24447283.6524
   -722328.48846   -531271.82843  24569321.1414                   24569320.9844
 11  7 30  0  7 30.0000000  0  9G02G28G17G09G04G10G27G20G12
 -18784436.65248 -14605257.10946  21886971.9924                   21886968.2814
 -45430512.43047 -35391336.99645  22113672.9384                   22113670.3714
 -38179379.36347 -29716247.73446  21549866.2344                   21549863.7584
 -15497751.57447 -12048195.91045  22061150.5084                   22061149.2774
 -34676895.75048 -26988351.23447  19861642.4384                   19861639.9414
  -9474987.48446  -7357729.08644  22992560.9774                   22992560.5354
 -22038505.93747 -17145927.37945  22382860.2274                   22382859.0784
    153373.00846    111976.28942  24449908.6414                   24449906.9414
   -854618.84846   -634355.16444  24544147.3444                   24544146.9264
 11  7 30  0  8  0.0000000  0  9G02G28G17G09G04G10G27G20G12
 -18890095.94948 -14687588.98846  21866865.6884                   21866861.8914
 -45404302.96547 -35370914.07845  22118660.5234                   22118658.1454
 -38181161.08248 -29717636.10546  21549527.3284                   21549524.9964
 -15541571.38347 -12082341.22745  22052811.9064                   22052810.5904
 -34709437.68448 -27013708.58247  19855449.3364                   19855447.3164
  -9601200.03147  -7456076.46144  22968543.6484                   22968542.5904
 -22069691.81247 -17170228.08245  22376925.3134                   22376924.4384
    167625.98846    123082.49243  24452619.2114                   24452618.7424
   -986920.63746   -737447.41444  24518971.7194                   24518970.7034
 11  7 30  0  8 30.0000000  0  9G02G28G17G09G04G10G27G20G12
 -18995420.57048 -14769660.09446  21846823.1024                   21846819.0824
 -45377718.27347 -35350198.77345  22123719.6724                   22123717.1294
 -38182849.02748 -29718951.40646  21549206.2734                   21549203.5784
 -15584743.12947 -12115981.55945  22044596.6644                   22044595.2384
 -34741418.85548 -27038628.97746  19849363.6564                   19849361.5124
  -9727261.16847  -7554305.84844  22944554.4064                   22944554.2274
 -22100388.84047 -17194147.87145  22371083.8914                   22371082.5474
    182351.94946    134557.20343  24455422.2194                   24455421.3364
  -1119228.58646   -840544.45344  24493793.8054                   24493792.8634
 11  7 30  0  9  0.0000000  0  9G02G28G17G09G04G10G27G20G12
 -19100415.82048 -14851474.54346  21826843.4844                   21826839.1764
 -45350764.65247 -35329196.00445  22128848.2504                   22128846.0554
 -38184449.46148 -29720198.51646  21548901.3284                   21548899.3324
 -15627273.62547 -12149122.22345  22036503.4224                   22036502.3874
 -34772846.31648 -27063117.90646  19843383.5704                   19843381.0004
  -9853174.00447  -7652419.68744  22920594.5164                   22920593.9104
 -22130604.07047 -17217692.23445  22365333.9924                   22365332.8954
    197543.04746    146394.41043  24458313.2504                   24458311.4144
  -1251547.16847   -943649.80144  24468614.9144                   24468613.4614
 11  7 30  0  9 30.0000000  0  9G02G28G17G09G04G10G27G20G12
 -19205074.37948 -14933026.64146  21806927.0784                   21806923.4804
 -45323436.76247 -35307901.58245  22134048.9844                   22134046.8834
 -38185955.80947 -29721372.30946  21548614.9224                   21548612.6214
 -15669156.96547 -12181758.60945  22028533.6414                   22028531.7074
 -34803714.87548 -27087171.33646  19837509.2194                   19837507.4774
  -9978928.99247  -7750410.52744  22896663.6884                   22896662.9454
 -22160332.12947 -17240856.97745  22359677.3834                   22359676.0984
    213204.00847    158597.77743  24461294.1804                   24461292.2034
  -1383868.61747  -1046757.35544  24443435.3984                   24443433.3134
 11  7 30  0 10  0.0000000  0  9G02G28G17G09G04G10G27G20G12
 -19309402.56248 -15014321.30146  21787074.3364                   21787070.7544
 -45295742.10247 -35286321.38745  22139319.0634                   22139317.2504
 -38187375.78147 -29722478.80946  21548344.6334                   21548342.3444
 -15710400.75847 -12213896.64145  22020685.5084                   22020683.4144
 -34834032.97748 -27110795.83647  19831739.8524                   19831737.6414
 -10104530.03147  -7848281.39844  22872762.6564                   22872762.6484
 -22189580.85247 -17263648.21545  22354111.6094                   22354110.5554
    229326.36346    171160.62943  24464360.9774                   24464360.4574
  -1516198.45347  -1149871.45743  24418253.5314                   24418251.5434
 11  7 30  0 10 30.0000000  0  9G02G28G17G09G04G10G27G20G12
 -19413396.20348 -15095355.27746  21767284.8054                   21767281.3404
 -45267678.00047 -35264453.30145  22144659.8134                   22144658.1294
 -38188706.20347 -29723515.52046  21548091.3284                   21548089.2974
 -15751002.07847 -12245534.05545  22012958.7114                   22012957.7504
 -34863798.07448 -27133989.41446  19826075.8594                   19826073.8484
 -10229970.39847  -7946027.06644  22848892.2584                   22848891.4064
 -22218347.49647 -17286063.80945  22348637.1334                   22348636.2934
    245912.32446    184084.68443  24467517.5004                   24467517.0664
  -1648531.67647  -1252988.22343  24393070.4694                   24393069.0514
 11  7 30  0 11  0.0000000  0  9G02G28G17G09G04G10G27G20G12
 -19517052.74648 -15176126.58246  21747559.7194                   21747555.6724
 -45239243.24647 -35242296.37945  22150070.9774                   22150068.3134
 -38189945.44547 -29724481.18046  21547855.8754                   21547853.6914
 -15790959.69147 -12276669.86745  22005355.1174                   22005353.9804
 -34893010.16848 -27156752.08646  19820516.6954                   19820514.8794
 -10355245.65247  -8043644.08244  22825053.1334                   22825052.5944
 -22246631.55947 -17308103.37145  22343254.8674                   22343254.4414
    262961.91847    197370.04744  24470762.7734                   24470760.9104
  -1780865.00846  -1356105.05943  24367888.7194                   24367886.5434
 11  7 30  0 11 30.0000000  0  9G02G28G17G09G04G10G27G20G12
 -19620367.23048 -15256631.34446  21727899.5234                   21727895.8444
 -45210434.11747 -35219847.76245  22155553.1644                   22155551.3984
 -38191089.64547 -29725372.78946  21547638.2814                   21547635.4614
 -15830269.94947 -12307301.25045  21997874.5634                   21997873.3714
 -34921666.09448 -27179081.38347  19815063.9144                   19815061.5904
 -10480348.04747  -8141126.41044  22801247.1094                   22801246.6844
 -22274429.77047 -17329764.34045  22337965.1954                   22337964.2194
    280477.83247    211018.82443  24474095.6254                   24474093.9734
  -1913192.73846  -1459217.59843  24342707.8594                   24342705.5274
 11  7 30  0 12  0.0000000  0  9G02G28G17G09G04G10G27G20G12
 -19723341.07848 -15336870.67246  21708304.2274                   21708300.6454
 -45181254.41847 -35197110.37945  22161105.8754                   22161103.5944
 -38192141.44948 -29726192.39846  21547437.7344                   21547435.4534
 -15868936.16847 -12337430.78945  21990516.6024                   21990515.5234
 -34949769.40248 -27200980.06646  19809715.7194                   19809713.6334
 -10605276.97747  -8238473.55544  22777473.8204                   22777473.0204
 -22301745.57847 -17351049.40245  22332767.6884                   22332766.1174
    298456.27046    225027.96143  24477515.9534                   24477515.0204
  -2045515.96546  -1562326.54743  24317525.6884                   24317525.9264
 11  7 30  0 12 30.0000000  0  9G02G28G17G09G04G10G27G20G12
 -19825974.38748 -15416844.64546  21688773.4224                   21688770.2734
 -45151704.98847 -35174084.87945  22166728.6094                   22166726.4494
 -38193101.87548 -29726940.79346  21547255.1174                   21547252.5124
 -15906959.75447 -12367059.57045  21983281.0864                   21983279.7624
 -34977322.39548 -27222449.93047  19804472.7974                   19804471.0004
 -10730030.16847  -8335683.76244  22753733.8594                   22753733.0664
 -22328580.75047 -17371959.95745  22327660.9304                   22327659.6094
    316895.11346    239395.83243  24481025.2584                   24481024.0394
  -2177833.44146  -1665431.00442  24292347.3054                   24292346.7304
 11  7 30  0 13  0.0000000  0  9G02G28G17G09G04G10G27G20G12
 -19928260.57048 -15496548.12546  21669309.3984                   21669305.5554
 -45121781.01647 -35150767.54345  22172423.0314                   22172421.1804
 -38193965.34448 -29727613.64846  21547090.6484                   21547089.0904
 -15944335.62147 -12396183.62545  21976168.7344                   21976167.3794
 -35004320.66448 -27243487.54347  19799335.3364                   19799333.4024
 -10854598.82447  -8432750.18444  22730029.4384                   22730028.6564
 -22354930.65248 -17392492.37945  22322646.8594                   22322645.7894
    335798.10546    254125.41844  24484622.8204                   24484621.6294
  -2310137.81246  -1768525.27343  24267171.1174                   24267169.8244
 11  7 30  0 13 30.0000000  0  8G02G28G17G09G04G10G27G12
 -20030198.20748 -15575980.02346  21649911.3674                   21649907.6174
 -45091482.20347 -35127158.13345  22178188.4694                   22178186.4614
 -38194731.15648 -29728210.41046  21546945.4224                   21546942.7464
 -15981063.57447 -12424802.82445  21969179.3984                   21969178.4884
 -35030764.74248 -27264093.31647  19794303.2194                   19794300.7034
 -10978978.95347  -8529669.70744  22706361.0234                   22706359.7584
 -22380795.33247 -17412646.69945  22317724.7814                   22317723.7274
  -2442426.90646  -1871607.62543  24241996.9454                   24241996.4224
 11  7 30  0 14  0.0000000  0  8G02G28G17G09G04G10G27G12
 -20131791.59448 -15655143.66446  21630578.7114                   21630574.9924
 -45060814.09047 -35103260.95745  22184024.1884                   22184022.3244
 -38195404.48848 -29728735.10946  21546817.0004                   21546814.7034
 -16017149.16447 -12452921.47745  21962312.6484                   21962311.0434
 -35056660.82848 -27284272.08246  19789375.4304                   19789373.4184
 -11103172.09847  -8626443.51644  22682727.2424                   22682726.4924
 -22406180.79748 -17432427.60545  22312894.1724                   22312892.9184
  -2574704.06646  -1974680.69543  24216825.9304                   24216824.5864
 11  7 30  0 14 30.0000000  0  8G02G28G17G09G04G10G27G12
 -20233048.78948 -15734045.34046  21611310.2034                   21611306.2854
 -45029786.54347 -35079083.69945  22189928.8754                   22189926.8914
 -38195994.77748 -29729195.10246  21546705.1564                   21546702.4304
 -16052602.10547 -12480547.15245  21955566.3754                   21955564.8794
 -35082019.27348 -27304031.91446  19784549.8524                   19784547.7774
 -11227183.93447  -8723076.05544  22659128.3594                   22659128.0664
 -22431096.87547 -17451842.75045  22308152.4614                   22308151.1094
  -2706976.24247  -2077749.86344  24191655.0554                   24191654.4534
 11  7 30  0 15  0.0000000  0  8G02G28G17G09G04G10G27G12
 -20333950.62548 -15812670.10546  21592109.1484                   21592105.3324
 -44998381.69147 -35054612.43045  22195905.6024                   22195903.1954
 -38196483.33248 -29729575.80946  21546611.7344                   21546609.1644
 -16087404.77347 -12507666.12145  21948943.9064                   21948942.2504
 -35106822.76248 -27323359.30946  19779829.7664                   19779827.9104
 -11350992.60947  -8819550.28944  22635568.5474                   22635567.8444
 -22455526.38348 -17470878.74645  22303504.0474                   22303502.9024
  -2839223.54747  -2180799.65644  24166489.6804                   24166488.5704
 11  7 30  0 15 30.0000000  0  8G02G28G17G09G04G10G27G12
 -20434502.05948 -15891021.84046  21572974.6484                   21572970.8594
 -44966606.06647 -35029852.24245  22201952.0554                   22201949.8324
 -38196876.17248 -29729881.94546  21546537.0084                   21546534.7814
 -16121563.65247 -12534283.42645  21942443.3134                   21942441.7154
 -35131078.64148 -27342259.98846  19775213.9694                   19775212.1604
 -11474600.91847  -8915868.39144  22612046.9064                   22612045.4694
 -22479476.20347 -17489540.97745  22298946.0314                   22298945.2624
  -2971449.98447  -2283833.18044  24141328.0944                   24141326.1374
 11  7 30  0 16  0.0000000  0  8G02G28G17G09G04G10G27G12
 -20534696.96548 -15969095.77046  21553908.5554                   21553904.4494
 -44934455.28547 -35004799.74645  22208070.1804                   22208067.9264
 -38197168.35247 -29730109.63746  21546481.4614                   21546479.3164
 -16155074.26647 -12560395.60945  21936066.3984                   21936065.0434
 -35154782.97348 -27360730.90246  19770703.2974                   19770701.3554
 -11598000.35947  -9012023.75445  22588564.6094                   22588563.8674
 -22502942.02047 -17507826.05545  22294480.9694                   22294479.6884
  -3103648.41847  -2386844.88744  24116171.0394                   24116169.7584
 11  7 30  0 16 30.0000000  0  8G02G28G17G09G04G10G27G12
 -20634526.80948 -16046885.23446  21534911.2194                   21534907.1094
 -44901922.18447 -34979449.33245  22214261.4304                   22214259.3164
 -38197351.89547 -29730252.68046  21546446.2584                   21546444.0004
 -16187929.69947 -12585997.25445  21929813.9614                   21929813.0634
 -35177929.46548 -27378767.12547  19766298.4844                   19766296.5664
 -11721180.02047  -9108007.84044  22565124.0164                   22565123.3094
 -22525917.07447 -17525728.71545  22290109.6174                   22290107.9774
  -3235809.32047  -2489827.35244  24091021.4614                   24091020.4734
 11  7 30  0 17  0.0000000  0  8G02G28G17G09G04G10G27G12
 -20734000.57448 -16124397.23046  21515981.8984                   21515978.2074
 -44869017.19947 -34953809.13745  22220522.8594                   22220520.9534
 -38197436.55147 -29730318.66046  21546430.3134                   21546428.0864
 -16220140.58247 -12611096.65245  21923684.5704                   21923683.6134
 -35200529.05148 -27396377.19946  19761998.2584                   19761996.3874
 -11844146.57847  -9203825.87944  22541724.4224                   22541723.6684
 -22548412.08647 -17543257.32445  22285828.4064                   22285827.0394
  -3367940.82447  -2592786.90644  24065878.1484                   24065876.8714
 11  7 30  0 17 30.0000000  0  8G02G28G17G09G04G10G27G12
 -19257697.67248 -14974031.30146  21796912.6804                   21796909.2664
 -43260325.50047 -33700283.19545  22526646.4064                   22526644.6724
 -36622005.68448 -28502710.22346  21846224.8444                   21846222.7154
 -14676290.17247 -11408096.33645  22217469.3834                   22217468.5084
 -33647165.99648 -26185964.43446  20057593.5394                   20057591.8284
 -10391475.85547  -8071874.60945  22818157.8984                   22818157.6484
 -20995010.93748 -16332814.89545  22581430.4304                   22581429.2194
  -1924620.02747  -1468121.27344  24340532.6174                   24340531.0784
 11  7 30  0 18  0.0000000  0  8G02G28G17G09G04G10G27G12
 -19356464.82048 -15050992.68746  21778118.1254                   21778114.4064
 -43226686.31647 -33674070.91445  22533047.9144                   22533046.4884
 -36621900.48048 -28502628.26246  21846245.1884                   21846243.1884
 -14707222.12147 -11432199.18445  22211583.3754                   22211582.2934
 -33668683.85948 -26202731.60546  20053498.5554                   20053495.9614
 -10514013.46547  -8167358.40644  22794839.8524                   22794839.3754
 -21016556.97347 -16349604.04745  22577331.0234                   22577329.9614
  -2056694.83247  -1571036.64544  24315399.4844                   24315397.3594
 11  7 30  0 18 30.0000000  0  8G02G28G17G09G04G10G27G12
 -19454885.39548 -15127684.02346  21759389.2034                   21759385.4844
 -43192689.01647 -33647579.55945  22539517.4224                   22539515.2894
 -36621707.93448 -28502478.24246  21846281.9534                   21846279.5474
 -14737523.69547 -11455810.81245  22205817.0554                   22205815.7624
 -33689670.70348 -26219085.00046  20049505.1254                   20049502.7704
 -10636339.59847  -8262677.40644  22771562.6094                   22771561.3914
 -21037637.98847 -16366030.83645  22573319.3984                   22573317.7504
  -2188746.43447  -1673933.96944  24290270.9774                   24290268.9534
 11  7 30  0 19  0.0000000  0  8G02G28G17G09G04G10G27G12
 -19552947.78148 -15204096.24646  21740728.7504                   21740724.9144
 -43158323.61347 -33620801.39145  22546057.2114                   22546055.6214
 -36621417.90248 -28502252.25446  21846336.2894                   21846334.7194
 -14767185.27347 -11478923.74645  22200172.8594                   22200171.6054
 -33710117.25848 -26235017.38746  20045614.2194                   20045611.5554
 -10758440.15247  -8357820.63744  22748327.0944                   22748326.2424
 -21058244.59447 -16382087.96945  22569398.4384                   22569397.4844
  -2320762.07446  -1776803.25043  24265147.6954                   24265147.2934
 11  7 30  0 19 30.0000000  0  8G02G28G17G09G04G10G27G12
 -19650652.36748 -15280229.66446  21722136.0164                   21722132.3714
 -43123592.43047 -33593738.19545  22552666.2424                   22552664.6294
 -36621031.46548 -28501951.15646  21846410.3524                   21846407.9494
 -14796209.19947 -11501539.80945  22194649.8674                   22194647.9344
 -33730026.39548 -26250531.00046  20041825.6564                   20041823.3834
 -10880313.19547  -8452786.59845  22725135.0944                   22725134.8554
 -21078379.23047 -16397777.32045  22565566.2344                   22565565.1484
  -2452741.19947  -1879644.07044  24240033.7584                   24240032.6764
 11  7 30  0 20  0.0000000  0  8G02G28G17G09G04G10G27G12
 -19747998.07848 -15356083.43446  21703611.9694                   21703607.9494
 -43088495.14147 -33566389.71145  22559345.3134                   22559343.1294
 -36620547.93048 -28501574.39146  21846502.3674                   21846500.0784
 -14824595.63747 -11523659.12545  22189248.0554                   22189246.6414
 -33749398.95348 -26265626.51246  20038138.8754                   20038136.6414
 -11001954.91447  -8547572.31245  22701987.7274                   22701987.3674
 -21098042.32847 -16413099.24645  22561824.8364                   22561823.4024
  -2584681.07447  -1982454.30144  24214927.2664                   24214925.0904
 11  7 30  0 20 30.0000000  0  8G02G28G17G09G04G10G27G12
 -19844983.90648 -15431656.78946  21685155.9844                   21685151.9774
 -43053032.28147 -33538756.35945  22566093.8594                   22566091.2304
 -36619966.57448 -28501121.40646  21846612.9774                   21846610.6254
 -14852344.71947 -11545281.80545  22183967.6254                   22183965.9774
 -33768235.77748 -26280304.55546  20034554.3834                   20034552.3244
 -11123361.16047  -8642174.52045  22678884.9384                   22678884.3754
 -21117234.59848 -16428054.30945  22558173.2584                   22558171.7664
  -2716580.07847  -2085232.68443  24189827.4144                   24189825.1844
 11  7 30  0 21  0.0000000  0  8G02G28G17G09G04G10G27G12
 -19941608.07448 -15506948.32846  21666768.9924                   21666765.2344
 -43017203.91447 -33510838.20345  22572911.8594                   22572909.6884
 -36619286.84848 -28500591.77046  21846742.1024                   21846739.9534
 -14879457.23047 -11566408.46545  22178808.3364                   22178807.0234
 -33786537.62148 -26294565.74246  20031071.9064                   20031069.4694
 -11244527.82847  -8736590.06645  22655827.7974                   22655826.6094
 -21135956.53548 -16442642.85245  22554609.7814                   22554608.8284
  -2848434.92647  -2187976.69143  24164735.9304                   24164734.3054
 11  7 30  0 21 30.0000000  0  8G02G28G17G09G04G10G27G12
 -20037873.53548 -15581960.34846  21648450.1804                   21648446.6604
 -42981014.36347 -33482638.59844  22579798.1724                   22579795.9694
 -36618512.29348 -28499988.23046  21846889.8284                   21846887.2114
 -14905937.80547 -11587042.70345  22173769.3914                   22173767.7234
 -33804309.78548 -26308414.18046  20027689.7584                   20027687.8634
 -11365455.46147  -8830819.33645  22632815.8134                   22632815.0824
 -21154212.96147 -16456868.67245  22551136.0554                   22551134.9344
  -2980247.60947  -2290687.78544  24139652.7114                   24139650.9384
 11  7 30  0 22  0.0000000  0  8G02G28G17G09G04G10G27G12
 -20133781.00848 -15656693.41846  21630199.7034                   21630195.7074
 -42944465.63747 -33454159.12545  22586753.2584                   22586750.9414
 -36617644.12548 -28499311.75446  21847054.5944                   21847052.7194
 -14931788.44947 -11607186.08245  22168850.1804                   22168849.0704
 -33821554.70748 -26321851.78947  20024408.0474                   20024405.8324
 -11486142.00447  -8924860.74245  22609849.8594                   22609849.1604
 -21172006.39848 -16470733.71545  22547749.6724                   22547748.8834
  -3112017.46547  -2393365.54744  24114578.2424                   24114576.6254
 11  7 30  0 22 30.0000000  0  8G02G28G17G09G04G10G27G12
 -20229328.31648 -15731145.84046  21612017.6414                   21612013.5594
 -42907557.35947 -33425399.48445  22593777.1024                   22593774.7814
 -36616681.10248 -28498561.36346  21847238.2034                   21847235.6994
 -14957009.30947 -11626838.73845  22164050.7814                   22164049.2854
 -33838272.81648 -26334878.89546  20021226.9454                   20021224.5354
 -11606582.59847  -9018710.50845  22586930.8524                   22586929.9884
 -21189336.58648 -16484237.78945  22544452.3674                   22544451.2704
  -3243741.11747  -2496007.32044  24089511.3674                   24089509.6374
 11  7 30  0 23  0.0000000  0  8G02G28G17G09G04G10G27G12
 -20324511.21148 -15805314.31246  21593904.5004                   21593900.9104
 -42870286.91447 -33396357.64145  22600868.5084                   22600867.5984
 -36615619.27348 -28497733.98846  21847440.4384                   21847437.9964
 -14981597.71547 -11645998.56245  22159371.7664                   22159370.8244
 -33854462.15248 -26347493.97346  20018146.3054                   20018143.8834
 -11726770.43447  -9112363.32445  22564059.7344                   22564058.9734
 -21206201.36347 -16497379.20745  22541242.7974                   22541241.5864
  -3375413.07847  -2598608.82844  24064455.2274                   24064453.6684
 11  7 30  0 23 30.0000000  0  8G02G28G17G09G04G10G27G12
 -20419333.18048 -15879201.53546  21575860.9304                   21575856.8014
 -42832659.03147 -33367037.29744  22608029.1804                   22608028.0704
 -36614462.86348 -28496832.91046  21847660.3674                   21847658.0664
 -15005559.08648 -11664669.78145  22154812.0004                   22154811.0004
 -33870128.28948 -26359701.35246  20015165.0004                   20015162.6254
 -11846706.55147  -9205820.00845  22541236.8914                   22541235.5594
 -21222606.19947 -16510162.22745  22538121.2114                   22538120.0474
  -3507035.23447  -2701171.48044  24039408.3364                   24039406.4344
 11  7 30  0 24  0.0000000  0  8G02G28G17G09G04G10G27G12
 -20513790.03148 -15952804.25446  21557886.1954                   21557882.3984
 -42794670.81247 -33337436.16845  22615258.0944                   22615256.6564
 -36613207.86748 -28495855.00846  21847899.3984                   21847896.8954
 -15028890.86347 -11682850.40245  22150372.4064                   22150371.0394
 -33885269.15648 -26371499.44546  20012283.5944                   20012281.3594
 -11966383.69147  -9299074.87145  22518463.0474                   22518461.5514
 -21238548.53147 -16522584.84445  22535087.1954                   22535086.3244
  -3638602.19947  -2803691.16044  24014372.0864                   24014370.0594
 11  7 30  0 24 30.0000000  0  8G02G28G17G09G04G10G27G12
 -20607891.87548 -16026130.33646  21539979.0474                   21539975.1884
 -42756334.18747 -33307563.54745  22622554.1884                   22622552.0554
 -36611864.94548 -28494808.59846  21848154.8134                   21848152.5204
 -15051605.04348 -11700549.80145  22146049.9304                   22146048.5274
 -33899897.16448 -26382897.89846  20009499.9774                   20009498.0084
 -12085809.35247  -9392133.78945  22495736.8444                   22495735.7344
 -21254040.54748 -16534656.58645  22532139.6954                   22532138.3244
  -3770122.84847  -2906174.72744  23989344.5944                   23989343.0474
 11  7 30  0 25  0.0000000  0  8G02G28G17G09G04G10G27G12
 -20701634.98848 -16099176.89546  21522140.5004                   21522136.8754
 -42717647.05147 -33277417.79345  22629915.6954                   22629913.6484
 -36610431.55148 -28493691.68446  21848427.8984                   21848425.3794
 -15073700.08247 -11717766.73845  22141845.2424                   22141844.3014
 -33914011.09048 -26393895.77746  20006814.1644                   20006811.8984
 -12204977.35947  -9484991.93045  22473059.9774                   22473058.8794
 -21269080.58647 -16546376.12545  22529277.5234                   22529276.7624
  -3901592.18447  -3008618.33644  23964326.9144                   23964324.9494
 11  7 30  0 25 30.0000000  0  8G02G28G17G09G04G10G27G12
 -20795010.57448 -16171937.05546  21504371.8674                   21504367.9384
 -42678602.00847 -33246993.14145  22637346.0394                   22637344.0044
 -36608898.84448 -28492497.37146  21848719.2974                   21848717.0984
 -15095168.66847 -11734495.53145  22137760.2114                   22137759.0044
 -33927604.04748 -26404487.69146  20004227.7114                   20004225.9844
 -12323875.99647  -9577640.16045  22450434.5004                   22450433.2464
 -21283661.73447 -16557738.08645  22526502.8914                   22526501.5664
  -4032999.69947  -3111013.74244  23939320.8284                   23939319.2114
 11  7 30  0 26  0.0000000  0  8G02G28G17G09G04G10G27G12
 -20888024.40248 -16244415.35246  21486671.5554                   21486667.7034
 -42639206.60948 -33216295.48845  22644842.3284                   22644840.4844
 -36607273.50048 -28491230.88746  21849028.5554                   21849025.9694
 -15116019.09047 -11750742.64145  22133792.4144                   22133791.0434
 -33940684.23448 -26414680.05546  20001738.5394                   20001736.9024
 -12442508.62947  -9670081.11745  22427858.8444                   22427858.0044
 -21297791.87147 -16568748.61345  22523814.0704                   22523813.0164
  -4164350.16447  -3213364.71944  23914325.5394                   23914324.0274
 11  7 30  0 26 30.0000000  0  8G02G28G17G09G04G10G27G12
 -20980669.71948 -16316606.48446  21469041.8524                   21469038.2074
 -42599454.96947 -33185320.23844  22652406.9384                   22652405.4734
 -36605548.87148 -28489887.03946  21849356.6024                   21849354.4304
 -15136246.24647 -11766504.08245  22129943.3754                   22129942.3284
 -33953247.10548 -26424469.30546  19999348.1484                   19999346.0274
 -12560865.52347  -9762307.23045  22405336.7274                   22405335.3094
 -21311466.18047 -16579403.95745  22521211.9304                   22521210.9804
  -4295635.14847  -3315664.66044  23889342.4614                   23889341.0274
 11  7 30  0 27  0.0000000  0  8G02G28G17G09G04G10G27G12
 -21072950.44148 -16388513.52046  21451481.5474                   21451477.6844
 -42559352.98847 -33154071.98844  22660038.3204                   22660036.0354
 -36603729.46547 -28488469.34046  21849703.3444                   21849701.0004
 -15155855.75447 -11781784.25045  22126211.5164                   22126210.7424
 -33965298.75448 -26433860.20346  19997054.7424                   19997052.9384
 -12678947.63347  -9854319.21545  22382865.7424                   22382865.2854
 -21324690.29347 -16589708.49245  22518695.8444                   22518694.5124
  -4426857.37147  -3417915.71944  23864371.5944                   23864369.8094
 11  7 30  0 27 30.0000000  0  8G02G28G17G09G04G10G27G12
 -21164858.74248 -16460130.35546  21433991.8364                   21433987.8914
 -42518894.23847 -33122545.73844  22667737.0394                   22667735.3484
 -36601807.63348 -28486971.83246  21850068.7424                   21850066.4614
 -15174841.58647 -11796578.42645  22122599.0634                   22122597.6884
 -33976833.63748 -26442848.42646  19994859.6024                   19994857.6054
 -12796744.64547  -9946109.04745  22360449.6564                   22360448.9144
 -21337458.46947 -16599657.75845  22516265.7504                   22516264.6914
  -4558007.04747  -3520110.22344  23839415.2504                   23839413.6094
 11  7 30  0 28  0.0000000  0  8G02G28G17G09G04G10G27G12
 -21256407.49248 -16531467.02346  21416570.5004                   21416566.6254
 -42478093.11747 -33090752.71544  22675501.3834                   22675499.5984
 -36599796.75447 -28485404.93046  21850451.3204                   21850449.2934
 -15193218.44547 -11810898.08645  22119101.8524                   22119100.3714
 -33987866.77048 -26451445.68046  19992760.0704                   19992758.3524
 -12914266.59447 -10037684.55145  22338086.1724                   22338085.3914
 -21349785.62547 -16609263.37145  22513919.8674                   22513919.2544
  -4689095.59447  -3622257.10244  23814469.6724                   23814468.3954
 11  7 30  0 28 30.0000000  0  8G02G28G17G09G04G10G27G12
 -21347590.43448 -16602518.63746  21399219.2194                   21399215.6524
 -42436944.55547 -33058688.96944  22683331.4844                   22683330.3014
 -36597690.96548 -28483764.06646  21850852.4144                   21850849.6684
 -15210982.25448 -11824740.03545  22115721.7584                   22115720.9964
 -33998394.12548 -26459648.81246  19990756.7814                   19990755.0084
 -13031504.37547 -10129038.61745  22315776.6334                   22315775.4844
 -21361667.56647 -16618522.06245  22511658.9224                   22511657.9654
  -4820115.31247  -3724350.34444  23789537.6334                   23789536.1844
 11  7 30  0 29  0.0000000  0  8G02G28G17G09G04G10G27G12
 -21438398.98448 -16673278.52046  21381938.9534                   21381935.0984
 -42395441.80147 -33026349.23444  22691229.2664                   22691227.9184
 -36595481.99648 -28482042.80146  21851272.6094                   21851270.2894
 -15228126.66048 -11838099.34845  22112459.2814                   22112458.2624
 -34008409.66848 -26467453.13346  19988850.9064                   19988848.8054
 -13148446.93447 -10220162.64145  22293523.3054                   22293522.2464
 -21373097.80947 -16627428.76645  22509483.8594                   22509482.9494
  -4951056.09847  -3826382.09444  23764620.5394                   23764619.0204
 11  7 30  0 29 30.0000000  0  8G02G28G17G09G04G10G27G12
 -21528842.14548 -16743753.69546  21364728.3054                   21364724.2234
 -42353595.92247 -32993742.13344  22699192.8364                   22699191.2704
 -36593179.45348 -28480248.63746  21851710.6884                   21851708.7464
 -15244662.79347 -11850984.67245  22109312.2424                   22109311.4844
 -34017924.64848 -26474867.41446  19987039.9694                   19987038.3914
 -13265100.29347 -10311061.33645  22271324.7344                   22271323.7114
 -21384087.37547 -16635992.10545  22507392.5704                   22507391.8674
  -5081925.49247  -3928358.20344  23739716.9304                   23739714.4384
 11  7 30  0 30  0.0000000  0  8G02G28G17G09G04G10G27G12
 -21618925.29748 -16813948.33246  21347586.0314                   21347581.9964
 -42311413.24247 -32960872.58645  22707219.9844                   22707218.8094
 -36590788.91047 -28478385.89146  21852165.4924                   21852163.0634
 -15260597.91847 -11863401.68745  22106280.1024                   22106279.0314
 -34026946.80148 -26481897.66046  19985323.2584                   19985321.1684
 -13381466.96947 -10401736.62545  22249181.0234                   22249179.8364
 -21394643.75447 -16644217.88345  22505384.2664                   22505382.4384
  -5212727.59047  -4030281.89844  23714825.5784                   23714824.0434
 11  7 30  0 30 30.0000000  0  8G02G28G17G09G04G10G27G12
 -21708635.71948 -16883852.53946  21330514.5234                   21330510.6914
 -42268882.58647 -32927731.89144  22715313.3914                   22715312.0434
 -36588297.60947 -28476444.64146  21852639.8444                   21852637.4884
 -15275921.16847 -11875341.89145  22103364.2424                   22103362.9494
 -34035465.34048 -26488535.49646  19983702.2584                   19983700.4494
 -13497531.37147 -10492176.38745  22227094.5784                   22227093.6454
 -21404755.94947 -16652097.54745  22503459.4454                   22503458.3794
  -5343447.61747  -4132141.61344  23689950.4844                   23689948.1374
 11  7 30  0 31  0.0000000  0  8G02G28G17G09G04G10G27G12
 -21797977.81648 -16953469.74246  21313513.2274                   21313509.4614
 -42226010.03947 -32894324.78144  22723472.3524                   22723470.2664
 -36585710.46547 -28474428.69546  21853132.0634                   21853129.7664
 -15290638.66447 -11886810.09045  22100563.2194                   22100562.3834
 -34043486.77048 -26494785.96946  19982176.2424                   19982174.1174
 -13613294.90647 -10582381.69945  22205065.4454                   22205064.1334
 -21414430.35547 -16659636.07845  22501618.6254                   22501617.6094
  -5474088.14847  -4233939.40644  23665090.8134                   23665088.5744
 11  7 30  0 31 30.0000000  0  8G02G28G17G09G04G10G27G12
 -21886948.80548 -17022797.76646  21296582.6414                   21296578.8244
 -42182794.22747 -32860650.18044  22731695.6254                   22731693.3554
 -36583025.28547 -28472336.36746  21853642.9774                   21853640.6684
 -15304750.45347 -11897806.31245  22097878.1024                   22097877.1334
 -34051011.05148 -26500649.05146  19980744.0004                   19980742.1914
 -13728752.30947 -10672348.46945  22183094.3204                   22183093.5124
 -21423666.41047 -16666833.04745  22499860.7424                   22499860.2154
  -5604645.07847  -4335672.02744  23640245.9144                   23640244.5554
 11  7 30  0 32  0.0000000  0  8G02G28G17G09G04G10G27G12
 -21975558.56248 -17091844.32046  21279720.7974                   21279717.2464
 -42139246.44947 -32826716.90244  22739982.2664                   22739980.6994
 -36580252.01247 -28470175.40645  21854171.0704                   21854168.7074
 -15318268.09047 -11908339.56645  22095305.9614                   22095304.6054
 -34058050.03148 -26506133.97347  19979404.8524                   19979402.9534
 -13843910.60947 -10762082.18445  22161180.3914                   22161179.5594
 -21432475.92647 -16673697.63745  22498184.9694                   22498183.6134
  -5735126.63747  -4437345.92644  23615416.3984                   23615414.9804
 11  7 30  0 32 30.0000000  0  8G02G28G17G09G04G10G27G12
 -22063799.03948 -17160603.11746  21262929.2974                   21262925.1484
 -42095360.31647 -32792519.98444  22748333.3204                   22748332.0314
 -36577382.73447 -28467939.62946  21854716.7424                   21854714.5084
 -15331185.70747 -11918405.26645  22092848.0394                   22092846.2504
 -34064598.07848 -26511236.36346  19978158.4384                   19978156.5084
 -13958758.74247 -10851574.18745  22139325.4774                   22139324.6484
 -21440852.87547 -16680225.16045  22496590.8054                   22496589.8444
  -5865522.81247  -4538953.30544  23590603.2814                   23590600.8484
 11  7 30  0 33  0.0000000  0  8G02G28G17G09G04G10G27G12
 -22151669.88748 -17229073.88746  21246208.0084                   21246204.2814
 -42051137.24247 -32758060.51244  22756749.4614                   22756746.5204
 -36574417.36347 -28465628.97346  21855281.2734                   21855278.7154
 -15343505.28947 -11928004.96145  22090503.6254                   22090502.1724
 -34070657.07048 -26515957.66446  19977005.5634                   19977003.5704
 -14073293.98047 -10940822.39145  22117529.9534                   22117529.4964
 -21448799.17247 -16686417.11345  22495078.5234                   22495077.8324
  -5995832.02747  -4640492.89844  23565805.9454                   23565803.6684
 11  7 30  0 33 30.0000000  0  8G02G28G17G09G04G10G27G12
 -22239168.90248 -17297254.91446  21229557.3524                   21229553.6764
 -42006576.42247 -32723337.85944  22765228.4384                   22765226.8094
 -36571353.85548 -28463241.86746  21855863.9614                   21855861.8794
 -15355226.67647 -11937138.53945  22088272.9774                   22088271.9064
 -34076227.32848 -26520298.12546  19975945.6414                   19975943.8754
 -14187510.97347 -11029822.60945  22095795.4224                   22095794.3594
 -21456314.62547 -16692273.34045  22493648.6334                   22493647.6724
  -6126050.20347  -4741961.55144  23541025.8134                   23541024.4304
 11  7 30  0 34  0.0000000  0  8G02G28G17G09G04G10G27G12
 -22326293.20748 -17365143.95746  21212978.1644                   21212974.1724
 -41961676.29747 -32688350.81644  22773773.0784                   22773771.5744
 -36568189.50447 -28460776.15246  21856466.4614                   21856464.4924
 -15366348.80147 -11945805.14145  22086156.4844                   22086155.6334
 -34081307.96148 -26524257.06646  19974978.9454                   19974976.8914
 -14301403.66047 -11118570.12145  22074122.6414                   22074121.7304
 -21463398.28547 -16697793.11345  22492300.6174                   22492299.6884
  -6256172.31247  -4843355.35544  23516264.2974                   23516263.0164
 11  7 30  0 34 30.0000000  0  8G02G28G17G09G04G10G27G12
 -22413042.01248 -17432740.41046  21196469.9384                   21196466.6994
 -41916437.83647 -32653100.14844  22782381.3444                   22782380.1844
 -36564923.53948 -28458231.27346  21857087.9534                   21857085.4774
 -15376873.37947 -11954006.13745  22084154.3134                   22084152.6884
 -34085900.32048 -26527835.53146  19974104.9694                   19974102.8634
 -14414968.41447 -11207062.11345  22052512.1644                   22052510.7424
 -21470051.31247 -16702977.32445  22491034.7504                   22491033.8714
  -6386196.24247  -4944672.64544  23491521.3444                   23491520.2624
 11  7 30  0 35  0.0000000  0  8G02G28G17G09G04G10G27G12
 -22499418.18448 -17500046.50046  21180033.5234                   21180029.8364
 -41870865.18747 -32617589.05144  22791054.0004                   22791052.3714
 -36561558.82048 -28455609.44146  21857728.2664                   21857725.8054
 -15386805.28147 -11961745.30545  22082263.9534                   22082262.9884
 -34090009.83648 -26531037.76246  19973322.6644                   19973320.9414
 -14528205.20747 -11295298.53945  22030963.9774                   22030962.8794
 -21476278.71147 -16707829.87945  22489849.0164                   22489848.5044
  -6516122.85247  -5045914.09044  23466797.3284                   23466795.8444
 11  7 30  0 35 30.0000000  0  8G02G28G17G09G04G10G27G12
 -22585426.27748 -17567065.77746  21163666.8364                   21163663.0084
 -41824964.57847 -32581822.40644  22799788.9534                   22799787.1724
 -36558100.69948 -28452914.82846  21858386.2114                   21858384.3794
 -15396150.90647 -11969027.63745  22080485.4534                   22080484.6294
 -34093643.04748 -26533868.84446  19972631.5394                   19972629.5354
 -14641115.81647 -11383280.79745  22009477.6644                   22009476.2734
 -21482087.04347 -16712355.88745  22488744.3594                   22488743.5124
  -6645954.66447  -5147081.67244  23442091.6094                   23442089.5124
 11  7 30  0 36  0.0000000  0  8G02G28G17G09G04G10G27G12
 -22671059.52748 -17633792.96946  21147370.9844                   21147367.4344
 -41778731.12947 -32545796.41844  22808586.8914                   22808585.4144
 -36554542.00848 -28450141.84046  21859063.2424                   21859061.1724
 -15404905.88747 -11975849.73845  22078819.5634                   22078818.6214
 -34096795.84848 -26536325.57446  19972031.6414                   19972029.9844
 -14753690.88747 -11471001.59845  21988055.0394                   21988053.9694
 -21487471.66847 -16716551.73845  22487719.3984                   22487718.2034
  -6775683.11747  -5248168.72744  23417404.6884                   23417402.8834
 11  7 30  0 36 30.0000000  0  8G02G28G17G09G04G10G27G12
 -22756325.55548 -17700234.00446  21131145.5084                   21131141.8874
 -41732173.61747 -32509517.93444  22817446.8754                   22817445.3874
 -36550890.53947 -28447296.55946  21859758.2974                   21859755.9614
 -15413080.18047 -11982219.34045  22077264.1174                   22077263.0744
 -34099477.91848 -26538415.50046  19971521.1804                   19971519.3094
 -14865935.13747 -11558464.61745  21966695.6484                   21966694.3094
 -21492442.38347 -16720425.05945  22486773.7814                   22486773.1054
  -6905314.16047  -5349179.87544  23392736.7504                   23392734.6254
 11  7 30  0 37  0.0000000  0  8G02G28G17G09G04G10G27G12
 -22841212.15648 -17766379.39546  21114992.0314                   21114988.1334
 -41685281.14547 -32472978.40244  22826369.9774                   22826368.0164
 -36547134.04347 -28444369.44146  21860473.0634                   21860470.9694
 -15420663.66447 -11988128.57045  22075820.8054                   22075820.3094
 -34101679.05948 -26540130.68446  19971102.4454                   19971100.5274
 -14977832.93447 -11645657.67645  21945402.2974                   21945401.1604
 -21496988.98047 -16723967.90645  22485908.8204                   22485908.0274
  -7034833.14847  -5450103.71545  23368089.8364                   23368087.8874
 11  7 30  0 37 30.0000000  0  8G02G28G17G09G04G10G27G12
 -22925728.53548 -17832236.30546  21098909.5164                   21098905.3794
 -41638064.75447 -32436186.47344  22835354.3834                   22835352.9264
 -36543281.92648 -28441367.80545  21861206.1334                   21861203.9574
 -15427667.88747 -11993586.43045  22074488.0004                   22074486.9494
 -34103411.01648 -26541480.27046  19970773.0004                   19970771.0354
 -15089390.64147 -11732585.71945  21924173.6804                   21924172.3634
 -21501122.97347 -16727189.24245  22485122.3984                   22485121.4924
  -7164248.04347  -5550946.44945  23343463.2504                   23343460.7034
 11  7 30  0 38  0.0000000  0  8G02G28G17G09G04G10G27G12
 -23009870.09048 -17897801.13746  21082897.7194                   21082893.8054
 -41590521.44947 -32399139.84044  22844402.0944                   22844400.2544
 -36539329.41047 -28438287.94145  21861958.4384                   21861955.9344
 -15434090.71147 -11998591.25445  22073265.8054                   22073264.6764
 -34104671.71548 -26542462.63346  19970532.8054                   19970531.0634
 -15200600.77347 -11819242.93445  21903010.7814                   21903010.0204
 -21504841.60547 -16730086.91445  22484414.2664                   22484413.3134
  -7293552.38747  -5651703.04744  23318857.1644                   23318855.4144
 11  7 30  0 38 30.0000000  0  8G02G28G17G09G04G10G27G12
 -23093637.32048 -17963074.28546  21066957.2274                   21066953.6054
 -41542653.31247 -32361840.05943  22853510.6804                   22853509.1994
 -36535277.41048 -28435130.54746  21862729.5164                   21862727.3834
 -15439934.57047 -12003144.94145  22072154.1724                   22072152.8874
 -34105463.70348 -26543079.78146  19970382.1564                   19970379.8954
 -15311461.26647 -11905627.69145  21881914.5004                   21881913.2384
 -21508147.63747 -16732663.08245  22483785.1174                   22483784.5234
  -7422744.78547  -5752372.39844  23294272.7274                   23294270.7504
 11  7 30  0 39  0.0000000  0  8G02G28G17G09G04G10G27G12
 -23177028.11348 -18028054.10246  21051088.3594                   21051084.7934
 -41494459.41447 -32324286.42644  22862681.4144                   22862679.9654
 -36531123.31647 -28431893.60246  21863520.1564                   21863517.7934
 -15445199.70347 -12007247.66445  22071151.6484                   22071150.5784
 -34105787.07448 -26543331.77046  19970320.4614                   19970318.5274
 -15421966.65647 -11991735.75845  21860886.0084                   21860884.7704
 -21511040.73047 -16734917.48445  22483235.2974                   22483234.0124
  -7551820.68747  -5852951.00844  23269710.2894                   23269707.9184
 11  7 30  0 39 30.0000000  0  8G02G28G17G09G04G10G27G12
 -23260043.88348 -18092741.70346  21035290.5474                   21035286.9774
 -41445943.03547 -32286481.50444  22871914.7504                   22871912.4804
 -36526868.71948 -28428578.33646  21864329.5084                   21864327.4964
 -15449889.83647 -12010902.35545  22070259.2274                   22070258.3554
 -34105645.40648 -26543221.38346  19970347.5704                   19970345.7704
 -15532115.41847 -12077565.92645  21839925.8364                   21839924.1054
 -21513524.64547 -16736853.03945  22482762.6254                   22482761.4734
  -7680779.41047  -5953438.30544  23245170.4384                   23245167.9844
 11  7 30  0 40  0.0000000  0  9G02G28G17G09G04G10G27G05G12
 -21767259.81648 -16929533.32046  21319358.2504                   21319354.5634
 -39821685.41447 -31020826.27344  23181000.5004                   23180998.9884
 -34947091.86347 -27197583.39845  22164951.1174                   22164948.7464
 -13878585.15647 -10786509.13745  22369269.1644                   22369267.8634
 -32529619.15248 -25315148.98846  20270255.4304                   20270253.4534
 -14066479.03147 -10935511.55945  22118827.0164                   22118825.5234
 -19940179.29747 -15510869.69145  22782159.8674                   22782159.0474
   2946414.42256   2329220.55153  24820710.5704                   24820713.1764
  -6234192.70747  -4826227.85244  23520446.7114                   23520444.6724
 11  7 30  0 40 30.0000000  0  9G02G28G17G09G04G10G27G05G12
 -21849531.64148 -16993641.23046  21303702.5554                   21303698.8754
 -39772534.59047 -30982527.00044  23190353.5554                   23190352.2704
 -34942642.39547 -27194116.29346  22165797.7814                   22165795.5394
 -13882138.28547 -10789277.85245  22368592.8754                   22368591.4064
 -32528560.77048 -25314324.28146  20270457.0394                   20270454.7344
 -14175912.03147 -11020783.99245  22098002.3594                   22098001.3714
 -19941857.33247 -15512177.28145  22781840.5084                   22781839.4454
   2806835.28946   2220457.80143  24794150.2274                   24794151.9494
  -6362917.36347  -4926532.75844  23495950.7424                   23495948.9774
 11  7 30  0 41  0.0000000  0  9G02G28G17G09G04G10G27G05G12
 -21931428.28548 -17057456.78146  21288118.2814                   21288114.1374
 -39723065.50847 -30943979.71944  23199767.0864                   23199766.5084
 -34938091.93448 -27190570.50046  22166663.6804                   22166661.6954
 -13885122.86747 -10791603.53145  22368025.1024                   22368023.2624
 -32527044.09448 -25313142.46146  20270745.5394                   20270743.3874
 -14284979.24647 -11105771.39845  22077247.6094                   22077246.4844
 -19943132.32047 -15513170.81245  22781597.4924                   22781596.8054
   2667178.14546   2111634.22744  24767573.3524                   24767576.2974
  -6491519.12947  -5026741.89144  23471479.0474                   23471477.0634
 11  7 30  0 41 30.0000000  0  9G02G28G17G09G04G10G27G05G12
 -22012952.14148 -17120981.85246  21272604.4454                   21272600.5474
 -39673282.35547 -30905187.74644  23209241.0474                   23209240.0514
 -34933442.86348 -27186947.86346  22167548.3984                   22167546.2344
 -13887543.75447 -10793489.96145  22367564.2274                   22367562.8674
 -32525073.84448 -25311607.20746  20271120.4454                   20271118.6644
 -14393680.61347 -11190473.72345  22056562.7034                   22056561.5904
 -19944008.69547 -15513853.73045  22781430.9064                   22781430.2194
   2527442.50847   2002749.50044  24740983.1804                   24740984.8054
  -6619998.09047  -5126855.31244  23447029.8754                   23447028.1024
 11  7 30  0 42  0.0000000  0  9G02G28G17G09G04G10G27G05G12
 -22094109.23448 -17184221.11746  21257161.0944                   21257157.3834
 -39623192.84447 -30866157.05144  23218772.6644                   23218771.9264
 -34928701.27348 -27183253.14546  22168450.6644                   22168448.8834
 -13889409.47347 -10794943.78545  22367209.3134                   22367207.9774
 -32522658.39148 -25309725.03946  20271579.9534                   20271578.4184
 -14502018.98847 -11274893.20745  22035946.2344                   22035945.0984
 -19944494.75447 -15514232.53145  22781339.1484                   22781338.2624
   2387624.65247   1893800.69544  24714376.8524                   24714378.5394
  -6748358.45747  -5226876.32444  23422603.8444                   23422601.9224
 11  7 30  0 42 30.0000000  0  9G02G28G17G09G04G10G27G05G12
 -22174892.09048 -17247168.78546  21241788.5784                   21241784.6414
 -39572790.62147 -30826882.70744  23228363.1644                   23228362.8554
 -34923859.53147 -27179480.38746  22169372.0704                   22169370.4494
 -13890714.59447 -10795960.79345  22366960.3524                   22366959.3754
 -32519792.30548 -25307491.74246  20272125.3444                   20272123.4064
 -14609983.88747 -11359021.67645  22015401.2194                   22015400.4264
 -19944584.83247 -15514302.76245  22781321.5474                   22781321.1294
   2247734.60247   1784795.64544  24687756.4534                   24687757.6214
  -6876590.20747  -5326797.13344  23398201.9534                   23398200.2194
 11  7 30  0 43  0.0000000  0  9G02G28G17G09G04G10G27G05G12
 -22255303.62148 -17309827.09446  21226486.9454                   21226482.7814
 -39522080.08247 -30787368.09444  23238013.9384                   23238012.6764
 -34918920.02348 -27175631.44546  22170312.2034                   22170309.9384
 -13891464.25047 -10796544.99245  22366817.9064                   22366817.2274
 -32516480.80948 -25304911.36746  20272755.8054                   20272753.9534
 -14717575.07847 -11442858.92645  21994927.1564                   21994925.9534
 -19944283.87147 -15514068.29345  22781378.7664                   22781378.3674
   2107772.20747   1675734.18844  24661122.4224                   24661123.1804
  -7004693.68747  -5426618.00045  23373825.0634                   23373822.9064
 11  7 30  0 43 30.0000000  0  9G02G28G17G09G04G10G27G05G12
 -22335341.05548 -17372193.90646  21211256.1414                   21211251.9064
 -39471060.29747 -30747612.52044  23247722.8444                   23247721.0744
 -34913880.47748 -27171704.56246  22171270.9694                   22171269.2344
 -13891658.82047 -10796696.64145  22366781.3754                   22366780.1174
 -32512723.59848 -25301983.67646  20273470.5704                   20273469.0824
 -14824787.06647 -11526400.70745  21974525.4614                   21974524.5044
 -19943591.66047 -15513528.95345  22781510.7344                   22781509.8094
   1967741.84447   1566619.78143  24634475.3984                   24634475.9494
  -7132664.79347  -5526335.70745  23349472.5234                   23349470.8914
 11  7 30  0 44  0.0000000  0  9G02G28G17G09G04G10G27G05G12
 -22415007.93048 -17434271.97346  21196096.1724                   21196092.0944
 -39419736.44547 -30707619.98444  23257489.2814                   23257487.8524
 -34908743.21148 -27167701.51246  22172248.8444                   22172246.6844
 -13891303.55947 -10796419.85245  22366848.9224                   22366847.6954
 -32508526.11348 -25298712.91446  20274269.5784                   20274267.5664
 -14931620.28147 -11609647.33645  21954196.1804                   21954194.5554
 -19942513.58247 -15512688.92245  22781716.1884                   22781715.1334
   1827643.18446   1457452.16043  24607815.0234                   24607816.2704
  -7260504.56247  -5625951.07445  23325145.6254                   23325143.7624
 11  7 30  0 44 30.0000000  0  9G02G28G17G09G04G10G27G05G12
 -22494306.86348 -17496063.33246  21181005.9694                   21181001.8054
 -39368112.22747 -30667393.37144  23267313.2344                   23267311.6334
 -34903511.29748 -27163624.73846  22173244.6094                   22173242.2544
 -13890403.67247 -10795718.68045  22367020.0314                   22367018.9574
 -32503893.06248 -25295102.75846  20275151.1334                   20275148.8284
 -15038073.93747 -11692598.21545  21933938.2814                   21933936.6484
 -19941054.23047 -15511551.81245  22781993.9144                   22781992.6134
   1687476.16046   1348231.24243  24581141.9454                   24581142.9964
  -7388213.39547  -5725464.41045  23300843.5944                   23300841.7544
 11  7 30  0 45  0.0000000  0  9G02G28G17G09G04G10G27G05G12
 -22573226.05148 -17557558.78146  21165987.9144                   21165984.4144
 -39316177.47747 -30626924.78944  23277196.0234                   23277194.3284
 -34898173.00048 -27159465.06246  22174260.3134                   22174258.1914
 -13888949.81247 -10794585.84045  22367296.7734                   22367295.4884
 -32498815.38748 -25291146.13346  20276117.2974                   20276114.9654
 -15144133.55947 -11775242.03545  21913756.0004                   21913755.0004
 -19939204.28947 -15510110.33245  22782345.7274                   22782344.8204
   1547254.49646   1238967.80143  24554458.2664                   24554459.5434
  -7515777.21547  -5824864.74245  23276568.9534                   23276567.1564
 11  7 30  0 45 30.0000000  0  9G02G28G17G09G04G10G27G05G12
 -22651767.36748 -17618759.78546  21151042.2114                   21151038.1024
 -39263935.66447 -30586216.94944  23287137.0314                   23287135.9064
 -34892729.38347 -27155223.30945  22175296.3134                   22175294.3554
 -13886945.93047 -10793024.40245  22367678.0164                   22367677.0904
 -32493296.91448 -25286846.03946  20277167.5234                   20277165.7464
 -15249797.87147 -11857577.83245  21893648.6094                   21893646.9924
 -19936967.44147 -15508367.37945  22782771.7344                   22782770.4454
   1406979.29346   1129662.59043  24527764.8364                   24527765.5704
  -7643195.62947  -5924151.78545  23252321.9924                   23252319.9414
 11  7 30  0 46  0.0000000  0  9G02G28G17G09G04G10G27G05G12
 -22729943.75848 -17679676.44946  21136165.3524                   21136161.6094
 -39211401.70747 -30545281.45344  23297134.8524                   23297133.2814
 -34887193.37547 -27150909.58245  22176349.4844                   22176347.4264
 -13884407.70347 -10791046.59045  22368161.2424                   22368160.0354
 -32487352.90648 -25282214.34846  20278298.4144                   20278296.7194
 -15355077.27347 -11939613.71145  21873614.2734                   21873613.3634
 -19934358.96547 -15506334.85545  22783267.5004                   22783266.9494
   1266639.64546   1020307.23043  24501059.2424                   24501060.0704
  -7770479.38347  -6023333.90645  23228100.5004                   23228099.2774
 11  7 30  0 46 30.0000000  0  9G02G28G17G09G04G10G27G05G12
 -22807743.94548 -17740299.95346  21121360.8594                   21121356.4574
 -39158565.15647 -30504110.19944  23307188.9694                   23307187.7074
 -34881553.34048 -27146514.77745  22177423.1024                   22177420.4454
 -13881326.09448 -10788645.36745  22368747.8674                   22368746.2504
 -32480974.17248 -25277243.91446  20279512.4924                   20279510.5314
 -15459957.37548 -12021338.43045  21853656.4064                   21853655.6644
 -19931369.59847 -15504005.51245  22783836.2344                   22783835.8984
   1126249.81346    910912.69143  24474343.0474                   24474344.8364
  -7897614.91847  -6122400.52345  23203907.3204                   23203905.2464
 11  7 30  0 47  0.0000000  0  9G02G28G17G09G04G10G27G05G12
 -22885167.24248 -17800629.78546  21106627.5474                   21106623.3204
 -39105427.15246 -30462704.05544  23317300.3594                   23317299.6134
 -34875808.12947 -27142038.02045  22178516.1724                   22178513.6254
 -13877703.02047 -10785822.22745  22369437.2504                   22369435.4454
 -32474162.41448 -25271936.06246  20280808.5084                   20280807.0314
 -15564434.22748 -12102748.92645  21833775.4224                   21833773.9964
 -19928000.88747 -15501380.58645  22784478.1024                   22784476.9024
    985813.12946    801481.65243  24447619.2344                   24447620.3954
  -8024599.51247  -6221349.52745  23179743.1094                   23179741.6994
 11  7 30  0 47 30.0000000  0  9G02G28G17G09G04G10G27G05G12
 -22962216.29348 -17860667.99246  21091965.7194                   21091961.4694
 -39051991.76646 -30421066.19944  23327469.0084                   23327468.5474
 -34869960.18447 -27137481.20745  22179628.7344                   22179626.9344
 -13873543.26647 -10782580.89545  22370228.7974                   22370227.7544
 -32466922.60948 -25266294.65246  20282186.5234                   20282184.7344
 -15668507.22347 -12183844.74245  21813970.6414                   21813969.6334
 -19924257.50447 -15498463.70744  22785189.6414                   22785189.4964
    845329.26646    692013.90644  24420886.3134                   24420887.1884
  -8151433.24647  -6320180.97745  23155607.5004                   23155605.5084
 11  7 30  0 48  0.0000000  0  9G02G28G17G09G04G10G27G05G12
 -23038890.18448 -17920413.87546  21077375.0234                   21077371.0514
 -38998259.83647 -30379197.25044  23337694.0784                   23337693.5124
 -34864007.98048 -27132843.16045  22180761.8284                   22180759.9144
 -13868848.45347 -10778922.65245  22371121.8524                   22371121.4494
 -32459255.71148 -25260320.46546  20283645.3674                   20283643.3914
 -15772172.71548 -12264623.02345  21794243.9064                   21794242.7544
 -19920140.76647 -15495255.90245  22785973.5634                   22785972.7624
    704801.40246    582511.85544  24394144.0634                   24394146.2504
  -8278113.02047  -6418892.47745  23131501.6174                   23131499.2344
 11  7 30  0 48 30.0000000  0  9G02G28G17G09G04G10G27G05G12
 -23115178.00848 -17979858.91046  21062858.1414                   21062854.1024
 -38944221.93447 -30337089.87944  23347977.1174                   23347975.8834
 -34857940.89848 -27128115.60245  22181916.4454                   22181914.1724
 -13863610.29347 -10774841.01245  22372118.8204                   22372118.1724
 -32451153.17248 -25254006.80546  20285186.9844                   20285185.3204
 -15875416.86748 -12345072.96945  21774597.0704                   21774596.1254
 -19915641.73847 -15491750.21145  22786829.8444                   22786828.9414
    564243.49247    472986.37144  24367397.1094                   24367398.3134
  -8404625.45747  -6517473.54745  23107426.6884                   23107424.8014
 11  7 30  0 49  0.0000000  0  9G02G28G17G09G04G10G27G05G12
 -23191083.07848 -18039005.70746  21048413.6484                   21048409.6724
 -38889882.81247 -30294747.77744  23358318.1724                   23358316.5274
 -34851761.62548 -27123300.61745  22183092.2424                   22183090.2034
 -13857834.50047 -10770340.44545  22373217.8364                   22373217.2464
 -32442620.67648 -25247358.10946  20286810.8914                   20286808.6024
 -15978239.92247 -12425194.79745  21755030.5314                   21755029.1764
 -19910766.07847 -15487951.03944  22787757.8444                   22787756.4454
    423655.10547    363437.14844  24340643.8834                   24340644.8484
  -8530971.54347  -6615925.00445  23083383.3834                   23083381.5234
 11  7 30  0 49 30.0000000  0  9G02G28G17G09G04G10G27G05G12
 -23266616.57448 -18097862.95746  21034040.1484                   21034036.2194
 -38835255.02747 -30252180.73844  23368713.2734                   23368712.1054
 -34845480.99248 -27118406.64145  22184287.5474                   22184285.6764
 -13851534.68747 -10765431.54345  22374416.7584                   22374415.6374
 -32433671.32048 -25240384.59046  20288513.8524                   20288512.0984
 -16080649.72747 -12504994.61345  21735542.4534                   21735541.4144
 -19905526.75047 -15483868.48445  22788754.6644                   22788754.0204
    283027.55947    253857.41044  24313883.3284                   24313884.5474
  -8657159.91047  -6714253.57445  23059370.9144                   23059368.6724
 11  7 30  0 50  0.0000000  0  9G02G28G17G09G04G10G27G05G12
 -23341771.22348 -18156425.01646  21019738.7034                   21019734.3554
 -38780333.24647 -30209384.60243  23379164.5004                   23379162.8484
 -34839091.31247 -27113427.69545  22185503.2034                   22185500.9804
 -13844706.42647 -10760110.85945  22375715.7504                   22375714.9414
 -32424300.44148 -25233082.60946  20290296.9384                   20290295.0434
 -16182636.59847 -12584464.87145  21716135.1414                   21716133.6024
 -19899919.08247 -15479498.91845  22789822.0944                   22789821.4844
    142370.57847    144254.74244  24287116.8914                   24287118.1954
  -8783181.19147  -6812451.94945  23035389.7734                   23035387.0554
 11  7 30  0 50 30.0000000  0  9G02G28G17G09G04G10G27G05G12
 -23416547.21148 -18214692.00446  21005509.1094                   21005505.3834
 -38725118.74647 -30166360.36743  23389671.1564                   23389670.5354
 -34832591.97747 -27108363.30545  22186740.2114                   22186738.4264
 -13837351.90647 -10754380.10245  22377115.9064                   22377114.5514
 -32414509.91448 -25225453.64146  20292159.8364                   20292158.2384
 -16284197.39147 -12663603.11345  21696808.4924                   21696806.8484
 -19893945.14147 -15474843.95345  22790958.6254                   22790957.8444
      1686.78947     34631.16444  24260345.8754                   24260346.7154
  -8909032.85547  -6910518.15245  23011440.9774                   23011438.6524
 11  7 30  0 51  0.0000000  0  9G02G28G17G09G04G10G27G05G12
 -23490947.55948 -18272666.29346  20991351.4454                   20991347.3984
 -38669616.18447 -30123111.68743  23400232.9534                   23400231.4694
 -34825985.56247 -27103215.47345  22187997.4454                   22187995.5044
 -13829476.57047 -10748243.51645  22378614.2814                   22378613.3594
 -32404305.17248 -25217501.90646  20294101.9304                   20294100.4024
 -16385331.68748 -12742409.04345  21677563.3754                   21677561.8204
 -19887610.19147 -15469907.66845  22792164.2344                   22792163.2814
   -139023.69146    -75013.19944  24233568.9064                   24233570.2464
  -9034715.44547  -7008452.61745  22987524.1174                   22987522.0314
 11  7 30  0 51 30.0000000  0  9G02G28G17G09G04G10G27G05G12
 -23564972.25048 -18330347.87146  20977264.7814                   20977260.6414
 -38613827.12546 -30079639.78143  23410849.5394                   23410848.2384
 -34819272.17647 -27097984.26245  22189274.6954                   22189273.2234
 -13821082.99647 -10741703.09845  22380211.9224                   22380210.4924
 -32393688.23448 -25209228.97746  20296122.3754                   20296120.6054
 -16486036.96948 -12820880.66445  21658399.8834                   21658398.1994
 -19880916.30147 -15464691.71144  22793438.0474                   22793437.7274
   -279758.70746   -184676.72344  24206787.8914                   24206788.6724
  -9160226.60247  -7106253.48045  22963639.9064                   22963638.0234
 11  7 30  0 52  0.0000000  0  9G02G28G17G09G04G10G27G05G12
 -23638623.89848 -18387738.74646  20963249.4534                   20963245.6954
 -38557755.99647 -30035948.04744  23421519.4844                   23421518.6524
 -34812453.70348 -27092671.18045  22190572.4304                   22190570.4104
 -13812176.43047 -10734762.94145  22381906.4924                   22381905.1884
 -32382664.04748 -25200638.70346  20298219.9614                   20298218.5084
 -16586312.88747 -12899017.70745  21639317.7894                   21639316.1604
 -19873868.28147 -15459199.78545  22794778.9144                   22794778.9104
   -420517.87146   -294359.01244  24180002.5164                   24180003.3674
  -9285566.66447  -7203921.02345  22939788.8054                   22939786.3244
 11  7 30  0 52 30.0000000  0  9G02G28G17G09G04G10G27G05G12
 -23711901.04348 -18444837.80946  20949305.1724                   20949301.3834
 -38501402.23846 -29992036.10244  23432243.3054                   23432242.4064
 -34805528.10947 -27087274.61746  22191890.5634                   22191888.7424
 -13802757.70347 -10727423.71145  22383699.1484                   22383697.9964
 -32371233.11348 -25191731.50046  20300395.5394                   20300393.5634
 -16686154.62548 -12976816.44145  21620318.4774                   21620316.8484
 -19866466.47747 -15453432.18445  22796188.3204                   22796187.6374
   -561296.57846   -404056.55544  24153212.6334                   24153213.4534
  -9410731.24647  -7301451.83245  22915970.9224                   22915968.7774
 11  7 30  0 53  0.0000000  0  9G02G28G17G09G04G10G27G05G12
 -23784800.22348 -18501642.34846  20935432.8834                   20935429.0824
 -38444764.32846 -29947902.76244  23443020.9774                   23443020.9844
 -34798491.36748 -27081791.45745  22193229.5394                   22193227.6724
 -13792826.26247 -10719684.97345  22385589.5634                   22385587.7894
 -32359394.48048 -25182506.59446  20302648.3054                   20302646.7194
 -16785555.98047 -13054272.01645  21601402.8364                   21601401.6334
 -19858709.89547 -15447388.14845  22797663.9694                   22797663.5944
   -702089.12146   -513764.91844  24126420.4064                   24126421.3164
  -9535714.75447  -7398841.54345  22892187.2194                   22892185.2734
 11  7 30  0 53 30.0000000  0  9G02G28G17G09G04G10G27G05G12
 -23857322.58648 -18558153.26646  20921632.4774                   20921628.6374
 -38387845.01246 -29903550.12144  23453852.2734                   23453852.4844
 -34791344.48848 -27076222.46545  22194589.5084                   22194587.4494
 -13782385.50047 -10711549.35545  22387575.7114                   22387575.3754
 -32347151.43448 -25172966.56646  20304978.1094                   20304975.9534
 -16884514.87947 -13131382.80945  21582571.9534                   21582570.5634
 -19850601.67647 -15441070.11745  22799207.0634                   22799205.9184
   -842893.79746   -623482.68744  24099626.6644                   24099627.0434
  -9660515.64147  -7496088.96545  22868438.3364                   22868436.3284
 11  7 30  0 54  0.0000000  0  9G02G28G17G09G04G10G27G05G12
 -23929467.33648 -18614369.94546  20907903.6334                   20907899.7344
 -38330644.70746 -29858978.56244  23464737.7194                   23464737.0314
 -34784085.94148 -27070566.46145  22195971.0164                   22195968.2384
 -13771437.16447 -10703018.23445  22389659.9614                   22389658.6954
 -32334505.13348 -25163112.32046  20307384.6644                   20307382.5744
 -16983027.55947 -13208145.91445  21563825.6954                   21563823.7424
 -19842143.22347 -15434479.14845  22800816.6094                   22800815.8874
   -983706.82446   -733206.98843  24072830.3914                   24072830.7464
  -9785130.63347  -7593191.54345  22844724.8984                   22844722.6214
 11  7 30  0 54 30.0000000  0  9G02G28G17G09G04G10G27G05G12
 -24001237.27748 -18670294.56246  20894246.1174                   20894242.6174
 -38273167.74247 -29814191.37943  23475675.6884                   23475674.1174
 -34776717.23048 -27064824.61745  22197372.9694                   22197371.0554
 -13759986.36747 -10694095.57045  22391838.1414                   22391837.2894
 -32321460.37148 -25152947.57446  20309867.0474                   20309865.0594
 -17081093.45747 -13284560.86745  21545164.3444                   21545163.0474
 -19833339.25847 -15427618.96545  22802492.2274                   22802491.0984
  -1124527.57046   -842937.28944  24046033.1254                   24046034.0234
  -9909559.77047  -7690149.28945  22821046.4454                   22821044.6564
 11  7 30  0 55  0.0000000  0  9G02G28G17G09G04G10G27G05G12
 -24072630.00848 -18725925.24646  20880660.4534                   20880656.6294
 -38215413.64546 -29769188.27043  23486665.5944                   23486664.8054
 -34769236.81247 -27058995.73045  22198796.3444                   22198794.0824
 -13748033.98047 -10684782.05945  22394112.8594                   22394112.2034
 -32308017.29748 -25142472.45746  20312425.3754                   20312423.3594
 -17178707.74647 -13360623.91845  21526588.5784                   21526587.5784
 -19824189.89847 -15420489.64845  22804232.6024                   22804232.8634
  -1265351.58247   -952670.14543  24019235.8444                   24019235.3594
 -10033798.21547  -7786958.43745  22797404.6564                   22797402.5434
 11  7 30  0 55 30.0000000  0  9G02G28G17G09G04G10G27G05G12
 -24143650.19548 -18781265.63746  20867145.8914                   20867141.9384
 -38157388.14546 -29723973.66043  23497706.8594                   23497706.8554
 -34761647.95348 -27053082.35245  22200240.5394                   22200238.1684
 -13735586.91447 -10675083.08645  22396481.5004                   22396480.4614
 -32294182.18748 -25131691.86346  20315057.7504                   20315056.0514
 -17275871.61347 -13436335.98845  21508099.2274                   21508097.7704
 -19814701.78547 -15413096.35945  22806038.8594                   22806037.7074
  -1406180.36747  -1062406.71944  23992436.2504                   23992436.4804
 -10157847.95747  -7883620.55945  22773799.5394                   22773797.0124
 11  7 30  0 56  0.0000000  0  9G02G28G17G09G04G10G27G05G12
 -24214296.73048 -18836314.86746  20853701.9224                   20853698.5164
 -38099091.58246 -29678547.83243  23508800.7734                   23508799.6764
 -34753948.93047 -27047083.13745  22201705.3054                   22201703.2734
 -13722646.38347 -10664999.59845  22398943.5634                   22398942.4654
 -32279956.35248 -25120606.80146  20317764.7664                   20317763.3914
 -17372580.89847 -13511693.84445  21489695.8054                   21489694.7074
 -19804875.81647 -15405439.79745  22807908.3984                   22807907.7854
  -1547009.80947  -1172143.80944  23965636.7894                   23965637.7274
 -10281705.19547  -7980132.66445  22750229.7584                   22750227.5704
 11  7 30  0 56 30.0000000  0  9G02G28G17G09G04G10G27G05G12
 -24284567.23048 -18891071.09046  20840330.1724                   20840326.8834
 -38040523.00846 -29632910.02043  23519945.8754                   23519944.5434
 -34746136.62548 -27040995.64845  22203192.4534                   22203190.1524
 -13709212.51247 -10654531.67645  22401500.3284                   22401499.1914
 -32265339.38748 -25109216.96146  20320546.6644                   20320544.6334
 -17468830.27047 -13586693.31245  21471380.2344                   21471378.9694
 -19794711.69547 -15397519.75445  22809842.9844                   22809842.2194
  -1687834.38347  -1281877.10544  23938839.1644                   23938839.0594
 -10405364.60247  -8076490.60945  22726698.2584                   22726696.4344
 11  7 30  0 57  0.0000000  0  9G02G28G17G09G04G10G27G05G12
 -24354456.57048 -18945530.28946  20827030.7114                   20827026.9574
 -37981679.00846 -29587057.59043  23531144.0554                   23531142.5514
 -34738205.59047 -27034815.62945  22204701.5394                   22204699.5554
 -13695282.87547 -10643677.46145  22404151.0784                   22404150.2274
 -32250328.18448 -25097519.91846  20323403.2584                   20323401.0634
 -17564611.57847 -13661328.06246  21453153.7664                   21453152.0514
 -19784206.54347 -15389333.98045  22811841.6564                   22811841.5984
  -1828646.37947  -1391600.60544  23912043.2344                   23912043.6684
 -10528818.93747  -8172688.77745  22703205.8594                   22703203.5744
 11  7 30  0 57 30.0000000  0  9G02G28G17G09G04G10G27G05G12
 -24423974.95748 -18999700.44546  20813802.0394                   20813797.8594
 -37922571.33646 -29540999.75043  23542391.9694                   23542390.8674
 -34730165.06247 -27028550.30145  22206231.2114                   22206229.5634
 -13680870.25847 -10632446.88345  22406893.7664                   22406892.7544
 -32234935.18748 -25085525.37946  20326332.1724                   20326330.5084
 -17659932.14148 -13735603.79345  21435014.8444                   21435013.1484
 -19773372.57047 -15380891.98045  22813903.4144                   22813902.9924
  -1969452.69147  -1501319.67644  23885248.2974                   23885248.7344
 -10652075.52047  -8268732.84045  22679750.8364                   22679748.6764
 11  7 30  0 58  0.0000000  0  9G02G28G17G09G04G10G27G05G12
 -24493120.34448 -19053579.95746  20800644.0704                   20800640.0234
 -37863199.62147 -29494736.12543  23553690.2814                   23553689.0594
 -34722012.67248 -27022197.80145  22207783.2974                   22207780.7704
 -13665975.21147 -10620840.40245  22409728.3674                   22409727.3834
 -32219160.49248 -25073233.40646  20329334.0554                   20329332.2074
 -17754786.85547 -13809516.52745  21416964.5784                   21416962.9264
 -19762210.10947 -15372194.01245  22816027.4534                   22816027.5514
  -2110248.39547  -1611030.47744  23858455.9384                   23858456.8244
 -10775129.67247  -8364619.15645  22656333.5864                   22656332.1024
 11  7 30  0 58 30.0000000  0  9G02G28G17G09G04G10G27G05G12
 -24561890.09048 -19107166.75846  20787557.3754                   20787553.8094
 -37803562.55547 -29448265.75043  23565038.4614                   23565037.7734
 -34713744.71148 -27015755.25045  22209356.3284                   22209354.3484
 -13650597.53947 -10608857.84045  22412654.5634                   22412653.6334
 -32203003.41048 -25060643.46946  20332408.4924                   20332406.8134
 -17849170.40247 -13883062.10245  21399003.9844                   21399002.3834
 -19750718.60947 -15363239.66045  22818214.3914                   22818214.1884
  -2251028.00047  -1720728.72744  23831666.2114                   23831666.9304
 -10897976.28547  -8460343.77045  22632956.8674                   22632954.7774
 11  7 30  0 59  0.0000000  0  9G02G28G17G09G04G10G27G05G12
 -24630287.19948 -19160463.17646  20774541.8834                   20774538.1294
 -37743664.61346 -29401592.10544  23576436.6174                   23576436.1764
 -34705364.09848 -27009224.92645  22210951.2504                   22210949.5044
 -13634742.78947 -10596503.53945  22415671.6024                   22415670.7034
 -32186469.24648 -25047759.71546  20335554.8284                   20335553.3484
 -17943082.48848 -13956240.31245  21381133.2034                   21381131.0904
 -19738903.09047 -15354032.81644  22820462.4144                   22820462.3954
  -2391791.47747  -1830414.43044  23804879.4064                   23804880.0594
 -11020615.57047  -8555906.82845  22609619.4534                   22609617.4804
 11  7 30  0 59 30.0000000  0  9G02G28G17G09G04G10G27G05G12
 -24698306.03548 -19213464.83646  20761598.4924                   20761594.3914
 -37683501.55147 -29354711.82443  23587885.5784                   23587884.8484
 -34696864.37548 -27002601.79345  22212568.0944                   22212566.5314
 -13618408.20347 -10583775.32045  22418779.8834                   22418779.2194
 -32169554.23448 -25034579.18046  20338773.7114                   20338771.9304
 -18036514.59848 -14029044.52045  21363353.1414                   21363352.1214
 -19726759.98847 -15344570.72344  22822773.4454                   22822772.8674
  -2532530.22747  -1940080.85244  23778098.3134                   23778098.1764
 -11143038.84847  -8651301.55545  22586323.1024                   22586321.3134
 11  7 30  1  0  0.0000000  0  9G02G28G17G09G04G10G27G05G12
 -24765949.43048 -19266173.96546  20748726.5084                   20748722.3244
 -37623077.98446 -29307628.62144  23599384.5084                   23599383.0824
 -34688247.43047 -26995887.30145  22214208.3054                   22214206.6174
 -13601599.30547 -10570677.52045  22421978.4454                   22421977.6374
 -32152263.50048 -25021105.88746  20342064.1484                   20342062.5634
 -18129466.32847 -14101474.39845  21345664.7974                   21345663.4654
 -19714294.37947 -15334857.30544  22825145.7664                   22825145.0084
  -2673243.79747  -2049727.66044  23751321.2734                   23751321.1884
 -11265246.12147  -8746527.96945  22563067.8284                   22563065.8674
 11  7 30  1  0 30.0000000  0  9G02G28G17G09G04G10G27G05G12
 -24833220.54748 -19318593.01646  20735925.1254                   20735921.0354
 -37562398.14146 -29260345.70343  23610930.3984                   23610930.3164
 -34679515.51647 -26989083.24645  22215869.8984                   22215868.0594
 -13584321.41847 -10557214.27045  22425266.2344                   22425266.2734
 -32134601.92648 -25007343.62546  20345425.3204                   20345423.1884
 -18221937.61348 -14173529.91846  21328068.5084                   21328066.4654
 -19701511.30147 -15324896.52044  22827578.7034                   22827578.0164
  -2813932.29347  -2159354.96144  23724548.2894                   23724549.0394
 -11387237.74247  -8841586.34045  22539853.8984                   22539851.9104
 11  7 30  1  1  0.0000000  0  9G02G28G17G09G04G10G27G05G12
 -24900116.14548 -19370719.44146  20723195.0704                   20723191.4104
 -37501460.38346 -29212861.84843  23622527.2344                   23622526.3244
 -34670664.88347 -26982186.66045  22217554.2734                   22217551.8014
 -13566574.06247 -10543385.20745  22428643.8834                   22428643.2464
 -32116568.62948 -24993291.71546  20348856.7034                   20348854.7894
 -18313922.80147 -14245206.66045  21310564.1484                   21310562.5204
 -19688409.89547 -15314687.68744  22830071.3674                   22830071.0984
  -2954589.68047  -2268957.98444  23697782.1414                   23697783.1454
 -11509008.07447  -8936472.27745  22516681.7114                   22516679.5864
 11  7 30  1  1 30.0000000  0  9G02G28G17G09G04G10G27G05G12
 -24966640.64148 -19422556.69946  20710536.1094                   20710531.9144
 -37440270.65646 -29165181.60543  23634170.8674                   23634170.6174
 -34661698.96147 -26975200.24645  22219260.0314                   22219258.3404
 -13548364.27047 -10529195.80945  22432109.1174                   22432108.1294
 -32098169.82048 -24978954.98446  20352357.5784                   20352356.1054
 -18405422.96548 -14316505.46545  21293152.2734                   21293150.7034
 -19674996.58647 -15304235.80144  22832624.2114                   22832623.3524
  -3095217.00047  -2378537.59444  23671022.0634                   23671022.7774
 -11630558.53947  -9031186.90245  22493551.0704                   22493549.0474
 11  7 30  1  2  0.0000000  0  9G02G28G17G09G04G10G27G05G12
 -25032790.47348 -19474102.00846  20697948.0004                   20697944.1604
 -37378826.80146 -29117303.38343  23645863.0084                   23645862.8634
 -34652613.50848 -26968120.70345  22220989.1484                   22220987.4344
 -13529691.08247 -10514645.30545  22435662.5784                   22435661.7234
 -32079403.88348 -24964332.19546  20355928.6644                   20355926.6684
 -18496431.34848 -14387421.07046  21275834.1954                   21275832.0124
 -19661269.92247 -15293539.76644  22835235.6254                   22835236.0944
  -3235807.39547  -2488088.46944  23644268.1094                   23644269.2814
 -11751882.61347  -9125725.11745  22470463.7894                   22470461.9414
 11  7 30  1  2 30.0000000  0  9G02G28G17G09G04G10G27G05G12
 -25098570.40648 -19525359.07446  20685430.4774                   20685426.5434
 -37317135.40246 -29069232.19943  23657603.4614                   23657602.1914
 -34643412.39848 -26960951.03145  22222740.4694                   22222738.5514
 -13510561.79747 -10499739.41445  22439302.6414                   22439302.2304
 -32060277.79748 -24949428.77046  20359568.4844                   20359566.4384
 -18586950.20748 -14457955.21946  21258608.4064                   21258606.9344
 -19647236.87147 -15282604.97744  22837906.5944                   22837906.1564
  -3376362.59047  -2597611.90644  23617521.5864                   23617521.6724
 -11872982.33647  -9220088.50045  22447419.8204                   22447417.4494
 11  7 30  1  3  0.0000000  0  9G02G28G17G09G04G10G27G05G12
 -23588549.84848 -18348719.66446  20972777.7734                   20972774.1724
 -35679771.30547 -27793364.09843  23969183.1644                   23969182.2194
 -33058666.80548 -25726084.35545  22524307.5004                   22524305.6054
 -11915551.26247  -9256874.12145  22742823.6644                   22742822.6254
 -30465365.60548 -23706640.05946  20663069.9454                   20663068.1804
 -17101544.96148 -13300496.55146  21541271.8674                   21541270.2584
 -18057471.51647 -14043826.83644  23140428.5634                   23140428.2234
  -1941446.28547  -1479495.21144  23890577.4844                   23890576.8554
 -10418422.33647  -8086665.11345  22724213.2034                   22724210.8524
 11  7 30  1  3 30.0000000  0  9G02G28G17G09G04G10G27G05G12
 -23653584.47348 -18399395.98846  20960402.2664                   20960398.0744
 -35617583.28546 -27744905.97743  23981017.5004                   23981016.2544
 -33049226.84847 -25718728.57045  22526103.8204                   22526101.9144
 -11895512.28147  -9241259.38345  22746636.5314                   22746635.7664
 -30445519.52348 -23691175.59846  20666847.0234                   20666844.8014
 -17191070.29748 -13370256.52346  21524235.8834                   21524234.5554
 -18042826.50447 -14032415.18044  23143215.5314                   23143215.0784
  -2081916.00447  -1588952.05144  23863846.7894                   23863846.6094
 -10539059.35547  -8180667.96545  22701256.4614                   22701254.3164
 11  7 30  1  4  0.0000000  0  9G02G28G17G09G04G10G27G05G12
 -23718251.82848 -18449786.12146  20948096.0634                   20948092.2424
 -35555154.71946 -27696260.39843  23992896.5314                   23992895.9924
 -33039671.77348 -25711283.08245  22527922.0554                   22527920.1524
 -11875027.80547  -9225297.50045  22750535.0314                   22750533.9884
 -30425322.15648 -23675437.40246  20670690.1804                   20670688.1214
 -17280099.88748 -13439630.19546  21507293.8524                   21507292.9104
 -18027884.10247 -14020771.81244  23146058.9224                   23146058.4494
  -2222343.96147  -1698376.33644  23837123.4534                   23837123.8284
 -10659466.21547  -8274491.46545  22678344.2584                   22678341.9414
 11  7 30  1  4 30.0000000  0  9G02G28G17G09G04G10G27G05G12
 -23782541.00848 -18499881.56246  20935862.3054                   20935858.3484
 -35492475.86747 -27647419.82843  24004824.7034                   24004824.0744
 -33029989.29347 -25703738.31245  22529764.3914                   22529762.6524
 -11854089.30147  -9208981.82845  22754519.2114                   22754518.4694
 -30404763.91848 -23659418.01246  20674602.3754                   20674600.6564
 -17368619.41848 -13508606.43446  21490449.4844                   21490447.8984
 -18012635.13747 -14008889.55944  23148961.1094                   23148960.9344
  -2362715.79747  -1807756.91044  23810411.9454                   23810412.3284
 -10779628.77747  -8368124.59845  22655477.6414                   22655475.7584
 11  7 30  1  5  0.0000000  0  9G02G28G17G09G04G10G27G05G12
 -23846457.94948 -18549686.94946  20923699.7344                   20923695.8834
 -35429554.58646 -27598390.31643  24016798.4614                   24016797.5124
 -33020184.98448 -25696098.59845  22531630.6024                   22531628.1724
 -11832705.87147  -9192319.46545  22758588.2344                   22758587.3634
 -30383853.38348 -23643124.09846  20678581.2664                   20678579.8874
 -17456632.39148 -13577187.93746  21473701.1644                   21473699.7584
 -17997088.35247 -13996775.21944  23151920.0234                   23151919.0664
  -2503034.41047  -1917096.00844  23783710.1174                   23783710.2664
 -10899550.81247  -8461570.30145  22632657.1564                   22632655.4804
 11  7 30  1  5 30.0000000  0  9G02G28G17G09G04G10G27G05G12
 -23910004.23048 -18599203.50846  20911607.2194                   20911603.0904
 -35366393.23046 -27549173.77043  24028817.1334                   24028816.7704
 -33010259.17648 -25688364.21145  22533518.9614                   22533517.0824
 -11810881.28547  -9175313.34845  22762741.3284                   22762741.1484
 -30362593.61348 -23626558.05946  20682627.2034                   20682625.0474
 -17544137.12548 -13645373.40646  21457049.8984                   21457048.3524
 -17981247.02347 -13984431.37144  23154934.4454                   23154933.4224
  -2643297.66047  -2026391.95744  23757018.4304                   23757018.7894
 -11019230.27747  -8554826.99645  22609882.9144                   22609880.7544
 11  7 30  1  6  0.0000000  0  9G02G28G17G09G04G10G27G05G12
 -23973179.30148 -18648430.82046  20899585.0944                   20899581.2074
 -35302992.87146 -27499770.96143  24040881.4304                   24040880.8874
 -33000210.64848 -25680534.22345  22535431.5004                   22535429.7424
 -11788617.42247  -9157964.94145  22766978.3284                   22766977.2274
 -30340986.14148 -23609721.07446  20686738.6644                   20686737.0904
 -17631130.26648 -13713160.24646  21440495.3674                   21440493.2704
 -17965112.69547 -13971859.21144  23158004.5634                   23158003.7304
  -2783501.96947  -2135641.97744  23730338.7344                   23730339.1914
 -11138663.73447  -8647892.01645  22587155.6804                   22587153.6054
 11  7 30  1  6 30.0000000  0  9G02G28G17G09G04G10G27G05G12
 -24035983.95748 -18697369.48846  20887633.8284                   20887630.1174
 -35239356.12146 -27450183.98043  24052990.9924                   24052990.7544
 -32990039.25448 -25672608.47745  22537366.9304                   22537364.9384
 -11765918.03947  -9140277.16444  22771297.7974                   22771297.0594
 -30319033.71548 -23592615.30146  20690916.1724                   20690914.5634
 -17717609.91048 -13780546.93746  21424038.7114                   21424036.8674
 -17948688.43447 -13959061.13744  23161130.3834                   23161129.9614
  -2923644.94947  -2244844.19144  23703670.1954                   23703670.3834
 -11257849.08247  -8740763.70745  22564475.4454                   22564472.5944
 11  7 30  1  7  0.0000000  0  9G02G28G17G09G04G10G27G05G12
 -24098420.23448 -18746021.11746  20875752.4304                   20875748.0744
 -35175486.31646 -27400415.34043  24065146.0084                   24065145.2274
 -32979745.90247 -25664587.68445  22539325.5314                   22539323.3134
 -11742787.92247  -9122253.76244  22775699.0474                   22775698.2704
 -30296740.22348 -23575243.77346  20695158.5314                   20695156.3094
 -17803574.93748 -13847532.64146  21407680.0164                   21407678.6684
 -17931978.28947 -13946040.29744  23164310.2584                   23164310.0744
  -3063725.15247  -2353997.50044  23677014.1414                   23677014.0984
 -11376785.35247  -8833441.30545  22541842.2034                   22541840.0234
 11  7 30  1  7 30.0000000  0  9G02G28G17G09G04G10G27G05G12
 -24160488.96948 -18794386.35246  20863941.3754                   20863937.4614
 -35111385.60546 -27350466.78143  24077344.3204                   24077342.8914
 -32969330.53548 -25656471.84045  22541307.7274                   22541305.2934
 -11719230.32447  -9103897.23444  22780182.4924                   22780181.0784
 -30274108.51248 -23557608.68046  20699465.3754                   20699463.4734
 -17889023.03548 -13914115.53946  21391419.9304                   21391418.0864
 -17914984.88747 -13932798.75044  23167543.4384                   23167543.1094
  -3203740.03547  -2463099.91044  23650369.8524                   23650369.7544
 -11495470.21147  -8925922.98045  22519257.1254                   22519255.6024
 11  7 30  1  8  0.0000000  0  9G02G28G17G09G04G10G27G05G12
 -24222188.34448 -18842463.76646  20852200.2344                   20852196.6254
 -35047053.84846 -27300338.20743  24089586.3674                   24089585.6134
 -32958790.68047 -25648258.97745  22543313.1334                   22543311.6094
 -11695246.35947  -9085208.49644  22784745.6024                   22784745.5944
 -30251138.82448 -23539710.23446  20703836.4384                   20703834.8284
 -17973949.81648 -13980292.21946  21375258.8284                   21375257.1374
 -17897708.93447 -13919337.02344  23170831.0944                   23170831.4304
  -3343684.60247  -2572147.52744  23623738.9614                   23623738.8834
 -11613899.29747  -9018205.36345  22496721.2424                   22496719.0274
 11  7 30  1  8 30.0000000  0  9G02G28G17G09G04G10G27G05G12
 -24283526.07048 -18890259.38746  20840528.0554                   20840523.9884
 -34982499.73446 -27250036.32843  24101869.7584                   24101869.6914
 -32948132.90647 -25639954.24245  22545341.0634                   22545339.6914
 -11670845.78147  -9066195.11744  22789389.2974                   22789388.6254
 -30227840.42648 -23521555.64546  20708269.5784                   20708267.8324
 -18058359.89148 -14046066.26246  21359196.0084                   21359194.3014
 -17880159.81247 -13905662.44144  23174171.2664                   23174170.6844
  -3483563.30547  -2681143.84844  23597121.1254                   23597120.9964
 -11732076.69147  -9110291.62145  22474232.7424                   22474230.7814
 11  7 30  1  9  0.0000000  0  9G02G28G17G09G04G10G27G05G12
 -24344494.29748 -18937767.09046  20828926.4774                   20828922.4024
 -34917717.28946 -27199556.54743  24114198.3054                   24114197.4454
 -32937348.39847 -25631550.74245  22547393.6644                   22547391.5594
 -11646023.77347  -9046853.34444  22794112.9774                   22794112.1254
 -30204207.46548 -23503140.35546  20712766.9454                   20712764.8204
 -18142242.71148 -14111429.47346  21343233.3364                   21343231.9884
 -17862331.91447 -13891770.64144  23177563.3914                   23177563.4884
  -3623364.82847  -2790080.02044  23570518.0394                   23570517.5944
 -11849992.10547  -9202173.75045  22451794.1564                   22451791.4534
 11  7 30  1  9 30.0000000  0  9G02G28G17G09G04G10G27G05G12
 -24405098.95748 -18984991.48846  20817393.5004                   20817389.7304
 -34852713.79746 -27148904.50843  24126566.8054                   24126567.4064
 -32926441.94547 -25623052.22745  22549468.8914                   22549467.1414
 -11620789.02347  -9027189.96144  22798914.6484                   22798914.4264
 -30180247.73448 -23484470.46146  20717326.3754                   20717325.0204
 -18225601.18048 -14176384.08646  21327371.1414                   21327368.8834
 -17844233.33647 -13877667.89844  23181007.3444                   23181007.1884
  -3763091.85247  -2898958.13344  23543929.0234                   23543928.8244
 -11967648.58247  -9293854.11745  22429404.7894                   22429402.5984
 11  7 30  1 10  0.0000000  0  9G02G28G17G09G04G10G27G05G12
 -24465337.01248 -19031930.23046  20805930.5314                   20805926.6804
 -34787487.90246 -27098079.17643  24138979.4534                   24138979.0004
 -32915409.83647 -25614455.80545  22551567.6174                   22551566.6604
 -11595140.89147  -9007204.44544  22803795.1414                   22803794.9224
 -30155960.07848 -23465545.02046  20721948.2584                   20721946.5234
 -18308429.45748 -14240925.56646  21311609.1414                   21311607.4574
 -17825863.14147 -13863353.52044  23184503.3524                   23184503.0314
  -3902738.00047  -3007773.25044  23517354.3984                   23517354.2544
 -12085039.80148  -9385327.77745  22407066.1804                   22407063.7934
 11  7 30  1 10 30.0000000  0  9G02G28G17G09G04G10G27G05G12
 -24525201.22748 -19078577.65646  20794538.7194                   20794534.6604
 -34722033.42646 -27047075.75443  24151435.8834                   24151434.7464
 -32904243.63747 -25605754.90645  22553693.2194                   22553691.2974
 -11569074.75846  -8986893.23044  22808755.4144                   22808755.1564
 -30131339.30548 -23446360.01246  20726633.2664                   20726631.6954
 -18390717.50848 -14305046.09846  21295950.1724                   21295948.4694
 -17807216.14847 -13848823.46144  23188051.9064                   23188051.5984
  -4042292.68047  -3116517.09444  23490798.3054                   23490797.8054
 -12202155.47747  -9476586.73045  22384779.8834                   22384777.3404
 11  7 30  1 11  0.0000000  0  9G02G28G17G09G04G10G27G05G12
 -24584699.67648 -19124940.08246  20783216.6954                   20783212.6374
 -34656360.00446 -26995901.69943  24163932.3204                   24163931.1764
 -32892950.46547 -25596955.04745  22555842.7034                   22555840.2774
 -11542601.60247  -8966264.85244  22813794.1024                   22813793.1214
 -30106395.25448 -23426923.11346  20731380.2034                   20731378.2384
 -18472470.66448 -14368749.82846  21280392.9694                   21280391.3834
 -17788302.49647 -13834085.62544  23191650.8204                   23191650.6054
  -4181760.47747  -3225193.23844  23464258.5944                   23464257.7974
 -12319000.37947  -9567634.67645  22362544.8134                   22362542.7304
 11  7 30  1 11 30.0000000  0  9G02G28G17G09G04G10G27G05G12
 -24643827.76648 -19171013.90246  20771964.5394                   20771961.0204
 -34590464.47746 -26944554.56643  24176471.7664                   24176471.7424
 -32881524.59047 -25588051.79745  22558016.6024                   22558014.8364
 -11515719.30947  -8945317.64544  22818909.0634                   22818908.5274
 -30081125.10948 -23407232.10246  20736188.9924                   20736186.6914
 -18553681.35948 -14432030.85946  21264939.0704                   21264937.4264
 -17769119.62947 -13819138.00844  23195301.0234                   23195300.8984
  -4321133.22347  -3333795.30544  23437736.7114                   23437735.7424
 -12435567.07047  -9658465.85245  22340363.0634                   22340360.7384
 11  7 30  1 12  0.0000000  0  9G02G28G17G09G04G10G27G05G12
 -24702595.67248 -19216807.05147  20760781.7664                   20760777.7344
 -34524358.31646 -26893043.28943  24189051.2814                   24189051.5664
 -32869975.06647 -25579052.19545  22560214.7584                   22560212.4304
 -11488440.42647  -8924061.41444  22824100.4384                   22824100.2304
 -30055540.76648 -23387296.26246  20741057.2584                   20741055.3324
 -18634356.90248 -14494894.89546  21249587.0944                   21249585.4804
 -17749679.68447 -13803990.10244  23199000.7194                   23199000.7704
  -4460417.44147  -3442328.39844  23411231.3834                   23411230.9414
 -12551862.36747  -9749085.53146  22318232.5554                   22318230.3484
 11  7 30  1 12 30.0000000  0  9G02G28G17G09G04G10G27G05G12
 -24761002.57048 -19262318.91046  20749667.5554                   20749663.2854
 -34458042.31646 -26841368.54343  24201671.3364                   24201671.2934
 -32858300.09447 -25569954.82845  22562435.9224                   22562434.1724
 -11460767.00047  -8902497.75444  22829366.3754                   22829366.1764
 -30029643.31648 -23367116.45746  20745985.5314                   20745984.0744
 -18714493.44948 -14557338.92646  21234337.8594                   21234335.9844
 -17729983.97747 -13788642.86744  23202748.1804                   23202748.0984
  -4599609.23447  -3550789.48044  23384744.4224                   23384743.7934
 -12667882.52347  -9839490.83245  22296154.7274                   22296152.3324
 11  7 30  1 13  0.0000000  0  9G02G28G17G09G04G10G27G05G12
 -24819044.19948 -19307546.14846  20738622.3444                   20738617.8834
 -34391513.32446 -26789527.80543  24214331.3444                   24214330.8554
 -32846494.26647 -25560755.50845  22564682.8754                   22564680.6334
 -11432697.24247  -8880625.26244  22834707.3834                   22834707.6914
 -30003429.88348 -23346690.42246  20750973.8984                   20750972.0984
 -18794083.81248 -14619357.36346  21219192.5554                   21219190.0394
 -17710030.17247 -13773094.48844  23206545.6804                   23206545.7734
  -4738700.36747  -3659172.12144  23358276.2584                   23358275.8094
 -12783619.77048  -9929675.68745  22274130.7194                   22274128.1254
 11  7 30  1 13 30.0000000  0  9G02G28G17G09G04G10G27G05G12
 -24876720.72748 -19352488.87946  20727646.8204                   20727642.7194
 -34324773.49246 -26737522.75843  24227031.1024                   24227031.1684
 -32834557.15647 -25551453.89545  22566954.3674                   22566952.2894
 -11404234.52047  -8858446.57444  22840124.4064                   22840123.4964
 -29976903.35548 -23326020.41446  20756021.7034                   20756020.0744
 -18873125.98448 -14680948.65646  21204151.1414                   21204149.2464
 -17689821.08247 -13757347.21544  23210391.6254                   23210392.0314
  -4877688.44147  -3767474.43445  23331827.0314                   23331827.3444
 -12899071.98047 -10019638.43745  22252160.7034                   22252158.5904
 11  7 30  1 14  0.0000000  0  9G02G28G17G09G04G10G27G05G12
 -24934034.50848 -19397148.95746  20716740.5084                   20716736.4654
 -34257826.07046 -26685355.97743  24239771.0474                   24239770.5314
 -32822489.52047 -25542050.56245  22569250.4454                   22569248.6954
 -11375383.50047  -8835965.30145  22845614.7114                   22845613.8754
 -29950067.39548 -23305109.29746  20761128.2974                   20761126.4694
 -18951619.64148 -14742112.52346  21189214.3524                   21189212.2894
 -17669360.62947 -13741404.07444  23214285.4614                   23214285.1374
  -5016571.79347  -3875695.14845  23305398.9064                   23305398.7504
 -13014238.12947 -10109378.27745  22230245.5234                   22230242.8874
 11  7 30  1 14 30.0000000  0  9G02G28G17G09G04G10G27G05G12
 -24990986.96548 -19441527.47746  20705902.8524                   20705898.5044
 -34190674.14846 -26633029.80542  24252549.2894                   24252549.3954
 -32810291.69547 -25532545.78945  22571572.1174                   22571570.5044
 -11346148.20347  -8813184.60944  22851177.6094                   22851177.6804
 -29922925.11348 -23283959.47746  20766293.5394                   20766291.8914
 -19029562.98448 -14802847.56246  21174381.7274                   21174380.2504
 -17648652.29347 -13725267.78944  23218225.4144                   23218225.6644
  -5155348.25047  -3983832.57045  23278989.9534                   23278990.1764
 -13129116.15247 -10198893.60945  22208384.9774                   22208382.8444
 11  7 30  1 15  0.0000000  0  9G02G28G17G09G04G10G27G05G12
 -25047577.72748 -19485624.15646  20695133.9454                   20695129.8554
 -34123318.60246 -26580544.98442  24265366.6884                   24265366.8484
 -32797962.41847 -25522938.58245  22573918.0784                   22573916.2344
 -11316530.75047  -8790106.12144  22856813.9614                   22856813.2734
 -29895477.69948 -23262571.89546  20771516.5084                   20771514.9694
 -19106952.94148 -14863151.40246  21159655.1564                   21159653.1454
 -17627697.80947 -13708939.70744  23222213.3834                   23222212.9614
  -5294013.94947  -4091883.69945  23252603.1884                   23252602.5234
 -13243702.57447 -10288181.71146  22186579.6954                   22186577.5904
 11  7 30  1 15 30.0000000  0  9G02G28G17G09G04G10G27G05G12
 -25103806.48448 -19529438.77046  20684434.2734                   20684429.7814
 -34055760.55146 -26527902.35242  24278221.5944                   24278222.7584
 -32785500.02047 -25513227.64845  22576289.7814                   22576287.9144
 -11286533.48047  -8766731.70345  22862522.7344                   22862522.1764
 -29867727.02048 -23240948.00046  20776797.5084                   20776795.8324
 -19183786.51248 -14923021.69146  21145034.0084                   21145032.3554
 -17606498.92247 -13692421.16444  23226247.6094                   23226247.0784
  -5432565.16847  -4199845.60945  23226237.5164                   23226237.0864
 -13357993.94547 -10377239.91045  22164830.6954                   22164828.6214
 11  7 30  1 16  0.0000000  0  9G02G28G17G09G04G10G27G05G12
 -25159668.26248 -19572967.42646  20673803.6564                   20673799.7734
 -33987996.59846 -26475099.27742  24291117.9694                   24291116.9184
 -32772898.51647 -25503408.30945  22578687.5704                   22578685.8594
 -11256154.43047  -8743059.78145  22868303.4384                   22868302.9964
 -29839669.47748 -23219084.98846  20782136.5394                   20782134.4964
 -19260055.91448 -14982452.36346  21130520.3754                   21130519.0274
 -17585052.64547 -13675709.82844  23230328.1174                   23230328.0204
  -5570993.29347  -4307711.58645  23199896.0554                   23199895.7114
 -13471982.18748 -10466061.90246  22143139.3364                   22143137.6024
 11  7 30  1 16 30.0000000  0  8G02G17G09G04G10G27G05G12
 -25215175.20748 -19616219.57846  20663241.0474                   20663236.9494
 -32760168.79347 -25493489.07445  22581110.0474                   22581108.1374
 -11225408.08647  -8719101.66045  22874153.9614                   22874153.4804
 -29811319.35948 -23196993.99246  20787531.2974                   20787529.5314
 -19335770.60248 -15041450.80546  21116112.6724                   21116110.7734
 -17563373.19947 -13658816.80944  23234453.6094                   23234453.7814
  -5709307.00047  -4415488.40645  23173575.3054                   23173575.0474
 -13585676.04747 -10554654.50445  22121504.4844                   22121501.7704
 11  7 30  1 17  0.0000000  0  8G02G17G09G04G10G27G05G12
 -25270324.38348 -19659192.95346  20652746.5234                   20652742.1884
 -32747306.77347 -25483466.74645  22583557.3984                   22583556.1024
 -11194294.07047  -8694857.03945  22880074.7734                   22880074.2234
 -29782675.10948 -23174673.79746  20792982.1094                   20792980.3714
 -19410924.95348 -15100012.61346  21101811.1024                   21101809.1054
 -17541459.53547 -13641741.29744  23238623.8284                   23238624.6024
  -5847499.89147  -4523171.11745  23147278.2114                   23147277.9104
 -13699069.71147 -10643013.18445  22099926.2344                   22099924.0044
 11  7 30  1 17 30.0000000  0  8G02G17G09G04G10G27G05G12
 -25325106.18048 -19701880.06247  20642321.9924                   20642317.9104
 -32734302.03147 -25473333.19945  22586032.1644                   22586029.9734
 -11162805.74247  -8670320.75445  22886066.8524                   22886066.8634
 -29753729.05148 -23152118.43446  20798490.3674                   20798488.5234
 -19485506.78948 -15158128.30146  21087618.7664                   21087617.3244
 -17519304.23047 -13624477.47744  23242840.1484                   23242839.9264
  -5985558.64847  -4630749.29345  23121006.2894                   23121006.0234
 -13812150.36747 -10731127.96946  22078407.7114                   22078404.9844
 11  7 30  1 18  0.0000000  0  8G02G17G09G04G10G27G05G12
 -25379531.33648 -19744289.27346  20631965.2584                   20631961.1604
 -32721163.92647 -25463095.74645  22588532.5554                   22588530.6134
 -11130956.61347  -8645503.31245  22892128.1564                   22892127.6724
 -29724493.59448 -23129337.57046  20804053.6414                   20804052.2074
 -19559524.12148 -15215804.11346  21073533.5864                   21073532.1334
 -17496920.19147 -13607035.43744  23247100.5004                   23247100.1214
  -6123490.14147  -4738228.32845  23094758.8594                   23094757.8484
 -13924925.49247 -10819004.67246  22056947.1644                   22056944.8714
 11  7 30  1 18 30.0000000  0  8G02G17G09G04G10G27G05G12
 -25433599.29748 -19786420.14546  20621676.3524                   20621672.1094
 -32707890.03547 -25452752.49245  22591058.5704                   22591056.7774
 -11098747.80147  -8620405.59444  22898256.8524                   22898256.6054
 -29694969.30548 -23106331.62946  20809672.0864                   20809670.5864
 -19632973.35548 -15273037.25846  21059556.5084                   21059554.6804
 -17474308.31247 -13589415.86344  23251403.0784                   23251402.6644
  -6261290.05547  -4845604.80145  23068536.6414                   23068535.8444
 -14037390.67648 -10906639.87145  22035545.9534                   22035543.1804
 11  7 30  1 19  0.0000000  0  8G02G17G09G04G10G27G05G12
 -25487307.34448 -19828270.56646  20611456.2664                   20611452.1994
 -32694477.30947 -25442301.05945  22593610.5784                   22593608.8164
 -11066180.08247  -8595028.20344  22904454.5234                   22904454.0164
 -29665155.72348 -23083100.27346  20815345.5704                   20815343.6174
 -19705849.77048 -15329824.04346  21045688.7894                   21045687.3634
 -17451468.59447 -13571618.75444  23255748.9844                   23255749.4344
  -6398952.68047  -4952874.31645  23042339.8284                   23042339.1844
 -14149540.69548 -10994029.48845  22014204.6024                   22014201.9024
 11  7 30  1 19 30.0000000  0  8G02G17G09G04G10G27G05G12
 -25540652.18748 -19869837.95746  20601304.7974                   20601300.7234
 -32680920.89847 -25431737.64845  22596190.5864                   22596188.3674
 -11033252.44547  -8569370.35544  22910720.2424                   22910719.6214
 -29635050.97348 -23059642.02746  20821073.7114                   20821072.2464
 -19778146.83248 -15386159.37946  21031930.9844                   21031929.0434
 -17428399.25847 -13553642.71544  23260138.7734                   23260139.3164
  -6536470.86347  -5060031.27045  23016170.8134                   23016170.5234
 -14261368.77348 -11081168.23846  21992924.2974                   21992921.3984
 11  7 30  1 20  0.0000000  0  8G02G17G09G04G10G27G05G12
 -25593642.23448 -19911128.88746  20591221.2734                   20591216.9104
 -32667228.24247 -25421068.06245  22598796.1954                   22598794.1914
 -10999976.14546  -8543440.80144  22917052.6724                   22917052.3364
 -29604665.35548 -23035964.92646  20826856.1174                   20826854.4574
 -19849870.89548 -15442048.23446  21018282.3754                   21018280.8794
 -17405110.86747 -13535495.98044  23264570.6094                   23264570.8634
  -6673849.29747  -5167079.30945  22990028.2344                   22990027.9454
 -14372879.87947 -11168059.99245  21971704.0314                   21971701.6524
 11  7 30  1 20 30.0000000  0  8G02G17G09G04G10G27G05G12
 -25646282.80548 -19952147.49646  20581204.0704                   20581199.7464
 -32653403.09447 -25410295.25445  22601426.8054                   22601424.9884
 -10966358.94547  -8517245.63744  22923449.5704                   22923449.8754
 -29574005.64148 -23012074.24246  20832690.4774                   20832688.5084
 -19921024.35548 -15497492.45346  21004742.1094                   21004740.5904
 -17381610.76647 -13517184.28944  23269042.4304                   23269043.1724
  -6811089.92647  -5274019.96945  22963912.2974                   22963912.1294
 -14484076.78147 -11254706.90646  21950544.8674                   21950541.8484
 11  7 30  1 21  0.0000000  0  8G02G17G09G04G10G27G05G12
 -25698561.23048 -19992883.93746  20571255.6644                   20571251.6644
 -32639431.54347 -25399408.36745  22604085.6884                   22604083.9614
 -10932390.48047  -8490776.78144  22929913.6804                   22929913.6094
 -29543060.52048 -22987961.18046  20838579.3284                   20838577.2234
 -19991591.74248 -15552479.99646  20991313.5394                   20991312.3554
 -17357888.21147 -13498699.27044  23273556.9774                   23273557.4654
  -6948176.00447  -5380840.21945  22937825.8984                   22937825.0514
 -14594942.79348 -11341096.00046  21929447.3054                   21929444.6374
 11  7 30  1 21 30.0000000  0  8G02G17G09G04G10G27G05G12
 -25750483.56248 -20033342.89146  20561375.2344                   20561371.1024
 -32625318.59847 -25388411.28545  22606770.9384                   22606769.8794
 -10898079.73447  -8464041.20744  22936443.0944                   22936443.1564
 -29511838.09848 -22963632.02746  20844520.5864                   20844519.4654
 -20061576.91448 -15607013.86746  20977995.7274                   20977994.1954
 -17333951.19947 -13480047.12144  23278112.6484                   23278112.7704
  -7085110.21547  -5487542.10545  22911767.8984                   22911767.4804
 -14705480.82448 -11427229.52046  21908413.0084                   21908410.1914
 11  7 30  1 22  0.0000000  0  8G02G17G09G04G10G27G05G12
 -25802052.55948 -20073526.52046  20551562.2504                   20551557.8404
 -32611065.55547 -25377305.02045  22609483.4224                   22609481.8244
 -10863432.15647  -8437043.16844  22943035.7344                   22943035.9264
 -29480342.39848 -22939089.93046  20850514.2034                   20850512.4804
 -20130979.70348 -15661093.92646  20964788.8204                   20964787.0314
 -17309804.49647 -13461231.57444  23282707.3524                   23282707.7704
  -7221891.30947  -5594124.68045  22885739.8284                   22885739.0434
 -14815690.38747 -11513107.09046  21887440.4534                   21887437.9104
 11  7 30  1 22 30.0000000  0  8G02G17G09G04G10G27G05G12
 -25853271.57848 -20113437.43446  20541815.5554                   20541811.1374
 -32596674.65647 -25366091.37145  22612222.0704                   22612220.4024
 -10828453.84847  -8409787.43744  22949692.5944                   22949692.0984
 -29448578.73448 -22914339.03146  20856558.6644                   20856556.8954
 -20199800.97348 -15714720.86346  20951692.6954                   20951690.8554
 -17285453.41046 -13442256.77744  23287340.2034                   23287341.4804
  -7358519.15247  -5700587.85545  22859740.3284                   22859740.1414
 -14925571.75048 -11598728.90646  21866530.7274                   21866527.8244
 11  7 30  1 23  0.0000000  0  8G02G17G09G04G10G27G05G12
 -25904136.89148 -20153072.74646  20532136.2344                   20532132.0944
 -32582140.68747 -25354766.23045  22614988.3444                   22614986.0784
 -10793143.32447  -8382272.82444  22956411.8674                   22956411.8284
 -29416544.25448 -22889377.11746  20862654.5314                   20862652.9964
 -20268034.35548 -15767889.70346  20938708.1564                   20938706.4574
 -17260896.16446 -13423121.31244  23292014.2504                   23292014.0904
  -7494985.94947  -5806925.52345  22833771.1254                   22833770.7854
 -15035117.46547 -11684089.18745  21845684.6414                   21845682.3984
 11  7 30  1 23 30.0000000  0  8G02G17G09G04G10G27G05G12
 -25954659.48048 -20192440.98046  20522521.9064                   20522518.0864
 -32567473.73047 -25343337.44145  22617778.8914                   22617776.8524
 -10757514.35547  -8354510.05944  22963192.0864                   22963191.1644
 -29384252.42248 -22864214.66046  20868799.6254                   20868797.9804
 -20335688.69948 -15820607.35246  20925834.3524                   20925832.3554
 -17236145.97346 -13403835.53144  23296724.5084                   23296724.2584
  -7631299.64547  -5913143.90645  22807831.5314                   22807830.9414
 -15144335.79348 -11769194.34846  21824901.2504                   21824898.7154
 11  7 30  1 24  0.0000000  0  8G02G17G09G04G10G27G05G12
 -26004833.84048 -20231537.87546  20512973.8444                   20512969.5204
 -32552666.84047 -25331799.63345  22620596.4774                   22620594.4574
 -10721564.01647  -8326496.85544  22970032.6254                   22970032.4924
 -29351698.73448 -22838848.17246  20874994.3134                   20874992.5594
 -20402756.14548 -15872867.67246  20913071.4224                   20913069.7384
 -17211199.32046 -13384396.67644  23301470.5084                   23301471.5394
  -7767450.54347  -6019235.41845  22781922.6174                   22781922.3794
 -15253217.85548 -11854037.50446  21804181.6884                   21804178.9614
 11  7 30  1 24 30.0000000  0  8G02G17G09G04G10G27G05G12
 -26054648.01248 -20270354.10546  20503494.8284                   20503490.4224
 -32537706.73847 -25320142.42645  22623443.1564                   22623441.3244
 -10685283.12547  -8298226.08644  22976936.6174                   22976936.6024
 -29318872.93048 -22813269.63346  20881241.1564                   20881239.0314
 -20469222.01648 -15924659.24646  20900423.5234                   20900421.2704
 -17186046.20746 -13364796.92244  23306257.9304                   23306258.0744
  -7903423.20347  -6125188.05545  22756048.0314                   22756047.2034
 -15361748.05548 -11938606.47346  21783529.0864                   21783526.5314
 11  7 30  1 25  0.0000000  0  8G02G17G09G04G10G27G05G12
 -26104110.82448 -20308896.55146  20494082.2814                   20494078.3324
 -32522600.67647 -25308371.47345  22626318.0394                   22626316.0864
 -10648683.02747  -8269706.56644  22983901.9064                   22983901.6684
 -29285785.39848 -22787487.15646  20887537.4144                   20887535.3324
 -20535092.68748 -15975987.02346  20887888.7114                   20887886.6484
 -17160697.22346 -13345044.53944  23311080.8984                   23311081.8324
  -8039222.60547  -6231005.65245  22730205.6954                   22730205.2894
 -15469931.69948 -12022905.40246  21762942.6174                   21762940.0124
 11  7 30  1 25 30.0000000  0  8G02G17G09G04G10G27G05G12
 -26153227.47348 -20347169.26247  20484735.7894                   20484731.3524
 -32507352.73847 -25296489.98445  22629219.3594                   22629217.8404
 -10611771.27046  -8240944.21144  22990926.0474                   22990925.7034
 -29252442.66048 -22761505.81646  20893881.9454                   20893880.4264
 -20600370.76648 -16026853.03946  20875466.8204                   20875465.4024
 -17135159.50046 -13325145.09044  23315940.7584                   23315941.5824
  -8174849.82047  -6336689.09445  22704397.5394                   22704396.2464
 -15577771.03148 -12106936.02046  21742421.2274                   21742418.7854
 11  7 30  1 26  0.0000000  0  8G02G17G09G04G10G27G05G12
 -24626574.05548 -19157569.17246  20775248.2344                   20775243.8364
 -30916539.71147 -24056895.44545  22931941.4844                   22931939.7344
  -8999129.41447  -6984340.23044  23297801.6954                   23297801.2774
 -27643424.77748 -21507725.66446  21200068.1024                   21200066.5744
 -19089629.37148 -14849651.93446  21162951.0004                   21162949.3554
 -15534013.49647 -12077498.90244  23620629.5784                   23620630.3914
  -6734874.59447  -5214630.38345  22978415.3284                   22978414.9144
 -14109836.63347 -10963091.02046  22021759.6484                   22021757.3794
 11  7 30  1 26 30.0000000  0  8G02G17G09G04G10G27G05G12
 -24674996.86748 -19195301.21946  20766033.4844                   20766029.0084
 -30901002.41847 -24044788.47345  22934897.8754                   22934896.1804
  -8961600.69947  -6955097.12144  23304943.2504                   23304943.0234
 -27609574.49648 -21481348.83246  21206509.6804                   21206507.9964
 -19153713.51648 -14899587.60946  21150756.7504                   21150754.2664
 -15508102.41447 -12057308.55544  23625559.7814                   23625560.0784
  -6870145.42647  -5320036.13745  22952673.9694                   22952673.2344
 -14216975.59448 -11046575.90246  22001372.1414                   22001369.6454
 11  7 30  1 27  0.0000000  0  8G02G17G09G04G10G27G05G12
 -24723079.10948 -19232767.88747  20756883.9224                   20756879.5234
 -30885324.93747 -24032572.27345  22937881.4144                   22937879.6094
  -8923773.92247  -6925621.76244  23312141.5554                   23312141.1524
 -27575479.14548 -21454781.04346  21212997.4844                   21212996.2854
 -19217203.55548 -14949060.34846  21138674.7584                   21138672.7664
 -15482013.90647 -12036979.96144  23630524.5314                   23630524.0234
  -7005238.66047  -5425303.49245  22926967.3054                   22926965.6454
 -14323765.79747 -11129789.02746  21981050.2814                   21981047.8164
 11  7 30  1 27 30.0000000  0  8G02G17G09G04G10G27G05G12
 -24770815.67648 -19269965.20346  20747799.8834                   20747795.6764
 -30869500.52347 -24020241.58645  22940892.8524                   22940891.2234
  -8885646.15647  -6895911.89544  23319397.0394                   23319396.5084
 -27541134.89148 -21428019.29746  21219533.1094                   21219531.3524
 -19280091.88748 -14998064.22346  21126707.2664                   21126705.4774
 -15455744.89547 -12016510.68444  23635523.8754                   23635523.9494
  -7140145.18747  -5530425.39545  22901294.5314                   22901293.5984
 -14430198.25847 -11212723.39546  21960796.7584                   21960794.8634
 11  7 30  1 28  0.0000000  0  8G02G17G09G04G10G27G05G12
 -24818207.75048 -19306894.07446  20738781.3054                   20738777.4024
 -30853529.33647 -24007796.52745  22943931.9144                   22943930.0474
  -8847221.73847  -6865970.84844  23326709.1954                   23326708.5354
 -27506544.72748 -21401065.93746  21226115.6094                   21226114.2234
 -19342377.47348 -15046598.41846  21114854.7664                   21114853.0984
 -15429298.64147 -11995903.26644  23640556.0554                   23640557.0204
  -7274862.98047  -5635400.18745  22875658.5704                   22875657.3324
 -14536271.64547 -11295377.95346  21940611.9144                   21940609.2424
 11  7 30  1 28 30.0000000  0  8G02G17G09G04G10G27G05G12
 -24865263.35548 -19343560.77046  20729826.6804                   20729822.9804
 -30837417.71947 -23995242.05145  22946998.2814                   22946995.9804
  -8808510.68447  -6835806.47744  23334075.3674                   23334075.2894
 -27471717.85548 -21373928.13346  21232742.8834                   21232741.0984
 -19404065.75848 -15094667.18746  21103115.8444                   21103114.0434
 -15402684.92647 -11975165.36744  23645620.7664                   23645621.4774
  -7409395.61347  -5740230.74245  22850057.6804                   22850056.4184
 -14641990.23447 -11377756.06246  21920493.8984                   21920491.7584
 11  7 30  1 29  0.0000000  0  8G02G17G09G04G10G27G05G12
 -24911969.72348 -19379955.33646  20720938.9224                   20720934.7704
 -30821151.64547 -23982567.20745  22950093.4384                   22950091.7854
  -8769502.93047  -6805410.88344  23341498.5864                   23341498.1414
 -27436643.05548 -21346597.13746  21239417.4614                   21239415.5474
 -19465141.83648 -15142258.92646  21091493.3054                   21091491.7584
 -15375893.03547 -11954288.61744  23650719.6954                   23650719.6024
  -7543726.62947  -5844904.17645  22824495.2814                   22824494.4884
 -14747337.80947 -11459845.06246  21900446.9614                   21900444.5744
 11  7 30  1 29 30.0000000  0  8G02G17G09G04G10G27G05G12
 -24958331.66448 -19416081.52346  20712116.7344                   20712112.5634
 -30804734.54747 -23969774.68045  22953217.3754                   22953215.3524
  -8730206.11347  -6774790.05944  23348976.3364                   23348975.8284
 -27401326.35248 -21319077.65646  21246137.8054                   21246136.4024
 -19525608.27048 -15189375.60546  21079987.1094                   21079985.2424
 -15348929.64147 -11933278.27344  23655850.3834                   23655850.7234
  -7677857.09447  -5949421.33245  22798970.8524                   22798970.2774
 -14852315.82447 -11541646.09846  21880470.5084                   21880467.8444
 11  7 30  1 30  0.0000000  0  8G02G17G09G04G10G27G05G12
 -25004351.22748 -19451940.92647  20703359.3444                   20703355.5824
 -30788167.01647 -23956864.92645  22956369.3284                   22956368.8834
  -8690624.68746  -6743947.46944  23356508.5474                   23356508.1954
 -27365771.37148 -21291372.49646  21252903.7114                   21252902.4184
 -19585464.79348 -15236017.03546  21068596.7584                   21068594.7584
 -15321798.61347 -11912137.29344  23661012.8594                   23661013.2344
  -7811785.39147  -6053780.96145  22773485.3984                   22773485.0354
 -14956922.88348 -11623158.05946  21860564.5864                   21860561.9304
 11  7 30  1 30 30.0000000  0  8G02G17G09G04G10G27G05G12
 -25050030.69548 -19487535.30546  20694666.7424                   20694662.9064
 -30771450.05147 -23943838.74645  22959550.9534                   22959549.7274
  -8650763.39147  -6712886.78144  23364094.2424                   23364094.0634
 -27329981.44948 -21263484.27346  21259714.5474                   21259712.9494
 -19644711.30948 -15282183.13746  21057322.3754                   21057320.8444
 -15294503.95346 -11890868.80544  23666206.5704                   23666207.2734
  -7945509.71547  -6157981.66045  22748038.4304                   22748037.4534
 -15061158.08248 -11704380.28946  21840728.9224                   21840726.7544
 11  7 30  1 31  0.0000000  0  8G02G17G09G04G10G27G05G12
 -25095367.67248 -19522862.81646  20686039.5394                   20686035.2894
 -30754579.97347 -23930693.25445  22962761.4614                   22962759.9574
  -8610622.73047  -6681608.42244  23371732.4224                   23371732.4144
 -27293956.09448 -21235412.58646  21266569.7194                   21266568.5594
 -19703343.32848 -15327870.40246  21046165.3204                   21046163.2854
 -15267045.33647 -11869472.57444  23671432.6414                   23671432.1724
  -8079024.07447  -6262018.74645  22722631.3204                   22722630.2424
 -15165016.07448 -11785308.57046  21820965.8444                   21820963.0044
 11  7 30  1 31 30.0000000  0  8G02G17G09G04G10G27G05G12
 -25140367.69948 -19557927.77346  20677476.7114                   20677472.1914
 -30737560.90647 -23917431.66445  22966000.1024                   22965998.0824
  -8570210.69947  -6650118.59044  23379422.9614                   23379423.0164
 -27257701.94548 -21207162.62546  21273468.7274                   21273467.4844
 -19761364.10948 -15373081.38746  21035124.1174                   21035122.1134
 -15239430.28547 -11847954.43044  23676687.4924                   23676688.0554
  -8212330.13747  -6365893.51245  22697263.6644                   22697262.8284
 -15268498.46548 -11865944.18446  21801273.7664                   21801271.0904
 11  7 30  1 32  0.0000000  0  9G02G25G17G09G04G10G27G05G12
 -25185029.81648 -19592729.42646  20668977.5314                   20668973.0784
   6100702.86756   4786633.83653  24706791.2974                   24706792.8554
 -30720389.95747 -23904051.71145  22969267.4224                   22969265.4264
  -8529528.59847  -6618418.33244  23387163.6094                   23387164.8164
 -27221219.18748 -21178734.51646  21280411.4064                   21280409.5944
 -19818770.27748 -15417813.45346  21024200.2504                   21024198.2194
 -15211659.44947 -11826314.86744  23681971.9454                   23681972.7384
  -8345422.77747  -6469601.99645  22671937.2974                   22671936.1454
 -15371600.81648 -11946283.66846  21781653.9064                   21781651.5044
 11  7 30  1 32 30.0000000  0  9G02G25G17G09G04G10G27G05G12
 -25229360.64148 -19627272.92646  20660541.3284                   20660537.4774
   5963506.10246   4679727.34844  24680683.3594                   24680685.1214
 -30703072.73447 -23890557.77345  22972562.5864                   22972561.4184
  -8488585.50447  -6586514.69944  23394955.1884                   23394955.9414
 -27184515.87948 -21150134.56246  21287395.5704                   21287394.3524
 -19875566.51648 -15462070.23846  21013392.0234                   21013390.4264
 -15183741.59046 -11804560.75443  23687284.5864                   23687285.1054
  -8478305.08247  -6573146.56645  22646650.4454                   22646649.1094
 -15474326.46548 -12026329.62546  21762105.7504                   21762102.8554
 11  7 30  1 33  0.0000000  0  9G02G25G17G09G04G10G27G05G12
 -25273361.94948 -19661559.65647  20652168.3984                   20652164.2424
   5826422.55946   4572909.07844  24654597.4144                   24654598.9104
 -30685609.52747 -23876950.08245  22975885.7814                   22975884.6454
  -8447385.80547  -6554411.08644  23402795.4224                   23402795.3834
 -27147595.19148 -21121365.20746  21294421.3754                   21294420.3134
 -19931752.51648 -15505851.51646  21002700.2894                   21002698.4414
 -15155680.17246 -11782694.78944  23692624.6954                   23692625.5354
  -8610974.65647  -6676525.37945  22621404.3914                   22621403.5594
 -15576674.00048 -12106080.93446  21742629.9614                   21742627.2304
 11  7 30  1 33 30.0000000  0  9G02G25G17G09G04G10G27G05G12
 -25317039.26648 -19695593.92247  20643856.9144                   20643852.6914
   5689450.07447   4466177.35944  24628532.8054                   24628533.8164
 -30668004.43447 -23863231.85544  22979236.1804                   22979234.3284
  -8405937.85947  -6522114.06644  23410683.2814                   23410683.3444
 -27110464.13748 -21092431.93446  21301487.4144                   21301485.9344
 -19987331.48448 -15549159.78146  20992124.1024                   20992122.3594
 -15127482.87546 -11760722.96143  23697990.0704                   23697990.2114
  -8743433.53147  -6779740.02045  22596197.9534                   22596196.9844
 -15678645.48048 -12185539.23046  21723224.8674                   21723222.4144
 11  7 30  1 34  0.0000000  0  9G02G25G17G09G04G10G27G05G12
 -25360386.96948 -19729371.35246  20635607.8524                   20635603.6724
   5552597.86347   4359539.30144  24602490.1094                   24602491.1564
 -30650250.23047 -23849397.42245  22982614.9454                   22982613.2774
  -8364238.21147  -6489620.91044  23418618.2894                   23418619.0044
 -27073118.06648 -21063331.12546  21308594.0944                   21308592.5784
 -20042295.46948 -15591988.83646  20981664.4694                   20981663.0824
 -15099145.80946 -11738642.25043  23703382.9774                   23703383.5634
  -8875671.87547  -6882782.81245  22571034.0164                   22571032.4804
 -15780231.83248 -12264697.41846  21703893.8834                   21703891.4224
 11  7 30  1 34 30.0000000  0  9G02G25G17G09G04G10G27G05G12
 -25403408.96548 -19762894.97747  20627421.2274                   20627416.9414
   5415865.24247   4252994.46544  24576471.2894                   24576472.3284
 -30632349.88747 -23835449.11345  22986021.1644                   22986019.2624
  -8322293.52747  -6456936.82844  23426600.4454                   23426600.7624
 -27035562.41848 -21034067.00046  21315740.6414                   21315738.8754
 -20096646.60248 -15634340.34846  20971322.0474                   20971319.9964
 -15070674.62146 -11716457.01244  23708800.3914                   23708801.8754
  -9007689.82447  -6985653.87145  22545911.8914                   22545910.7344
 -15881433.78548 -12343556.09046  21684635.4064                   21684632.9844
 11  7 30  1 35  0.0000000  0  9G02G25G17G09G04G10G27G05G12
 -25446099.24248 -19796160.10947  20619297.6564                   20619293.1994
   5279261.56347   4146550.04344  24550475.6174                   24550477.1644
 -30614295.71147 -23821380.94145  22989456.9924                   22989455.1954
  -8280100.43747  -6424059.19544  23434628.9454                   23434629.3984
 -26997792.43748 -21004635.86746  21322927.9614                   21322926.6644
 -20150377.12548 -15676208.27046  20961097.4304                   20961095.3714
 -15042065.32046 -11694164.14144  23714245.3204                   23714246.1174
  -9139477.57847  -7088345.55945  22520833.2194                   22520832.0944
 -15982241.98048 -12422107.92246  21665452.6334                   21665450.3634
 11  7 30  1 35 30.0000000  0  9G02G25G17G09G04G10G27G05G12
 -25488463.08648 -19829170.89547  20611236.0084                   20611231.6764
   5142785.20747   4040204.85944  24524505.8914                   24524506.2234
 -30596090.93747 -23807195.41045  22992921.0164                   22992919.0944
  -8237666.16847  -6390993.62544  23442704.3834                   23442704.4654
 -26959814.41448 -20975042.61346  21330155.2894                   21330153.6954
 -20203489.49648 -15717594.50846  20950990.2504                   20950988.7234
 -15013324.59047 -11671768.85244  23719714.5004                   23719715.0784
  -9271036.23847  -7190858.72745  22495798.5784                   22495797.0314
 -16082657.75448 -12500353.96946  21646344.0164                   21646342.0944
 11  7 30  1 36  0.0000000  0  9G02G25G17G09G04G10G27G05G12
 -25530500.69148 -19861927.46146  20603236.5944                   20603232.2384
   5006439.11347   3933961.18444  24498560.1724                   24498561.5314
 -30577734.80947 -23792891.96545  22996413.5634                   22996412.3634
  -8194993.82447  -6357742.52344  23450824.8364                   23450824.8444
 -26921629.93748 -20945288.48446  21337421.4844                   21337419.7074
 -20255982.38748 -15758498.03946  20941001.3444                   20940999.3754
 -14984455.01647 -11649273.16844  23725208.3984                   23725208.9884
  -9402362.39847  -7293190.73845  22470807.7424                   22470806.3324
 -16182678.54748 -12578292.24246  21627310.9064                   21627308.4384
 11  7 30  1 36 30.0000000  0  9G02G25G17G09G04G10G27G05G12
 -25572206.60248 -19894425.56646  20595299.8284                   20595295.6174
   4870232.37547   3827826.09443  24472640.1724                   24472641.3714
 -30559220.49647 -23778465.24645  22999937.2034                   22999935.4344
  -8152080.23447  -6324303.44544  23458991.2584                   23458991.1644
 -26883234.87148 -20915370.26646  21344727.8594                   21344725.9694
 -20307848.14848 -15798912.89146  20931131.6564                   20931129.7894
 -14955452.61746 -11626674.00844  23730726.9064                   23730727.6454
  -9533446.42647  -7395334.06645  22445863.3984                   22445862.3674
 -16282294.98048 -12655915.43746  21608354.5164                   21608352.1454
 11  7 30  1 37  0.0000000  0  9G02G25G17G09G04G10G27G05G12
 -25613586.42648 -19926669.57446  20587425.6884                   20587421.2154
   4734162.86347   3721797.98043  24446747.3754                   24446748.7074
 -30540551.92247 -23763918.30145  23003489.5314                   23003488.0704
  -8108933.52047  -6290682.68044  23467201.7274                   23467202.0434
 -26844635.64848 -20885292.96146  21352072.8444                   21352071.2344
 -20359089.99648 -15838841.58646  20921380.4534                   20921379.1094
 -14926324.92246 -11603977.21944  23736269.9694                   23736271.0204
  -9664289.94547  -7497289.99645  22420964.5864                   22420963.4384
 -16381509.67248 -12733225.59046  21589474.5474                   21589472.2504
 11  7 30  1 37 30.0000000  0  9G02G25G17G09G04G10G27G05G12
 -25654643.32448 -19958661.95346  20579612.6484                   20579608.5354
   4598230.76247   3615876.83943  24420879.9384                   24420881.2464
 -30521731.00847 -23749252.69145  23007071.4844                   23007069.5234
  -8065559.32847  -6256884.65644  23475455.5004                   23475455.6254
 -26805837.09448 -20855060.33646  21359455.7734                   21359454.6334
 -20409709.99648 -15878285.72746  20911747.8594                   20911745.8754
 -14897077.03946 -11581186.76644  23741835.8594                   23741836.9104
  -9794892.42247  -7599058.10245  22396111.8134                   22396110.6994
 -16480322.26648 -12810222.41046  21570671.2814                   21570668.8204
 11  7 30  1 38  0.0000000  0  9G02G25G17G09G04G10G27G05G12
 -25695380.80148 -19990405.44946  20571860.5554                   20571856.2504
   4462436.07446   3510062.73042  24395038.2274                   24395039.8524
 -30502760.03147 -23734470.12145  23010681.6334                   23010680.0314
  -8021963.69147  -6222914.10244  23483752.0704                   23483752.0434
 -26766843.73048 -20824675.90246  21366875.9534                   21366874.8954
 -20459709.25048 -15917246.15646  20902233.1564                   20902231.4734
 -14867714.23847 -11558306.73844  23747423.6644                   23747424.4844
  -9925253.72747  -7700638.27345  22371305.0864                   22371303.5784
 -16578733.00847 -12886906.10246  21551944.1024                   21551941.5394
 11  7 30  1 38 30.0000000  0  9G02G25G17G09G04G10G27G05G12
 -25735795.97348 -20021897.78146  20564170.1804                   20564165.7854
   4326785.41446   3404360.96943  24369226.3914                   24369226.2664
 -30483633.73447 -23719566.56245  23014320.5784                   23014319.4694
  -7978145.86747  -6188770.42244  23492089.9304                   23492089.9414
 -26727653.49648 -20794138.08646  21374333.9844                   21374332.8324
 -20509082.52748 -15955718.82846  20892837.9614                   20892835.9304
 -14838235.06247 -11535336.05544  23753033.9534                   23753034.1374
 -10055366.41047  -7802024.71145  22346544.9304                   22346543.8404
 -16676735.48048 -12963271.65646  21533294.9224                   21533292.4924
 11  7 30  1 39  0.0000000  0  9G02G25G17G09G04G10G27G05G12
 -25775885.71148 -20053136.53546  20556541.4384                   20556537.0704
   4191285.18046   3298776.39143  24343440.6564                   24343442.1484
 -30464348.17247 -23704538.88345  23017990.6484                   23017989.5204
  -7934105.57847  -6154453.39544  23500470.5004                   23500470.0634
 -26688265.06248 -20763445.81246  21381829.1954                   21381827.3874
 -20557825.54748 -15993700.38746  20883562.5864                   20883560.3594
 -14808638.59847 -11512273.98044  23758665.9064                   23758666.5394
 -10185223.82047  -7903212.24245  22321833.7734                   22321832.5474
 -16774323.00048 -13039313.87146  21514724.2034                   21514721.9304
 11  7 30  1 39 30.0000000  0  9G02G25G17G09G04G10G27G05G12
 -25815649.18448 -20084121.05547  20548974.7344                   20548970.2234
   4055939.62146   3193312.33243  24317685.0314                   24317686.7974
 -30444900.68747 -23689385.02344  23021691.0554                   23021690.3404
  -7889844.39147  -6119964.24644  23508893.5004                   23508892.9804
 -26648678.39848 -20732599.07846  21389362.6024                   21389360.9694
 -20605935.29348 -16031188.47746  20874407.4144                   20874405.3364
 -14778925.74247 -11489121.17644  23764319.4774                   23764320.5744
 -10314821.10947  -8004197.07845  22297172.9774                   22297171.0594
 -16871491.43748 -13115029.53946  21496234.0394                   21496231.6024
 11  7 30  1 40  0.0000000  0  9G02G25G17G09G04G10G27G05G12
 -25855093.94548 -20114857.22746  20541468.6174                   20541464.1294
   3920744.89147   3087965.78944  24291958.6644                   24291959.8484
 -30425297.35547 -23674109.73045  23025421.8754                   23025420.6564
  -7845372.23447  -6085310.66844  23517356.0784                   23517355.9654
 -26608902.35948 -20701604.76246  21396931.5634                   21396930.0394
 -20653417.30948 -16068187.43046  20865371.7504                   20865369.8634
 -14749105.61347 -11465884.80144  23769993.7274                   23769994.6484
 -10444161.98847  -8104982.11345  22272559.9454                   22272558.4574
 -16968245.05948 -13190421.96146  21477822.4384                   21477819.8634
 11  7 30  1 40 30.0000000  0  9G02G25G17G09G04G10G27G05G12
 -25894218.74248 -20145344.07446  20534023.0004                   20534018.3524
   3785705.62547   2982740.39844  24266262.0704                   24266262.6524
 -30405536.08647 -23658711.35245  23029182.7664                   23029180.7974
  -7800690.47347  -6050493.77044  23525858.4384                   23525859.2814
 -26568936.81248 -20670462.78545  21404536.5314                   21404534.7584
 -20700268.77048 -16104695.05546  20856456.1884                   20856454.6564
 -14719179.14547 -11442565.57844  23775689.5164                   23775689.7774
 -10573241.24647  -8205563.28545  22247997.3594                   22247995.7854
 -17064579.06248 -13265487.41046  21459490.8594                   21459488.4304
 11  7 30  1 41  0.0000000  0  9G02G25G17G09G04G10G27G05G12
 -25933019.02348 -20175578.05146  20526639.7734                   20526635.5664
   3650830.00047   2877642.53144  24240595.9224                   24240597.6684
 -30385610.14547 -23643184.66045  23032974.3204                   23032972.3484
  -7755796.82047  -6015511.76244  23534402.0474                   23534402.1844
 -26528778.31648 -20639170.46545  21412178.7344                   21412177.0984
 -20746483.08648 -16140706.19146  20847662.0394                   20847659.7734
 -14689143.29746 -11419161.13743  23781404.8444                   23781406.0434
 -10702050.29747  -8305933.91046  22223485.0394                   22223484.0704
 -17160486.32448 -13340220.34046  21441240.1174                   21441237.8094
 11  7 30  1 41 30.0000000  0  9G02G25G17G09G04G10G27G05G12
 -25971503.00448 -20205565.55947  20519316.2814                   20519312.0274
   3516113.40247   2772668.57444  24214960.1484                   24214961.2504
 -30365526.48847 -23627535.08245  23036796.5474                   23036794.4344
  -7710701.87947  -5980372.88744  23542982.9614                   23542983.5744
 -26488436.15248 -20607735.02345  21419855.2734                   21419854.0744
 -20792066.90648 -16176226.03146  20838987.7664                   20838985.9924
 -14659008.06246 -11395679.24643  23787139.0164                   23787140.5044
 -10830593.39847  -8406097.30945  22199024.0944                   22199022.9144
 -17255970.96547 -13414623.94146  21423069.6174                   21423067.5784
 11  7 30  1 42  0.0000000  0  9G02G25G17G09G04G10G27G05G12
 -26009671.80948 -20235307.47746  20512052.8984                   20512048.8834
   3381558.60247   2667820.70744  24189354.6724                   24189356.2734
 -30345284.13347 -23611761.83244  23040647.6254                   23040646.2624
  -7665409.02047  -5945079.82444  23551602.2584                   23551602.4494
 -26447912.27048 -20576157.98446  21427567.1484                   21427565.4264
 -20837019.43748 -16211253.96146  20830433.4304                   20830431.4494
 -14628776.03946 -11372121.89543  23792891.6644                   23792893.6844
 -10958867.58247  -8506051.15246  22174614.1564                   22174612.9804
 -17351030.32848 -13488696.16046  21404980.7584                   21404978.3404
 11  7 30  1 42 30.0000000  0  9G02G25G17G09G04G10G27G05G12
 -26047523.97348 -20264802.66446  20504850.0944                   20504845.7774
   3247170.15247   2563102.48044  24163781.2034                   24163782.7464
 -30324880.94147 -23595863.26244  23044530.9454                   23044529.1294
  -7619919.68447  -5909633.64844  23560258.3524                   23560258.4414
 -26407206.52048 -20544439.23446  21435312.8754                   21435311.6054
 -20881337.53148 -16245787.52346  20822000.1334                   20821997.9184
 -14598447.86746 -11348489.63743  23798663.7664                   23798664.6954
 -11086867.75047  -8605791.47746  22150256.7034                   22150255.2624
 -17445660.44548 -13562433.89546  21386973.3984                   21386970.8444
 11  7 30  1 43  0.0000000  0  9G02G25G17G09G04G10G27G05G12
 -26085058.66848 -20294050.48046  20497707.3524                   20497703.0704
   3112952.56347   2458517.37944  24138240.3914                   24138242.2544
 -30304314.49647 -23579837.44945  23048444.4694                   23048442.2074
  -7574235.04747  -5874035.30544  23568951.7504                   23568952.1764
 -26366319.26248 -20512579.05146  21443093.6334                   21443091.9414
 -20925018.75448 -16279824.82046  20813687.9844                   20813685.8204
 -14568024.57046 -11324783.25443  23804453.1024                   23804454.7424
 -11214589.20747  -8705314.63345  22125952.0084                   22125950.1724
 -17539857.10548 -13635833.87546  21369048.3444                   21369046.0204
 11  7 30  1 43 30.0000000  0  9G02G25G17G09G04G10G27G05G12
 -26122284.75848 -20323057.82046  20490623.7274                   20490619.4534
   2978900.63747   2354061.38344  24112731.8204                   24112733.4384
 -30283591.70747 -23563689.83244  23052388.0314                   23052386.3524
  -7528366.39147  -5838293.62144  23577680.2344                   23577680.4774
 -26325260.25448 -20480585.03146  21450906.9694                   21450905.2934
 -20968070.33248 -16313371.49246  20805495.1334                   20805493.3404
 -14537516.58346 -11301010.87843  23810258.6024                   23810259.7154
 -11342036.68047  -8804624.28945  22101699.2734                   22101698.0084
 -17633625.51248 -13708900.15646  21351204.9304                   21351202.0984
 11  7 30  1 44  0.0000000  0  9G02G25G17G09G04G10G27G05G12
 -26159197.82848 -20351821.25046  20483599.3364                   20483595.0664
   2845022.61347   2249740.90244  24087255.5784                   24087256.7854
 -30262706.61347 -23547415.73045  23056362.1644                   23056360.5864
  -7482311.71147  -5802406.95343  23586445.2664                   23586444.7274
 -26284025.91448 -20448454.38746  21458753.2424                   21458751.6564
 -21010485.69948 -16346422.39846  20797423.8054                   20797422.0514
 -14506921.27746 -11277170.52343  23816080.5234                   23816081.8204
 -11469201.59047  -8903713.77045  22077500.8524                   22077499.4264
 -17726957.40648 -13781626.29746  21333444.1024                   21333442.0434
 11  7 30  1 44 30.0000000  0  9G02G25G17G09G04G10G27G05G12
 -26195794.08248 -20380337.80146  20476635.2274                   20476630.9224
   2711325.52046   2145561.43044  24061813.4844                   24061814.8484
 -30241654.28547 -23531011.32444  23060368.4534                   23060366.5824
  -7436069.91046  -5766374.47744  23595244.0784                   23595244.6724
 -26242613.84448 -20416185.25445  21466634.1094                   21466632.3874
 -21052259.75448 -16378973.59046  20789474.4064                   20789472.9304
 -14476236.69546 -11253260.58643  23821920.1564                   23821921.3874
 -11596076.29747  -9002577.11345  22053357.6334                   22053355.5984
 -17819846.41048 -13854007.32846  21315768.0234                   21315765.8484
 11  7 30  1 45  0.0000000  0  9G02G25G17G09G04G10G27G05G12
 -26232083.47348 -20408615.24246  20469729.7114                   20469725.0824
   2577803.24246   2041518.15644  24036404.7894                   24036406.1954
 -30220442.95747 -23514483.00444  23064404.0944                   23064402.7304
  -7389653.19546  -5730205.68444  23604076.5474                   23604078.1484
 -26201034.82448 -20383786.03545  21474546.2344                   21474544.4184
 -21093400.81648 -16411031.54346  20781645.3134                   20781643.4614
 -14445474.37546 -11229290.04343  23827774.5944                   23827775.4064
 -11722666.91047  -9101219.09045  22029267.7974                   22029266.3094
 -17912298.91048 -13926048.23046  21298174.7424                   21298172.0394
 11  7 30  1 45 30.0000000  0  9G02G25G17G09G04G10G27G05G12
 -26268062.10248 -20436650.52746  20462883.1644                   20462878.9264
   2444463.35946   1937617.00443  24011030.8834                   24011032.7194
 -30199067.36347 -23497826.70345  23068472.3594                   23068470.3134
  -7343060.09046  -5693899.45344  23612943.5784                   23612943.8554
 -26159285.95748 -20351254.46945  21482490.8054                   21482488.8954
 -21133903.29748 -16442591.90246  20773938.1484                   20773936.0234
 -14414632.29346 -11205257.32443  23833642.4384                   23833644.4774
 -11848966.14147  -9199634.02045  22005233.9614                   22005232.1524
 -18004307.48048 -13997743.20746  21280666.2344                   21280663.9884
 11  7 30  1 46  0.0000000  0  9G02G25G17G09G04G10G27G05G12
 -26303735.73048 -20464448.15246  20456094.4614                   20456090.4454
   2311303.75446   1833856.32444  23985691.7274                   23985693.4774
 -30177531.43447 -23481045.46544  23072570.3444                   23072569.3404
  -7296298.15647  -5657461.66044  23621841.9064                   23621842.7344
 -26117373.77048 -20318595.64145  21490466.2894                   21490464.9414
 -21173771.56248 -16473658.06646  20766351.6414                   20766349.7194
 -14383717.70746 -11181168.13744  23839526.0314                   23839527.5434
 -11974974.96547  -9297822.65646  21981255.0314                   21981253.6994
 -18095874.70748 -14069094.28946  21263241.7584                   21263238.8674
 11  7 30  1 46 30.0000000  0  9G02G25G17G09G04G10G27G05G12
 -26339101.40248 -20492005.80946  20449364.8754                   20449360.3014
   2178330.84047   1730241.09043  23960387.6564                   23960388.8914
 -30155831.03147 -23464136.05544  23076699.8364                   23076698.6214
  -7249367.35547  -5620892.28144  23630772.5164                   23630773.3094
 -26075296.89848 -20285808.49245  21498473.5394                   21498471.6684
 -21213001.09848 -16504226.52046  20758886.4614                   20758884.5704
 -14352729.66046 -11157021.71143  23845423.2114                   23845424.6054
 -12100686.62147  -9395779.73045  21957332.7734                   21957331.3244
 -18186994.18048 -14140096.46546  21245901.9304                   21245899.3134
 11  7 30  1 47  0.0000000  0  9G02G25G17G09G04G10G27G05G12
 -26374167.54748 -20519330.06246  20442691.6024                   20442687.3794
   2045540.10247   1626767.82843  23935118.8594                   23935120.0664
 -30133972.73447 -23447103.63345  23080859.6414                   23080857.6724
  -7202278.26647  -5584199.59444  23639733.5474                   23639734.4924
 -26033064.34048 -20252900.02045  21506509.9774                   21506508.6254
 -21251598.64548 -16534302.51246  20751541.5314                   20751539.7424
 -14321677.89546 -11132825.66843  23851331.8914                   23851333.3404
 -12226105.55547  -9493508.71946  21933466.4454                   21933464.5944
 -18277671.36748 -14210754.00446  21228647.0004                   21228644.6024
 11  7 30  1 47 30.0000000  0  9G02G25G17G09G04G10G27G05G12
 -26408925.30148 -20546414.02046  20436077.9064                   20436073.7384
   1912943.71147   1523446.00444  23909886.0234                   23909887.6134
 -30111946.29747 -23429940.18445  23085051.0474                   23085049.7624
  -7155024.77347  -5547378.77344  23648725.8674                   23648726.4734
 -25990668.25448 -20219864.13745  21514577.9384                   21514576.4924
 -21289554.06648 -16563878.16446  20744318.7274                   20744316.6414
 -14290555.56246 -11108574.57843  23857254.7274                   23857256.4304
 -12351219.37947  -9590999.96546  21909658.0864                   21909656.7584
 -18367894.10548 -14281057.42646  21211477.7114                   21211475.3554
 11  7 30  1 48  0.0000000  0  9G02G25G17G09G04G10G27G05G12
 -26443370.88748 -20573254.71546  20429523.0004                   20429518.8954
   1780549.48047   1420281.69143  23884692.5084                   23884693.2034
 -30089746.57047 -23412641.73044  23089275.3134                   23089273.3674
  -7107604.98447  -5510428.38744  23657749.2894                   23657749.5784
 -25948105.78148 -20186698.58645  21522677.3524                   21522675.9734
 -21326861.78947 -16592949.09446  20737219.2274                   20737217.4144
 -14259360.39146 -11084266.74644  23863190.6024                   23863192.4614
 -12476020.09047  -9688247.21546  21885909.2814                   21885907.4224
 -18457654.60948 -14351000.66846  21194397.3524                   21194394.6254
 11  7 30  1 48 30.0000000  0  9G02G25G17G09G04G10G27G05G12
 -26477518.22348 -20599863.01247  20423024.9774                   20423020.7854
   1648347.09447   1317266.87144  23859535.7584                   23859536.2344
 -30067385.68046 -23395217.66444  23093530.4224                   23093528.9574
  -7060035.41447  -5473361.26644  23666802.0004                   23666802.1214
 -25905391.51648 -20153414.76245  21530804.7894                   21530803.8754
 -21363534.50448 -16621525.23446  20730240.5084                   20730238.9454
 -14228107.98446 -11059914.30144  23869137.9844                   23869139.4344
 -12600517.55147  -9785258.17246  21862217.6884                   21862216.5234
 -18546964.02748 -14420592.41846  21177402.1254                   21177399.6644
 11  7 30  1 49  0.0000000  0  9G02G25G17G09G04G10G27G05G12
 -24935950.79348 -19398641.63347  20716375.5314                   20716371.2894
   3091760.01647   2442004.23444  24134207.6804                   24134208.7274
 -28469447.46146 -22150071.01645  23397608.0944                   23397606.5864
  -5436904.34447  -4208583.88744  23975673.6094                   23975674.2854
 -24287112.75448 -18892418.34845  21838753.5394                   21838752.2234
 -19824154.23448 -15422008.13346  21023175.0554                   21023173.1684
 -12621385.82047  -9807923.11344  24174887.3674                   24174888.1054
 -11149288.43447  -8654430.22346  22138378.0784                   22138376.4494
 -17060400.54748 -13262231.25046  21460285.7664                   21460283.6764
 11  7 30  1 49 30.0000000  0  9G02G25G17G09G04G10G27G05G12
 -24969502.43748 -19424785.75846  20709990.6334                   20709986.6174
   2959951.62947   2339296.41844  24109125.4384                   24109126.4064
 -28446760.73047 -22132393.07844  23401924.7814                   23401924.2504
  -5389042.53147  -4171289.07044  23984781.1564                   23984782.2734
 -24244098.81248 -18858901.01645  21846938.7344                   21846937.1604
 -19859553.55948 -15449592.00846  21016438.8204                   21016437.1334
 -12590025.00847  -9783486.20343  24180854.6724                   24180856.1884
 -11273168.71947  -8750960.27046  22114804.1884                   22114802.5274
 -17148798.75448 -13331112.96146  21443463.9304                   21443461.8984
 11  7 30  1 50  0.0000000  0  9G02G25G17G09G04G10G27G05G12
 -25002748.91848 -19450692.09047  20703664.3914                   20703659.9454
   2828352.94147   2236752.02044  24084083.0314                   24084084.1804
 -28423901.67247 -22114580.84844  23406274.5474                   23406273.4574
  -5341030.98447  -4133877.58644  23993917.8754                   23993918.5704
 -24200929.20348 -18825262.37545  21855153.9384                   21855152.3484
 -19894306.84448 -15476672.48846  21009825.5634                   21009823.5164
 -12558605.26247  -9759003.38744  24186833.8134                   24186835.5824
 -11396727.16048  -8847239.52046  22091291.1254                   22091290.4454
 -17236728.82448 -13399629.90246  21426731.5944                   21426729.2234
 11  7 30  1 50 30.0000000  0  9G02G25G17G09G04G10G27G05G12
 -25035694.59848 -19476364.02746  20697394.9224                   20697390.7894
   2696963.46947   2134370.60244  24059081.0314                   24059081.6764
 -28400872.51247 -22096636.07045  23410657.4844                   23410656.0274
  -5292876.36347  -4096354.57844  24003080.8364                   24003081.6484
 -24157609.23048 -18791506.57445  21863397.2814                   21863395.9494
 -19928417.02048 -15503251.83646  21003334.7424                   21003332.4144
 -12527132.32847  -9734479.11344  24192823.5634                   24192825.1024
 -11519964.05547  -8943268.19946  22067840.3754                   22067838.8674
 -17324192.09448 -13467783.09046  21410087.5004                   21410085.6094
 11  7 30  1 51  0.0000000  0  9G02G25G17G09G04G10G27G05G12
 -25068342.52348 -19501803.95346  20691182.0784                   20691178.0984
   2565783.87547   2032152.75444  24034117.7274                   24034118.8984
 -28377675.23847 -22078560.28545  23415072.8054                   23415070.1414
  -5244583.58247  -4058723.88344  24012270.4304                   24012271.9804
 -24114142.57848 -18757636.46545  21871668.5394                   21871667.2344
 -19961885.94548 -15529331.49246  20996965.5554                   20996963.4064
 -12495610.91046  -9709917.06644  24198821.5234                   24198823.4924
 -11642878.64147  -9039045.74646  22044450.5004                   22044448.9884
 -17411188.55548 -13535572.51646  21393533.0084                   21393530.4614
 11  7 30  1 51 30.0000000  0  9G02G25G17G09G04G10G27G05G12
 -25100696.07448 -19527014.49646  20685025.2894                   20685021.2774
   2434814.27747   1930098.50444  24009194.8834                   24009196.2584
 -28354311.82447 -22060355.06245  23419517.7734                   23419516.3674
  -5196158.82447  -4020990.37143  24021486.5784                   24021486.9804
 -24070533.77748 -18723655.60545  21879967.0784                   21879965.6564
 -19994715.95348 -15554913.30146  20990718.0704                   20990716.0164
 -12464046.43446  -9685321.45743  24204829.0554                   24204830.0314
 -11765470.74647  -9134572.00446  22021121.6174                   22021120.3874
 -17497718.33248 -13602998.30146  21377066.5004                   21377064.4064
 11  7 30  1 52  0.0000000  0  9G02G25G17G09G04G10G27G05G12
 -25132751.80548 -19551992.96547  20678925.4924                   20678921.5664
   2304062.17247   1828213.73044  23984313.2424                   23984314.9804
 -28330776.71547 -22042016.02344  23423995.8984                   23423994.8094
  -5147600.67647  -3983152.97343  24030726.6024                   24030726.5864
 -24026779.86348 -18689561.66445  21888293.4384                   21888291.7304
 -20026902.15248 -15579993.44146  20984593.6094                   20984591.3554
 -12432436.58646  -9660690.50843  24210843.4694                   24210845.4104
 -11887732.37148  -9229840.74646  21997856.2894                   21997854.9304
 -17583774.51248 -13670055.06246  21360690.8364                   21360688.2624
 11  7 30  1 52 30.0000000  0  9G02G25G17G09G04G10G27G05G12
 -25164513.80948 -19576742.57046  20672881.2344                   20672877.0864
   2173527.04347   1726498.04344  23959473.8054                   23959475.4144
 -28307072.94147 -22023545.56244  23428507.1414                   23428505.2464
  -5098915.48447  -3945216.55543  24039990.8674                   24039991.4414
 -23982885.91448 -18655358.60545  21896646.0474                   21896644.9144
 -20058447.36747 -15604574.10546  20978590.6254                   20978588.4844
 -12400787.44546  -9636028.94143  24216866.1254                   24216867.4694
 -12009664.01648  -9324852.36346  21974653.6884                   21974651.6524
 -17669357.45348 -13736743.04746  21344404.8834                   21344402.6954
 11  7 30  1 53  0.0000000  0  9G02G25G17G09G04G10G27G05G12
 -25195980.48048 -19601262.04346  20666893.0704                   20666889.1564
   2043214.46947   1624955.77344  23934676.1334                   23934677.2304
 -28283197.26247 -22004941.18044  23433050.4844                   23433048.9884
  -5050103.87546  -3907181.63743  24049279.3594                   24049279.6564
 -23938850.95748 -18621045.67645  21905025.9614                   21905024.5234
 -20089348.50048 -15628652.90246  20972710.1254                   20972708.1334
 -12369098.82046  -9611336.59843  24222895.6414                   24222898.4774
 -12131259.99648  -9419602.43046  21951514.2344                   21951512.6724
 -17754463.13348 -13803059.13346  21328210.1254                   21328207.7114
 11  7 30  1 53 30.0000000  0  9G02G25G17G09G04G10G27G05G12
 -25227152.51248 -19625551.93446  20660961.4694                   20660957.6374
   1913127.37547   1523589.20344  23909921.1414                   23909922.0204
 -28259148.68447 -21986202.05944  23437626.7114                   23437625.4774
  -5001169.07446  -3869050.67643  24058590.8364                   24058592.4024
 -23894676.58248 -18586624.09445  21913431.7504                   21913429.9304
 -20119605.38348 -15652229.67646  20966952.5634                   20966950.8524
 -12337373.20746  -9586615.44143  24228932.5394                   24228935.3484
 -12252517.05947  -9514088.39846  21928439.6724                   21928437.7544
 -17839088.60548 -13869001.04346  21312106.1254                   21312103.3364
 11  7 30  1 54  0.0000000  0  9G02G25G17G09G04G10G27G05G12
 -25258042.40248 -19649621.97346  20655083.5944                   20655079.5314
   1783256.96147   1422391.47344  23885207.9064                   23885208.6454
 -28234938.31247 -21967336.82844  23442233.9614                   23442232.1644
  -4952125.69546  -3830835.10543  24067924.0554                   24067924.7774
 -23850376.02348 -18552104.20345  21921861.8914                   21921860.6214
 -20149229.52348 -15675313.41046  20961315.1724                   20961313.2974
 -12305624.58645  -9561876.40243  24234975.2114                   24234977.4024
 -12373444.01647  -9608317.14146  21905428.1804                   21905426.4184
 -17923243.53148 -13934576.28946  21296092.0554                   21296089.7544
 11  7 30  1 54 30.0000000  0  9G02G25G17G09G04G10G27G05G12
 -25288640.75448 -19673464.82847  20649260.6954                   20649256.5514
   1653616.48047   1321372.90244  23860538.2974                   23860538.4144
 -28210555.23847 -21948337.05544  23446873.5084                   23446872.0394
  -4902966.46946  -3792529.27343  24077278.5004                   24077280.5084
 -23805940.83248 -18517479.37145  21930317.3754                   21930316.0274
 -20178210.05148 -15697895.61346  20955800.1954                   20955798.4144
 -12273845.19146  -9537113.32443  24241023.8204                   24241024.0664
 -12494027.18747  -9702277.99646  21882481.7274                   21882480.7384
 -18006914.88748 -13999774.73446  21280170.0394                   21280167.4614
 11  7 30  1 55  0.0000000  0  9G02G25G17G09G04G10G27G05G12
 -25318949.64848 -19697082.14846  20643492.9144                   20643488.8594
   1524207.76247   1220534.94544  23835912.1724                   23835913.3094
 -28185999.73447 -21929202.91444  23451546.4924                   23451545.0984
  -4853695.63347  -3754136.52743  24086654.8444                   24086655.9884
 -23761373.71548 -18482751.75445  21938798.4614                   21938796.9964
 -20206547.75048 -15719976.92646  20950408.1564                   20950405.4494
 -12242038.68446  -9512329.15643  24247074.6484                   24247076.8014
 -12614265.03947  -9795969.78546  21859601.2344                   21859599.6804
 -18090101.34848 -14064595.33646  21264339.9614                   21264337.6564
 11  7 30  1 55 30.0000000  0  9G02G25G17G09G04G10G27G05G12
 -25348969.10548 -19720473.93747  20637780.6644                   20637776.2034
   1395034.18847   1119880.19944  23811331.4774                   23811332.2234
 -28161270.78547 -21909933.60244  23456251.8284                   23456249.9614
  -4804315.91046  -3715658.92243  24096051.3134                   24096052.0084
 -23716675.90648 -18447922.30945  21947304.2424                   21947302.6094
 -20234242.02048 -15741556.86346  20945137.8914                   20945135.6684
 -12210207.00046  -9487525.34443  24253133.0784                   24253134.9734
 -12734153.86347  -9889389.59846  21836787.0084                   21836785.9454
 -18172800.84048 -14129036.48846  21248602.7194                   21248599.9804
 11  7 30  1 56  0.0000000  0  9G02G25G17G09G04G10G27G05G12
 -25378700.82448 -19743641.51646  20632122.7274                   20632118.6884
   1266098.17647   1019410.58644  23786795.8444                   23786796.9414
 -28136368.30147 -21890529.08644  23460990.9924                   23460990.2664
  -4754830.89846  -3677099.26243  24105468.0704                   24105468.5274
 -23671849.30548 -18412992.48845  21955834.4534                   21955833.2814
 -20261293.28548 -15762635.75446  20939990.1254                   20939988.1994
 -12178352.93446  -9462704.09843  24259194.5084                   24259196.1994
 -12853690.93447  -9982535.31646  21814040.2114                   21814038.7424
 -18255011.19548 -14193096.49246  21232958.5554                   21232956.8714
 11  7 30  1 56 30.0000000  0  9G02G25G17G09G04G10G27G05G12
 -25408149.79748 -19766588.76647  20626518.9614                   20626514.9224
   1137398.47347    919125.08644  23762304.9144                   23762306.1884
 -28111295.58246 -21870991.92244  23465761.7194                   23465760.6764
  -4705247.74646  -3638463.10943  24114903.6884                   24114904.4774
 -23626899.85248 -18377966.94945  21964387.9384                   21964386.7504
 -20287705.69548 -15783216.83646  20934964.0394                   20934962.1294
 -12146483.28946  -9437870.68043  24265259.0784                   24265261.0824
 -12972877.93048 -10075408.24246  21791360.0164                   21791357.9064
 -18336734.22348 -14256776.75846  21217407.1884                   21217405.0704
 11  7 30  1 57  0.0000000  0  9G02G25G17G09G04G10G27G05G12
 -25437313.00848 -19789313.34846  20620969.4694                   20620964.8244
   1008941.70347    819028.91444  23737860.4384                   23737860.9414
 -28086048.33247 -21851318.73844  23470566.8204                   23470565.2424
  -4655565.82046  -3599749.99243  24124358.5084                   24124359.1374
 -23581825.23048 -18342843.87945  21972965.2504                   21972964.1024
 -20313475.41048 -15803297.10946  20930060.1724                   20930057.9184
 -12114596.66046  -9413024.03943  24271326.8674                   24271328.2974
 -13091707.70348 -10168002.83646  21768746.9844                   21768745.7774
 -18417963.91448 -14320072.60946  21201949.8204                   21201947.4494
 11  7 30  1 57 30.0000000  0  9G02G25G17G09G04G10G27G05G12
 -25466191.17248 -19811815.82047  20615473.7894                   20615469.5784
    880730.83647    719124.36344  23713462.7194                   23713463.2504
 -28060626.01247 -21831509.13744  23475404.0234                   23475402.4924
  -4605788.29746  -3560962.41044  24133830.0474                   24133831.8874
 -23536626.94948 -18307624.44545  21981566.1484                   21981565.0514
 -20338602.28948 -15822876.48046  20925278.6804                   20925276.6024
 -12082695.79346  -9388166.31243  24277398.1094                   24277399.0124
 -13210177.21148 -10260316.68046  21746203.0084                   21746201.9344
 -18498697.90648 -14382982.19146  21186586.6414                   21186583.9574
 11  7 30  1 58  0.0000000  0  9G02G25G17G09G04G10G27G05G12
 -25494788.52048 -19834099.46946  20610032.1174                   20610027.7814
    752766.01647    619411.54744  23689111.9844                   23689112.9694
 -28035030.58647 -21811564.65644  23480274.7734                   23480273.3484
  -4555921.04747  -3522104.87944  24143320.0704                   24143321.0274
 -23491309.64548 -18272312.27045  21990190.0634                   21990188.5084
 -20363088.72348 -15841956.80546  20920619.0004                   20920616.8484
 -12050785.64146  -9363301.34043  24283470.3984                   24283472.0664
 -13328286.22748 -10352349.62146  21723727.7034                   21723725.9064
 -18578937.10948 -14445506.23046  21171317.4924                   21171314.8134
 11  7 30  1 58 30.0000000  0  9G02G25G17G09G04G10G27G05G12
 -25523109.64548 -19856167.86346  20604642.8914                   20604638.8874
    625046.16447    519889.62944  23664807.4844                   23664808.4304
 -28009265.38347 -21791487.85944  23485177.6724                   23485176.7344
  -4505970.75446  -3483182.67244  24152825.7584                   24152826.8674
 -23445878.74648 -18236911.57445  21998835.6024                   21998833.7464
 -20386938.98048 -15860541.40646  20916080.5944                   20916077.9304
 -12018872.65246  -9338434.13743  24289543.6254                   24289544.2624
 -13446035.69948 -10444102.41446  21701320.3914                   21701318.6294
 -18658682.87148 -14507645.77746  21156142.3594                   21156139.5594
 11  7 30  1 59  0.0000000  0  9G02G25G17G09G04G10G27G05G12
 -25551152.94148 -19878019.78946  20599306.0784                   20599302.0594
    497576.68847    420562.82044  23640550.8364                   23640551.8984
 -27983327.34447 -21771276.40244  23490114.0314                   23490112.3404
  -4455938.27047  -3444196.39144  24162345.7974                   24162347.6094
 -23400333.20748 -18201421.54345  22007502.4064                   22007500.7974
 -20410150.70748 -15878628.44946  20911663.3754                   20911661.4734
 -11986956.81246  -9313564.75043  24295616.2504                   24295618.0554
 -13563420.45348 -10535571.01246  21678982.9924                   21678981.1684
 -18737930.93048 -14569397.50846  21141062.0864                   21141059.7664
 11  7 30  1 59 30.0000000  0  9G02G25G17G09G04G10G27G05G12
 -25578917.34448 -19899654.38746  20594022.8754                   20594018.1094
    370362.45347    321434.87544  23616342.7734                   23616343.3014
 -27957214.14547 -21750928.44544  23495083.2274                   23495081.3244
  -4405824.56247  -3405146.80144  24171882.1094                   24171884.1054
 -23354672.76648 -18165841.98845  22016191.4144                   22016189.6334
 -20432721.68748 -15896216.20346  20907368.3914                   20907366.2894
 -11955038.37946  -9288693.33243  24301690.4144                   24301692.4884
 -13680435.59048 -10626751.57446  21656715.5554                   21656713.9024
 -18816676.90248 -14630758.00446  21126077.2894                   21126074.6684
 11  7 30  2  0  0.0000000  0  9G02G25G17G09G04G10G27G05G12
 -25606409.51648 -19921076.86347  20588791.2424                   20588786.9224
    243400.32847    222503.40644  23592182.7194                   23592183.6764
 -27930930.94947 -21730448.04744  23500084.2194                   23500083.3834
  -4355638.60247  -3366040.93444  24181432.6024                   24181434.0124
 -23308905.03948 -18130178.82045  22024900.3364                   22024899.1374
 -20454658.03948 -15913309.44946  20903193.8834                   20903192.0554
 -11923125.96146  -9263826.58643  24307763.6724                   24307764.9734
 -13797084.10248 -10717646.46146  21634518.1254                   21634516.4384
 -18894924.82048 -14691730.39546  21111186.8914                   21111184.6454
 11  7 30  2  0 30.0000000  0  9G02G25G17G09G04G10G27G05G12
 -25633625.27048 -19942283.93046  20583612.1414                   20583608.1294
    116698.35547    123774.65644  23568072.2034                   23568073.1334
 -27904471.88747 -21709830.58644  23505119.7274                   23505118.2194
  -4305378.52047  -3326877.28944  24190996.6804                   24190998.3014
 -23263026.39848 -18094429.24645  22033631.1174                   22033629.4734
 -20475954.87548 -15929904.37946  20899141.4064                   20899139.4694
 -11891216.76246  -9238962.37143  24313835.5704                   24313837.5474
 -13913357.87148 -10808249.35246  21612391.9454                   21612390.1454
 -18972667.21148 -14752308.87946  21096393.1174                   21096390.6334
 11  7 30  2  1  0.0000000  0  9G02G25G17G09G04G10G27G05G12
 -25660569.83248 -19963279.69546  20578485.2114                   20578480.5314
     -9744.85247     25247.55944  23544010.4844                   23544012.1684
 -27877840.80947 -21689079.09444  23510187.1804                   23510185.4574
  -4255051.92247  -3287661.84044  24200573.7814                   24200575.0824
 -23217042.60247 -18058597.73445  22042381.3204                   22042379.7274
 -20496616.71548 -15946004.50046  20895209.4774                   20895207.3914
 -11859317.76646  -9214106.10243  24319905.4454                   24319907.1954
 -14029258.26648 -10898561.30546  21590336.7114                   21590334.7934
 -19049906.24248 -14812495.13346  21081695.2424                   21081692.5904
 11  7 30  2  1 30.0000000  0  9G02G25G17G09G04G10G27G05G12
 -25687244.15248 -19984064.88346  20573409.1884                   20573404.8634
   -135925.85947    -73075.24644  23519998.5944                   23519999.8444
 -27851036.38347 -21668192.53144  23515287.8914                   23515286.0234
  -4204661.08247  -3248396.31644  24210162.7114                   24210163.9734
 -23170954.78147 -18022685.16045  22051151.6334                   22051150.2344
 -20516643.06648 -15961609.43046  20891398.2664                   20891396.4774
 -11827430.69946  -9189259.12543  24325973.5474                   24325975.5474
 -14144781.92648 -10988579.69146  21568353.1804                   21568351.7114
 -19126639.66048 -14872287.40646  21067093.2814                   21067090.6724
 11  7 30  2  2  0.0000000  0  9G02G25G17G09G04G10G27G05G12
 -25713649.34448 -20004640.35246  20568384.2584                   20568379.7734
   -261842.34447   -171191.92244  23496037.7034                   23496038.4414
 -27824059.07447 -21647171.25044  23520421.9924                   23520419.2774
  -4154209.47347  -3209083.45744  24219763.7894                   24219764.3014
 -23124764.99647 -17986693.12945  22059941.2034                   22059939.8714
 -20536034.73048 -15976719.80946  20887708.4224                   20887706.4654
 -11795558.63746  -9164423.82444  24332038.7584                   24332040.6374
 -14259926.52348 -11078302.69946  21546441.7734                   21546440.2734
 -19202865.51648 -14931684.17646  21052587.5164                   21052585.1604
 11  7 30  2  2 30.0000000  0  9G02G25G17G09G04G10G27G05G12
 -25739781.11348 -20025002.76246  20563411.4384                   20563407.5744
   -387486.31247   -269096.25044  23472128.3054                   23472129.6214
 -27796902.87147 -21626010.57444  23525588.9064                   23525587.9414
  -4103695.09446  -3169721.68744  24229376.3204                   24229377.0664
 -23078469.53547 -17950618.76645  22068751.3594                   22068749.6564
 -20554786.63748 -15991331.67646  20884139.9064                   20884138.1214
 -11763698.93746  -9139598.16844  24338102.2814                   24338103.1094
 -14374683.93448 -11167724.01646  21524604.2734                   21524602.4654
 -19278576.74248 -14990679.93046  21038180.4304                   21038178.2774
 11  7 30  2  3  0.0000000  0  9G02G25G17G09G04G10G27G05G12
 -25765644.87548 -20045156.34846  20558489.9614                   20558485.2544
   -512859.34447   -366789.47744  23448271.4064                   23448271.8714
 -27769571.87147 -21604713.70344  23530789.5784                   23530788.4774
  -4053125.75446  -3130317.08243  24238999.2424                   24239000.8014
 -23032074.57847 -17914466.86745  22077579.6414                   22077578.6524
 -20572903.81248 -16005448.93446  20880692.5164                   20880690.3914
 -11731858.33646  -9114787.42243  24344160.7194                   24344162.5204
 -14489055.83648 -11256844.93746  21502840.1724                   21502838.4064
 -19353775.80948 -15049276.60546  21023870.8444                   21023867.8554
 11  7 30  2  3 30.0000000  0  9G02G25G17G09G04G10G27G05G12
 -25791241.96948 -20065102.13346  20553618.7194                   20553614.4924
   -637958.84847   -464269.54744  23424465.0084                   23424466.2194
 -27742065.59847 -21583280.23444  23536024.3984                   23536022.9694
  -4002504.59846  -3090872.11743  24248632.0784                   24248633.6134
 -22985581.87147 -17878238.78945  22086427.1254                   22086425.4104
 -20590386.61348 -16019071.88346  20877365.5554                   20877363.5664
 -11700039.68446  -9089993.72743  24350215.8054                   24350217.7034
 -14603039.66048 -11345663.45346  21481149.7814                   21481147.6414
 -19428460.99248 -15107472.84846  21009658.3914                   21009655.9964
 11  7 30  2  4  0.0000000  0  9G02G25G17G09G04G10G27G05G12
 -25816574.57448 -20084841.81646  20548798.1174                   20548793.8834
   -762783.14147   -561535.19944  23400711.8284                   23400712.8094
 -27714385.09847 -21561711.04744  23541291.6954                   23541289.9414
  -3951835.98846  -3051390.19143  24258274.0084                   24258275.5704
 -22938994.02347 -17841936.58645  22095291.6954                   22095290.9734
 -20607236.77348 -16032201.87146  20874159.2814                   20874157.3014
 -11668246.66446  -9065220.02043  24356265.9304                   24356267.9774
 -14716633.80148 -11434178.32446  21459533.2034                   21459531.3284
 -19502631.40248 -15165267.96946  20995544.5634                   20995542.0634
 11  7 30  2  4 30.0000000  0  9G02G25G17G09G04G10G27G05G12
 -25841641.82048 -20104374.72346  20544028.0474                   20544023.7504
   -887327.55947   -658582.76644  23377011.5864                   23377012.9614
 -27686527.95746 -21540004.16844  23546592.3524                   23546591.8094
  -3901121.09846  -3011872.17643  24267924.5084                   24267926.0164
 -22892310.90247 -17805560.13745  22104175.3834                   22104174.6604
 -20623452.87948 -16044837.78546  20871073.1644                   20871071.0594
 -11636480.03145  -9040466.87943  24362309.9614                   24362312.7894
 -14829833.72348 -11522386.00446  21437992.0084                   21437990.2774
 -19576283.78548 -15222659.42646  20981528.8984                   20981526.3714
 11  7 30  2  5  0.0000000  0  9G02G25G17G09G04G10G27G05G12
 -25866446.03548 -20123702.68446  20539308.0474                   20539303.9064
  -1011590.65247   -755411.12944  23353365.6564                   23353366.7504
 -27658494.75046 -21518160.12144  23551927.4064                   23551925.7304
  -3850364.12546  -2972321.37143  24277583.9614                   24277584.4304
 -22845535.23847 -17769111.58645  22113076.8054                   22113075.9844
 -20639036.88348 -16056981.15246  20868107.6804                   20868105.6254
 -11604743.68745  -9015737.36743  24368349.8134                   24368352.2734
 -14942638.32448 -11610285.65646  21416525.9384                   21416524.0594
 -19649417.21148 -15279646.50846  20967611.6804                   20967609.5204
 11  7 30  2  5 30.0000000  0  9G02G25G17G09G04G10G27G05G12
 -25890987.55548 -20142825.92646  20534637.7034                   20534633.7734
  -1135569.06647   -852017.66444  23329773.4144                   23329774.2464
 -27630284.53147 -21496178.15644  23557295.2344                   23557294.1914
  -3799567.94546  -2932739.99643  24287249.4924                   24287251.2974
 -22798668.21947 -17732591.84445  22121995.2344                   22121993.8674
 -20653988.68048 -16068631.88346  20865262.6024                   20865260.2704
 -11573039.42245  -8991032.81643  24374382.5234                   24374384.9804
 -15055043.83247 -11697874.32046  21395135.7034                   21395133.8954
 -19722029.42648 -15336227.44146  20953794.5474                   20953791.5394
 11  7 30  2  6  0.0000000  0  9G02G25G17G09G04G10G27G05G12
 -25915265.33248 -20161743.67247  20530018.0164                   20530013.5784
  -1259257.70747   -948398.40644  23306235.8754                   23306236.9264
 -27601894.80147 -21474056.26644  23562698.4534                   23562696.9104
  -3748733.46546  -2893128.80143  24296923.0634                   24296925.2384
 -22751708.94547 -17696000.20745  22130931.6484                   22130930.1054
 -20668306.29748 -16079788.44946  20862537.7974                   20862535.7974
 -11541367.31645  -8966353.35542  24380410.9694                   24380412.5664
 -15167045.30948 -11785148.15646  21373822.9224                   21373820.5824
 -19794116.07448 -15392398.84846  20940076.5314                   20940074.0514
 11  7 30  2  6 30.0000000  0  9G02G25G17G09G04G10G27G05G12
 -25939280.19148 -20180456.52346  20525448.0084                   20525443.7934
  -1382653.59447  -1044551.02344  23282754.4384                   23282755.2274
 -27573324.68446 -21451793.84044  23568134.0234                   23568133.1954
  -3697863.49246  -2853489.94543  24306603.7584                   24306605.6804
 -22704658.98447 -17659337.89845  22139884.7584                   22139883.4654
 -20681990.41847 -16090451.37546  20859933.9384                   20859931.7154
 -11509729.81646  -8941700.83243  24386431.5864                   24386433.0164
 -15278640.07448 -11872105.06246  21352586.9774                   21352585.0944
 -19865675.29748 -15448159.25846  20926459.4304                   20926456.8634
 11  7 30  2  7  0.0000000  0  9G02G25G17G09G04G10G27G05G12
 -25963037.25048 -20198968.50846  20520927.1484                   20520922.5554
  -1505757.95347  -1140476.50444  23259328.3984                   23259329.1914
 -27544577.98847 -21429393.82844  23573605.1024                   23573603.3634
  -3646965.02046  -2813828.86743  24316289.3754                   24316291.0904
 -22657523.84847 -17622609.22345  22148853.7274                   22148853.0204
 -20695045.38348 -16100624.07046  20857449.8134                   20857447.6954
 -11478133.41446  -8917080.35943  24392443.3284                   24392445.6024
 -15389829.44948 -11958746.08246  21331427.8134                   21331426.6454
 -19936709.17648 -15503510.32446  20912942.0234                   20912939.3204
 11  7 30  2  7 30.0000000  0  9G02G25G17G09G04G10G27G05G12
 -25986534.48448 -20217278.03946  20516456.0004                   20516451.5314
  -1628565.11347  -1236170.38744  23235959.0634                   23235960.3204
 -27515651.27747 -21406853.52044  23579109.9064                   23579108.6094
  -3596038.09846  -2774145.64543  24325980.8834                   24325981.8244
 -22610301.97747 -17585812.96545  22157840.1804                   22157839.0044
 -20707468.84448 -16110304.68046  20855085.6174                   20855083.2304
 -11446577.60246  -8892491.46143  24398448.8754                   24398450.1374
 -15500607.78548 -12045066.82846  21310347.8754                   21310345.8594
 -20007212.57048 -15558448.02746  20899525.5784                   20899523.0474
 11  7 30  2  8  0.0000000  0  8G02G25G17G09G04G10G05G12
 -26009777.05548 -20235389.12146  20512032.8984                   20512028.2704
  -1751076.32847  -1331633.67244  23212645.9694                   23212646.9614
 -27486548.48047 -21384176.02344  23584647.9694                   23584646.4884
  -3545090.06646  -2734445.99243  24335676.1644                   24335677.3284
 -22562998.96947 -17548953.49245  22166842.2114                   22166840.2074
 -20719265.73448 -16119497.04346  20852840.5314                   20852838.1524
 -15610976.64147 -12131068.49246  21289345.2664                   21289343.6054
 -20077188.69548 -15612974.87146  20886209.7344                   20886207.3054
 11  7 30  2  8 30.0000000  0  8G02G25G17G09G04G10G05G12
 -26032765.98848 -20253302.56246  20507658.3284                   20507653.8244
  -1873288.71547  -1426864.09044  23189389.1804                   23189390.1454
 -27457268.90647 -21361360.76244  23590219.8834                   23590217.5634
  -3494123.80146  -2694732.14143  24345374.2034                   24345375.8874
 -22515616.27047 -17512031.93445  22175857.8674                   22175857.1844
 -20730436.73048 -16128201.70746  20850714.8134                   20850712.6954
 -15720932.85948 -12216748.61746  21268421.1334                   21268419.2624
 -20146635.62148 -15667089.35546  20872994.2504                   20872991.7704
 11  7 30  2  9  0.0000000  0  8G02G25G17G09G04G10G05G12
 -26055493.71948 -20271012.47746  20503333.5554                   20503329.1524
  -1995190.85247  -1521852.77044  23166192.2734                   23166193.4494
 -27427803.25047 -21338400.54744  23595826.8984                   23595825.5124
  -3443133.64146  -2654999.61343  24355077.0864                   24355078.8954
 -22468146.96947 -17475042.88345  22184891.4144                   22184890.5554
 -20740973.87148 -16136412.44146  20848709.6724                   20848707.6564
 -15830465.63348 -12302098.78946  21247577.9614                   21247575.6764
 -20215542.71148 -15720783.18046  20859881.8984                   20859879.1024
 11  7 30  2  9 30.0000000  0  8G02G25G17G09G04G10G05G12
 -26077962.19148 -20288520.36746  20499057.4774                   20499053.5274
  -2116780.94547  -1616598.28144  23143054.0394                   23143055.3164
 -27398152.41447 -21315295.96944  23601468.3914                   23601467.6414
  -3392124.00446  -2615251.89543  24364785.3444                   24364785.6334
 -22420593.42247 -17437988.19545  22193940.8834                   22193939.3874
 -20750878.66448 -16144130.44946  20846824.6884                   20846822.6644
 -15939573.24648 -12387117.68046  21226815.2344                   21226813.4144
 -20283908.95748 -15774055.57046  20846872.3444                   20846869.3244
 11  7 30  2 10  0.0000000  0  8G02G25G17G09G04G10G05G12
 -26100175.37148 -20305829.33246  20494831.0004                   20494826.2624
  -2238059.18047  -1711100.79344  23119975.7664                   23119976.8754
 -27368318.96147 -21292049.14144  23607146.3674                   23607144.6254
  -3341100.86346  -2575493.69943  24374494.0474                   24374495.3874
 -22372959.98047 -17400871.23845  22203005.2504                   22203003.9024
 -20760155.00448 -16151358.75846  20845059.3524                   20845057.6844
 -16048256.14848 -12471805.60946  21206133.3054                   21206131.8164
 -20351736.03948 -15826907.82846  20833965.0234                   20833962.0354
 11  7 30  2 10 30.0000000  0  8G02G25G17G09G04G10G05G12
 -26122132.19148 -20322938.54746  20490652.4614                   20490647.7344
  -2359020.97347  -1805356.68744  23096957.6954                   23096958.5864
 -27338300.53946 -21268658.16044  23612858.3054                   23612857.3984
  -3290065.33246  -2535725.85943  24384206.0394                   24384207.5984
 -22325246.40647 -17363691.84845  22212084.8364                   22212083.6334
 -20768801.76648 -16158096.48846  20843413.8674                   20843411.9694
 -16156509.66448 -12556158.95746  21185533.5164                   21185531.7774
 -20419020.57048 -15879337.33246  20821161.1564                   20821158.1914
 11  7 30  2 11  0.0000000  0  8G02G25G17G09G04G10G05G12
 -26143834.41848 -20339849.36746  20486522.5164                   20486518.0004
  -2479663.87547  -1899364.10944  23074000.4844                   23074000.9184
 -27308097.38346 -21245123.23444  23618605.9694                   23618605.1174
  -3239020.73846  -2495950.91043  24393918.4534                   24393920.8634
 -22277454.30947 -17326451.25845  22221178.7894                   22221177.5594
 -20776820.33248 -16164344.71146  20841888.6174                   20841886.2544
 -16264331.54748 -12640175.96946  21165015.8594                   21165013.8204
 -20485760.89848 -15931342.77746  20808460.9224                   20808457.9264
 11  7 30  2 11 30.0000000  0  8G02G25G17G09G04G10G05G12
 -26165283.36748 -20356562.84046  20482440.9924                   20482436.9774
  -2599985.25447  -1993121.00845  23051104.0084                   23051104.6844
 -27277709.07446 -21221444.03144  23624388.7034                   23624386.6954
  -3187970.21546  -2456171.35943  24403633.9384                   24403635.5744
 -22229585.57847 -17289150.98045  22230288.8754                   22230286.7624
 -20784211.55948 -16170104.10246  20840482.1414                   20840479.9454
 -16371719.62548 -12723854.95346  21144580.5084                   21144578.5594
 -20551955.66048 -15982923.09446  20795864.3444                   20795861.5664
 11  7 30  2 12  0.0000000  0  8G02G25G17G09G04G10G05G12
 -26186486.34848 -20373084.63346  20478406.4224                   20478401.6914
  -2719988.81247  -2086630.24245  23028267.3914                   23028268.7894
 -27247141.84446 -21197625.45344  23630205.0704                   23630204.1054
  -3136923.16446  -2416394.52744  24413348.2894                   24413349.7814
 -22181647.76647 -17251796.82845  22239410.8284                   22239409.1484
 -20790982.78548 -16175380.37946  20839193.2034                   20839191.2424
 -16478677.77748 -12807198.93446  21124226.8674                   21124225.0944
 -20617609.80548 -16034082.16046  20783371.0164                   20783368.3404
 11  7 30  2 12 30.0000000  0  8G02G25G17G09G04G10G05G12
 -24632017.10548 -19161809.90246  20774212.1484                   20774207.5824
  -1264241.33247   -952281.52745  23305287.6804                   23305288.8444
 -25640969.75446 -19946062.77743  23935850.0554                   23935847.4884
  -1510458.05546  -1149019.18044  24722854.2664                   24722855.5234
 -20558217.66447 -15986786.38345  22548338.7584                   22548337.9574
 -19221708.25848 -14952569.04346  21137816.4844                   21137814.1454
 -15009773.21148 -11662597.93446  21403750.2114                   21403748.6604
 -19107292.61748 -14857211.61746  21070774.6334                   21070771.9494
 11  7 30  2 13  0.0000000  0  8G02G25G17G09G04G10G05G12
 -24652718.72748 -19177941.02746  20770272.6884                   20770268.4964
  -1383588.38747  -1045279.21145  23282576.4224                   23282577.2584
 -25610030.82446 -19921954.53543  23941737.0084                   23941735.6454
  -1459414.72747  -1109245.23844  24732567.5944                   24732568.7194
 -20510133.93747 -15949318.56645  22557488.9304                   22557487.8054
 -19227229.41048 -14956871.23446  21136765.7424                   21136763.9064
 -15115851.27048 -11745256.12546  21383564.0234                   21383562.0864
 -19171847.90648 -14907514.43446  21058490.3284                   21058487.6054
 11  7 30  2 13 30.0000000  0  8G02G25G17G09G04G10G05G12
 -24673177.15248 -19193882.65246  20766379.3284                   20766375.3164
  -1502609.31247  -1138022.76245  23259927.7034                   23259928.3914
 -25578911.68747 -19897705.80144  23947658.6884                   23947656.8444
  -1408384.00847  -1069481.13744  24742278.1024                   24742279.9494
 -20461985.28147 -15911800.16045  22566651.8134                   22566650.1454
 -19232133.25848 -14960692.40646  21135832.3054                   21135830.0354
 -15221491.68748 -11827573.30546  21363461.2194                   21363459.3794
 -19235857.91048 -14957392.34846  21046310.0634                   21046306.8364
 11  7 30  2 14  0.0000000  0  8G02G25G17G09G04G10G05G12
 -24693390.73048 -19209633.48446  20762532.7814                   20762528.6134
  -1621298.06247  -1230507.46945  23237342.0234                   23237343.0044
 -25547608.88746 -19873314.03944  23953616.2664                   23953613.9844
  -1357365.54346  -1029726.54743  24751986.9534                   24751988.5084
 -20413770.20747 -15874230.01645  22575826.8754                   22575825.7114
 -19236417.77047 -14964030.98046  21135017.0394                   21135015.0784
 -15326688.82447 -11909545.05946  21343443.1024                   21343441.1684
 -19299317.50848 -15006841.37546  21034233.7274                   21034231.1294
 11  7 30  2 14 30.0000000  0  8G02G25G17G09G04G10G05G12
 -24713368.16848 -19225200.32046  20758731.2114                   20758726.9844
  -1739659.85947  -1322737.41445  23214818.2664                   23214819.0274
 -25516130.02347 -19848785.04744  23959605.7274                   23959603.8674
  -1306370.27046   -989990.04343  24761690.6484                   24761692.6174
 -20365497.99647 -15836615.31245  22585012.2974                   22585010.9924
 -19240091.93748 -14966893.95346  21134318.1254                   21134316.1214
 -15431448.05148 -11991175.59446  21323507.8984                   21323505.8284
 -19362233.46148 -15055866.77746  21022260.9064                   21022258.4804
 11  7 30  2 15  0.0000000  0  8G02G25G17G09G04G10G05G12
 -24733104.18748 -19240579.02746  20754975.7664                   20754971.4494
  -1857685.89147  -1414705.71545  23192358.0004                   23192359.6684
 -25484468.65247 -19824113.82044  23965630.7814                   23965628.7664
  -1255394.90247   -950269.03943  24771390.6414                   24771393.4104
 -20317163.71947 -15798952.26245  22594210.3754                   22594209.1564
 -19243150.64148 -14969277.35246  21133735.9224                   21133734.1644
 -15535760.98448 -12072458.37146  21303657.9304                   21303656.0514
 -19424598.15648 -15104462.63346  21010393.3594                   21010390.6054
 11  7 30  2 15 30.0000000  0  8G02G25G17G09G04G10G05G12
 -24752600.89148 -19255771.26246  20751265.4534                   20751261.1094
  -1975374.07447  -1506410.76645  23169963.2894                   23169964.1484
 -25452625.38347 -19799300.86344  23971690.3204                   23971688.9454
  -1204443.46947   -910566.69544  24781087.4224                   24781089.2504
 -20268769.75047 -15761242.68745  22603419.6024                   22603418.0594
 -19245595.46948 -14971182.40246  21133270.6644                   21133268.2194
 -15639625.69548 -12153391.87546  21283893.2814                   21283891.2504
 -19486410.69948 -15152628.23846  20998630.8524                   20998628.2584
 11  7 30  2 16  0.0000000  0  8G02G25G17G09G04G10G05G12
 -24771856.60948 -19270775.70346  20747601.5234                   20747596.9884
  -2092718.97347  -1597848.33645  23147633.2664                   23147633.4694
 -25420596.88747 -19774343.56244  23977784.8984                   23977783.6604
  -1153515.96146   -870883.02743  24790778.8524                   24790780.3284
 -20220314.54347 -15723485.39545  22612640.2814                   22612638.3364
 -19247424.78148 -14972607.82446  21132922.2894                   21132920.3524
 -15743037.02048 -12233972.09446  21264214.6024                   21264212.4064
 -19547667.00048 -15200360.41046  20986974.0944                   20986971.6724
 11  7 30  2 16 30.0000000  0  8G02G25G17G09G04G10G05G12
 -24790877.16048 -19285596.89846  20743981.6884                   20743977.5634
  -2209722.70347  -1689020.06644  23125368.1024                   23125368.6954
 -25388387.82846 -19749245.59044  23983914.6094                   23983913.0744
  -1102620.46546   -831224.24243  24800464.0164                   24800465.7734
 -20171804.34847 -15685685.24245  22621871.1174                   22621870.0514
 -19248644.58648 -14973558.31646  21132690.6024                   21132688.5744
 -15845997.71148 -12314201.16846  21244621.5554                   21244619.6134
 -19608370.23048 -15247661.61346  20975422.7424                   20975420.1054
 11  7 30  2 17  0.0000000  0  8G02G25G17G09G04G10G05G12
 -24809659.21148 -19300232.25446  20740407.3284                   20740402.9414
  -2326378.15247  -1779920.41044  23103169.5944                   23103169.8054
 -25355993.41046 -19724003.17244  23990078.7584                   23990077.3634
  -1051755.38346   -791589.19943  24810142.9454                   24810144.6524
 -20123236.08647 -15647839.85544  22631113.6024                   22631112.1134
 -19249251.63348 -14974031.34446  21132574.8754                   21132573.1684
 -15948500.75048 -12394073.62546  21225115.7114                   21225114.3094
 -19668514.97348 -15294527.62546  20963977.2734                   20963974.5274
 11  7 30  2 17 30.0000000  0  8G02G25G17G09G04G10G05G12
 -24828203.93448 -19314682.68046  20736878.8444                   20736874.1724
  -2442682.96947  -1870547.52345  23081037.3284                   23081037.6454
 -25323413.80546 -19698616.48844  23996278.5864                   23996277.7464
  -1000923.83246   -751980.26643  24819815.5944                   24819817.8524
 -20074611.60547 -15609950.66844  22640366.1414                   22640364.5824
 -19249247.57448 -14974028.16446  21132575.3984                   21132573.4804
 -16050543.86348 -12473587.70346  21205697.8054                   21205695.8674
 -19728100.32448 -15340957.75046  20952639.1024                   20952635.9024
 11  7 30  2 18  0.0000000  0  8G02G25G17G09G04G10G05G12
 -24846513.21948 -19328949.64146  20733394.6254                   20733390.1684
  -2558635.04347  -1960899.77745  23058972.4304                   23058973.0944
 -25290649.43746 -19673085.78544  24002513.1724                   24002511.7894
   -950129.52046   -712400.36743  24829481.1174                   24829483.5044
 -20025932.75047 -15572019.10544  22649629.0634                   22649627.9884
 -19248634.00448 -14973550.05146  21132692.3834                   21132690.0044
 -16152125.75448 -12552742.37946  21186367.4614                   21186365.4534
 -19787125.30148 -15386951.22746  20941406.8674                   20941403.7544
 11  7 30  2 18 30.0000000  0  8G02G25G17G09G04G10G05G12
 -24864588.30548 -19343034.10946  20729954.8674                   20729950.9844
  -2674231.42247  -2050974.85245  23036974.8754                   23036976.1414
 -25257699.69146 -19647410.71944  24008783.0474                   24008782.9774
   -899375.13346   -672851.58243  24839139.4064                   24839142.1604
 -19977200.61747 -15534046.04744  22658903.1414                   22658902.0044
 -19247412.14148 -14972597.93746  21132924.7194                   21132922.8244
 -16253243.54348 -12631535.43446  21167125.0864                   21167123.3594
 -19845588.46948 -15432506.91846  20930281.4774                   20930278.3984
 11  7 30  2 19  0.0000000  0  8G02G25G17G09G04G10G05G12
 -24882429.89548 -19356936.63346  20726559.8914                   20726555.5124
  -2789469.99247  -2140771.11345  23015046.0394                   23015046.8054
 -25224564.94146 -19621591.43744  24015087.9924                   24015087.4414
   -848664.04746   -633336.53143  24848790.1334                   24848792.1724
 -19928416.97347 -15496032.82045  22668186.8674                   22668184.7974
 -19245583.72748 -14971173.18446  21133272.4534                   21133270.6764
 -16353895.80948 -12709965.72746  21147971.7734                   21147969.9064
 -19903488.97348 -15477624.18446  20919263.3674                   20919260.7074
 11  7 30  2 19 30.0000000  0  8G02G25G17G09G04G10G05G12
 -24900043.16448 -19370661.25846  20723208.0704                   20723203.8244
  -2904351.80947  -2230289.38345  22993184.2194                   22993184.9144
 -25191248.71546 -19595630.76244  24021428.5704                   24021427.6214
   -798003.04746   -593860.49643  24858430.7274                   24858432.7504
 -19879587.12947 -15457983.60944  22677478.6954                   22677477.2664
 -19243153.97348 -14969279.86746  21133735.1804                   21133732.8204
 -16454083.65648 -12788034.14846  21128906.7894                   21128904.8554
 -19960829.46148 -15522305.06246  20908351.8524                   20908348.9884
 11  7 30  2 20  0.0000000  0  8G02G25G17G09G04G10G05G12
 -24917426.42248 -19384206.63746  20719900.1024                   20719896.1604
  -3018871.38347  -2319525.38345  22971392.4924                   22971393.3914
 -25157748.03146 -19569526.34844  24027803.9694                   24027802.8444
   -747392.21946   -554423.54343  24868061.3054                   24868063.5984
 -19830709.49247 -15419897.14545  22686779.7194                   22686778.2504
 -19240121.19548 -14966916.64846  21134312.4614                   21134309.9964
 -16553802.16448 -12865736.84846  21109930.6954                   21109928.9804
 -20017605.46548 -15566546.09446  20897547.5164                   20897545.0314
 11  7 30  2 20 30.0000000  0  8G02G25G17G09G04G10G05G12
 -24934581.61748 -19397574.32046  20716636.0704                   20716631.5434
  -3133026.79747  -2408477.61345  22949669.4384                   22949669.8524
 -25124063.25446 -19543278.50443  24034212.8834                   24034212.1954
   -696835.17646   -515028.49643  24877682.1724                   24877683.7974
 -19781785.82447 -15381774.81645  22696089.8754                   22696088.1054
 -19236487.52048 -14964085.20746  21135003.8444                   21135001.8404
 -16653049.97748 -12943072.76646  21091044.8054                   21091042.5514
 -20073816.78548 -15610347.10546  20886850.9384                   20886848.3984
 11  7 30  2 21  0.0000000  0  8G02G25G17G09G04G10G05G12
 -24951505.28548 -19410761.59046  20713414.9384                   20713410.9264
  -3246811.10247  -2497140.66845  22928016.5784                   22928017.4964
 -25090189.93046 -19516883.73444  24040659.7114                   24040658.1884
   -646330.50046   -475674.28943  24887292.8444                   24887294.9024
 -19732813.72347 -15343614.71945  22705408.5234                   22705407.0704
 -19232250.23448 -14960783.41446  21135810.2194                   21135808.2384
 -16751820.22348 -13020036.56246  21072249.2424                   21072247.0784
 -20129458.07848 -15653703.94946  20876262.8134                   20876260.0744
 11  7 30  2 21 30.0000000  0  7G02G25G17G04G10G05G12
 -24968205.95748 -19423775.08646  20710237.3204                   20710233.2424
  -3360229.02047  -2585518.22745  22906434.0234                   22906434.5514
 -25056135.26346 -19490347.62244  24047140.1804                   24047138.6484
 -19683801.35547 -15305423.29744  22714735.0394                   22714733.8204
 -19227417.95347 -14957017.98846  21136729.7664                   21136727.9494
 -16850118.14148 -13096632.30146  21053543.8444                   21053541.4104
 -20184535.50848 -15696621.41446  20865781.9844                   20865779.6054
 11  7 30  2 22  0.0000000  0  7G02G25G17G04G10G05G12
 -24984677.28148 -19436609.87546  20707102.8444                   20707098.7504
  -3473270.32447  -2673602.32445  22884923.2344                   22884924.1134
 -25021891.47746 -19463664.17244  24053655.9304                   24053655.0984
 -19634742.32447 -15267195.49644  22724070.9144                   22724069.7234
 -19221984.50848 -14952784.12946  21137763.6094                   21137761.0234
 -16947934.18048 -13172852.57046  21034929.8284                   21034927.4414
 -20239040.14848 -15739092.54746  20855409.9144                   20855407.0944
 11  7 30  2 22 30.0000000  0  7G02G25G17G04G10G05G12
 -25000925.85248 -19449271.08646  20704010.7034                   20704006.4964
  -3585938.27047  -2761395.50045  22863482.9614                   22863483.6914
 -24987464.25046 -19436837.76244  24060208.0084                   24060205.9804
 -19585644.13747 -15228937.16444  22733413.5634                   22733412.9344
 -19215957.49648 -14948087.73846  21138910.5394                   21138908.6054
 -17045271.82448 -13248700.05146  21016407.1334                   21016404.9884
 -20292976.78948 -15781121.08646  20845146.4774                   20845143.3714
 11  7 30  2 23  0.0000000  0  7G02G25G17G04G10G05G12
 -25016944.84848 -19461753.40246  20700962.2034                   20700958.4104
  -3698222.08248  -2848889.34845  22842115.9534                   22842116.6484
 -24952845.02047 -19409861.73844  24066795.8914                   24066793.8364
 -19536499.58647 -15190642.74244  22742766.0944                   22742764.3244
 -19209329.66048 -14942923.19146  21140171.9304                   21140169.4384
 -17142120.71948 -13324166.68446  20997977.4064                   20997975.6254
 -20346336.28148 -15822699.91046  20834992.2974                   20834989.4804
 11  7 30  2 23 30.0000000  0  7G02G25G17G04G10G05G12
 -25032739.60948 -19474061.00046  20697956.9844                   20697952.6994
  -3810123.57448  -2936085.28145  22820821.8204                   22820822.3984
 -24918038.30146 -19382739.58643  24073418.6414                   24073416.6254
 -19487314.67647 -15152316.84044  22752125.7424                   22752124.0824
 -19202107.51648 -14937295.53146  21141546.1724                   21141544.2504
 -17238483.18048 -13399254.28946  20979640.4064                   20979637.8284
 -20399122.36748 -15863831.91846  20824947.5634                   20824944.7894
 11  7 30  2 24  0.0000000  0  7G02G25G17G04G10G05G12
 -25048309.91048 -19486193.68446  20694994.0084                   20694989.3714
  -3921638.96947  -3022980.36345  22799600.9384                   22799601.7624
 -24883043.00046 -19355470.49243  24080078.0634                   24080077.2234
 -19438089.27747 -15113959.41444  22761492.6484                   22761490.9844
 -19194291.21948 -14931204.89146  21143033.1334                   21143030.8324
 -17334356.05948 -13473960.39546  20961396.0704                   20961394.1374
 -20451332.57848 -15904515.19546  20815012.3984                   20815009.7074
 11  7 30  2 24 30.0000000  0  7G02G25G17G04G10G05G12
 -25063660.27048 -19498154.99246  20692072.6254                   20692068.0514
  -4032768.51248  -3109574.78545  22778453.5704                   22778454.7894
 -24847861.44146 -19328056.30543  24086773.8754                   24086771.7424
 -19388827.63747 -15075573.72344  22770866.9304                   22770865.2034
 -19185885.47748 -14924654.95346  21144632.4694                   21144630.4614
 -17429740.10248 -13548285.58646  20943245.4144                   20943243.2974
 -20502968.51248 -15944750.97346  20805186.2584                   20805183.7854
 11  7 30  2 25  0.0000000  0  7G02G25G17G04G10G05G12
 -25078794.64848 -19509948.00446  20689192.6334                   20689188.3834
  -4143513.12547  -3195869.26245  22757379.8054                   22757380.3364
 -24812497.11346 -19300499.64843  24093502.8524                   24093500.8484
 -19339534.29747 -15037163.33244  22780246.9844                   22780245.9414
 -19176894.97348 -14917649.35246  21146343.9614                   21146341.6134
 -17524636.82848 -13622231.05946  20925186.8754                   20925184.8244
 -20554032.84048 -15984541.35546  20795468.8524                   20795466.4964
 11  7 30  2 25 30.0000000  0  7G02G25G17G04G10G05G12
 -25093710.74248 -19521570.93046  20686354.3364                   20686349.9844
  -4253866.87548  -3281859.15645  22736379.9304                   22736380.5744
 -24776946.55946 -19272797.95344  24100268.2814                   24100266.1094
 -19290207.16847 -14998726.64545  22789634.3134                   22789632.9304
 -19167317.81248 -14910186.62946  21148166.0084                   21148163.9654
 -17619040.44148 -13695792.28946  20907222.6024                   20907220.4844
 -20604521.27348 -16023883.00046  20785861.4224                   20785858.9024
 11  7 30  2 26  0.0000000  0  7G02G25G17G04G10G05G12
 -25108412.37948 -19533026.73446  20683556.8134                   20683552.5664
  -4363829.92247  -3367544.60545  22715454.6094                   22715455.4534
 -24741212.45346 -19244953.16444  24107067.3284                   24107066.9384
 -19240850.30947 -14960266.75044  22799026.3834                   22799025.0084
 -19157158.53948 -14902270.30546  21150099.3834                   21150097.2274
 -17712951.83648 -13768969.96546  20889351.7814                   20889349.2974
 -20654435.37548 -16062777.09846  20776363.0314                   20776360.4964
 11  7 30  2 26 30.0000000  0  7G02G25G17G04G10G05G12
 -25122897.27048 -19544313.64846  20680800.3284                   20680795.9804
  -4473396.18447  -3452920.86345  22694604.7974                   22694605.3674
 -24705290.85946 -19216962.32444  24113903.3364                   24113902.3054
 -19191461.16447 -14921781.73044  22808424.3444                   22808423.0704
 -19146415.53948 -14893899.12546  21152143.8134                   21152141.7114
 -17806365.37948 -13841759.70346  20871575.4384                   20871573.1214
 -20703771.05548 -16101220.48046  20766975.0004                   20766972.3954
 11  7 30  2 27  0.0000000  0  7G02G25G17G04G10G05G12
 -25137164.19548 -19555430.71946  20678085.3054                   20678080.9734
  -4582560.63747  -3537984.03145  22673831.5164                   22673832.2154
 -24669179.41846 -19188823.57043  24120774.3674                   24120773.9804
 -19142038.71147 -14883270.71544  22817829.6954                   22817828.2544
 -19135087.70348 -14885072.22346  21154299.3364                   21154297.3634
 -17899276.68748 -13914158.09846  20853895.0084                   20853892.6644
 -20752524.57048 -16139210.21946  20757697.1484                   20757694.5664
 11  7 30  2 27 30.0000000  0  7G02G25G17G04G10G05G12
 -25151218.08648 -19566381.78546  20675410.9384                   20675406.8634
  -4691324.75447  -3622735.25445  22653134.6414                   22653135.2344
 -24632882.12146 -19160539.98843  24127682.5944                   24127681.0904
 -19092588.03547 -14844737.73444  22827238.8984                   22827238.4304
 -19123180.96948 -14875794.24646  21156565.4534                   21156563.1024
 -17991687.77748 -13986166.70746  20836309.8834                   20836307.8094
 -20800699.54348 -16176749.15646  20748529.9614                   20748527.4224
 11  7 30  2 28  0.0000000  0  7G02G25G17G04G10G05G12
 -25165056.36348 -19577164.84846  20672777.9304                   20672773.5394
  -4799682.64547  -3707169.94945  22632514.1334                   22632515.6094
 -24596395.50846 -19132108.89843  24134625.3204                   24134624.6524
 -19043106.90247 -14806181.03144  22836655.6254                   22836654.0664
 -19110693.64148 -14866063.84046  21158941.2344                   21158939.5824
 -18083593.40248 -14057781.44546  20818820.4774                   20818818.5944
 -20848291.75048 -16213833.99246  20739473.6254                   20739470.8204
 11  7 30  2 28 30.0000000  0  7G02G25G17G04G10G05G12
 -25178688.22348 -19587787.06246  20670183.4844                   20670179.1524
  -4907639.54747  -3791292.17645  22611970.8914                   22611971.5634
 -24559727.18746 -19103536.20744  24141603.0704                   24141602.1374
 -18993604.36747 -14767607.62944  22846075.5314                   22846074.0664
 -19097635.23448 -14855888.45745  21161426.2664                   21161424.1094
 -18174999.31648 -14129006.80546  20801426.8674                   20801424.9574
 -20895307.82448 -16250469.88346  20730526.4454                   20730524.1724
 11  7 30  2 29  0.0000000  0  7G02G25G17G04G10G05G12
 -25192112.09848 -19598247.21946  20667629.3524                   20667624.6884
  -5015190.43747  -3875098.01245  22591504.7424                   22591506.0234
 -24522874.74647 -19074820.06644  24148616.6564                   24148614.9614
 -18944079.10247 -14729016.49244  22855499.3914                   22855498.5474
 -19084005.00847 -14845267.49246  21164020.1254                   21164017.9144
 -18265901.02048 -14199839.27046  20784128.6804                   20784126.7384
 -20941744.53148 -16286654.33246  20721690.1644                   20721687.2304
 11  7 30  2 29 30.0000000  0  7G02G25G17G04G10G05G12
 -25205328.40648 -19608545.62546  20665113.8054                   20665109.8134
  -5122332.55547  -3958585.33245  22571116.5004                   22571117.0084
 -24485837.71946 -19045960.07044  24155664.4924                   24155662.9414
 -18894531.64847 -14690408.10544  22864928.5164                   22864927.3244
 -19069804.77047 -14834202.37546  21166721.9774                   21166719.6334
 -18356296.35548 -14270277.16846  20766926.9144                   20766924.8094
 -20987600.89848 -16322386.55946  20712963.9064                   20712960.8954
 11  7 30  2 30  0.0000000  0  7G02G25G17G04G10G05G12
 -25218333.44948 -19618679.41446  20662639.1954                   20662634.7464
  -5229058.36747  -4041748.25845  22550807.1564                   22550807.5394
 -24448611.05546 -19016952.31244  24162747.9774                   24162747.2194
 -18844958.52747 -14651779.71544  22874362.1884                   22874361.1724
 -19055031.02347 -14822690.35946  21169533.6254                   21169531.6914
 -18446178.66848 -14340315.30546  20749823.0164                   20749821.0084
 -21032871.38348 -16357662.26246  20704349.2114                   20704346.5044
 11  7 30  2 30 30.0000000  0  7G02G25G17G04G10G05G12
 -25231132.79348 -19628652.92246  20660203.7584                   20660199.4264
  -5335369.91447  -4124588.40245  22530576.5634                   22530577.1484
 -24411199.01246 -18987800.09044  24169866.9064                   24169865.8014
 -18795365.47347 -14613135.75444  22883799.7034                   22883797.6454
 -19039690.07448 -14810736.37145  21172453.1254                   21172450.7114
 -18535550.44548 -14409955.62146  20732816.1484                   20732813.6804
 -21077559.60248 -16392484.24246  20695845.3834                   20695842.5474
 11  7 30  2 31  0.0000000  0  8G02G25G17G29G04G10G05G12
 -25243728.24248 -19638467.53546  20657806.9614                   20657802.4414
  -5441265.43747  -4207104.34445  22510425.3754                   22510426.0274
 -24373602.50847 -18958504.14544  24177022.4844                   24177020.3094
   9286639.85556   7271651.04353  24558106.9614                   24558106.4494
 -18745753.96147 -14574477.41844  22893239.6564                   22893239.1884
 -19023784.60547 -14798342.49646  21175479.4924                   21175477.2384
 -18624410.42248 -14479197.14146  20715906.6724                   20715904.4494
 -21121665.59848 -16426852.54346  20687452.1174                   20687449.2114
 11  7 30  2 31 30.0000000  0  8G02G25G17G29G04G10G05G12
 -25256122.25448 -19648125.20746  20655448.3914                   20655443.7974
  -5546743.97747  -4289295.37145  22490353.3444                   22490354.2154
 -24335823.00447 -18929065.56244  24184211.1564                   24184209.8244
   9173224.03946   7183275.14143  24536524.7034                   24536523.9264
 -18696126.61347 -14535806.77344  22902683.7894                   22902682.4844
 -19007318.07048 -14785511.43046  21178613.1174                   21178611.4024
 -18712758.37548 -14548039.68046  20699094.6884                   20699092.4064
 -21165190.22348 -16460767.82446  20679169.6094                   20679166.9494
 11  7 30  2 32  0.0000000  0  8G02G25G17G29G04G10G05G12
 -25268319.07048 -19657629.20746  20653127.3594                   20653123.0904
  -5651806.11747  -4371161.94545  22470360.7274                   22470361.2504
 -24297863.48047 -18899486.73444  24191434.7114                   24191433.1954
   9059738.77746   7094845.18043  24514928.1254                   24514928.5864
 -18646487.53947 -14497126.97744  22912129.7504                   22912128.9344
 -18990295.18748 -14772246.84046  21181852.6334                   21181849.9184
 -18800595.52348 -14616484.18446  20682379.5084                   20682377.5084
 -21208135.92648 -16494232.00046  20670997.1484                   20670994.5434
 11  7 30  2 32 30.0000000  0  8G02G25G17G29G04G10G05G12
 -25280322.49248 -19666982.50846  20650843.3444                   20650838.7624
  -5756452.32447  -4452704.41045  22450447.1094                   22450447.7624
 -24259726.80147 -18869769.83643  24198692.2034                   24198690.5744
   8946181.83246   7006359.26643  24493319.0864                   24493319.5824
 -18596840.96947 -14458441.34444  22921577.5704                   22921575.9694
 -18972720.86748 -14758552.55146  21185196.6644                   21185195.0434
 -18887923.01648 -14684531.55146  20665761.6644                   20665759.9414
 -21250504.53948 -16527246.50846  20662934.8754                   20662932.0434
 11  7 30  2 33  0.0000000  0  8G02G25G17G29G04G10G05G12
 -25292126.85248 -19676180.71146  20648596.9304                   20648592.3634
  -5860673.52747  -4533915.70345  22430614.7974                   22430615.0474
 -24221406.24647 -18839909.69943  24205984.2504                   24205982.7584
   8832560.26646   6917823.09843  24471698.2114                   24471698.4774
 -18547181.26647 -14419745.46544  22931026.9694                   22931026.1724
 -18954590.80548 -14744425.22746  21188646.7344                   21188644.7464
 -18974732.62948 -14752175.37146  20649242.3834                   20649240.2734
 -21292289.48048 -16559806.19146  20654983.3054                   20654980.8014
 11  7 30  2 33 30.0000000  0  8G02G25G17G29G04G10G05G12
 -25303734.15648 -19685225.34446  20646387.8834                   20646383.9224
  -5964468.08647  -4614794.54345  22410863.0084                   22410863.8594
 -24182902.85246 -18809907.04743  24213309.6804                   24213309.7384
   8718873.96145   6829236.42243  24450063.2974                   24450064.4104
 -18497510.42647 -14381040.93444  22940478.8284                   22940478.0124
 -18935907.41048 -14729866.73446  21192202.0004                   21192199.9924
 -19061023.07048 -14819414.64546  20632822.0394                   20632819.6414
 -21333491.05948 -16591911.31646  20647143.1644                   20647140.1644
 11  7 30  2 34  0.0000000  0  8G02G25G17G29G04G10G05G12
 -25315145.64548 -19694117.40246  20644216.6094                   20644212.2234
  -6067833.90247  -4695339.29345  22391193.1484                   22391193.6254
 -24144216.93446 -18779762.19143  24220673.1094                   24220670.9534
   8605123.10946   6740599.51643  24428417.7974                   24428418.1764
 -18447829.71547 -14342328.68744  22949932.6644                   22949931.3054
 -18916672.75048 -14714878.67646  21195862.3754                   21195860.2234
 -19146793.03548 -14886248.36346  20616500.2814                   20616498.0124
 -21374108.37548 -16623561.16446  20639413.6484                   20639411.0704
 11  7 30  2 34 30.0000000  0  8G02G25G17G29G04G10G05G12
 -25326364.61748 -19702859.44146  20642081.7274                   20642076.6604
  -6170770.86747  -4775549.88345  22371604.7894                   22371605.2344
 -24105350.52746 -18749476.66042  24228067.6954                   24228067.2074
   8491306.14146   6651911.05543  24406759.2584                   24406759.2304
 -18398142.31647 -14303611.24644  22959388.5394                   22959386.9144
 -18896891.43747 -14699464.66846  21199626.8834                   21199624.5234
 -19232043.18048 -14952677.01246  20600277.5944                   20600275.6844
 -21414143.81248 -16654757.60546  20631795.2424                   20631792.8484
 11  7 30  2 35  0.0000000  0  8G02G25G17G29G04G10G05G12
 -25337390.96948 -19711451.39846  20639983.4774                   20639979.3284
  -6273275.54347  -4855423.61345  22352098.8594                   22352099.3524
 -24066302.77046 -18719049.91042  24235499.4144                   24235497.5824
   8377424.59046   6563172.24243  24385088.1954                   24385087.8054
 -18348448.35947 -14264888.69944  22968845.0944                   22968843.1914
 -18876564.30547 -14683625.34846  21203494.3674                   21203492.6294
 -19316771.03548 -15018698.68446  20584154.3914                   20584152.5084
 -21453595.65648 -16685499.29346  20624287.9694                   20624284.7704
 11  7 30  2 35 30.0000000  0  8G02G25G17G29G04G10G05G12
 -25348218.60948 -19719888.49646  20637922.9224                   20637918.3164
  -6375338.30947  -4934953.00845  22332676.6254                   22332677.5554
 -24027066.34446 -18688476.02042  24242965.0234                   24242964.1294
   8263486.27046   6474389.24243  24363406.7424                   24363406.8204
 -18298741.60247 -14226156.15644  22978303.6954                   22978302.0904
 -18855686.18048 -14667356.68046  21207467.5474                   21207465.6024
 -19400967.62148 -15084306.37546  20568132.6334                   20568130.1604
 -21492456.19148 -16715780.22346  20616892.8674                   20616890.0274
 11  7 30  2 36  0.0000000  0  8G02G25G17G29G04G10G05G12
 -23783432.72748 -18500574.80146  20935691.7584                   20935687.4144
  -4901538.01647  -3786537.16045  22613131.6414                   22613132.2934
 -22412227.43446 -17430159.96143  24550259.1644                   24550257.5314
   9724910.99646   7613161.78944  24641506.5784                   24641506.5904
 -16673609.43447 -12959819.37944  23287555.8754                   23287554.4844
 -17258844.84847 -13423064.73446  21511336.3134                   21511334.4534
 -17909212.81248 -13921900.00846  20852003.5784                   20852001.5944
 -19955308.30948 -15518002.64846  20909402.3754                   20909399.6644
 11  7 30  2 36 30.0000000  0  8G02G25G17G29G04G10G05G12
 -23793872.34448 -18508709.56646  20933705.3284                   20933700.7974
  -5002716.80947  -3865377.74645  22593878.2194                   22593879.0044
 -22372621.10946 -17399297.88743  24557796.0314                   24557794.7584
   9610854.30546   7524286.50444  24619802.1884                   24619802.4304
 -16623887.05947 -12921074.69544  23297017.7274                   23297016.3444
 -17236878.47347 -13405948.06246  21515516.8984                   21515514.4804
 -17992348.21948 -13986680.80946  20836183.7894                   20836181.7624
 -19992991.98448 -15547366.53946  20902231.2814                   20902228.5634
 11  7 30  2 37  0.0000000  0  8G02G25G17G29G04G10G05G12
 -23804122.55548 -18516696.72746  20931754.4924                   20931750.3134
  -5103452.56247  -3943873.10245  22574708.5474                   22574709.3324
 -22332832.32046 -17368293.70343  24565367.3054                   24565366.3754
   9496736.66846   7435363.72344  24598085.9304                   24598086.3134
 -16574160.94147 -12882327.07444  23306480.0234                   23306479.2734
 -17214373.35247 -13388411.60245  21519799.2424                   21519797.2304
 -18074953.55548 -14051048.57446  20820464.7814                   20820462.6994
 -20030088.89548 -15576273.22346  20895172.0164                   20895169.2034
 11  7 30  2 37 30.0000000  0  8G02G25G17G29G04G10G05G12
 -23814180.71948 -18524534.25046  20929840.5554                   20929836.2504
  -5203739.72747  -4022018.91045  22555624.7194                   22555624.9414
 -22292857.93746 -17337144.82043  24572974.9694                   24572973.2894
   9382562.28546   7346396.70344  24576359.6724                   24576359.2304
 -16524428.68047 -12843574.67644  23315943.8054                   23315942.3524
 -17191328.44147 -13370454.53545  21524184.3754                   21524182.4654
 -18157023.69148 -14114999.29746  20804847.2034                   20804845.0864
 -20066595.85948 -15604720.19946  20888224.8834                   20888222.2544
 11  7 30  2 38  0.0000000  0  8G02G25G17G29G04G10G05G12
 -23824053.18448 -18532227.07446  20927961.8984                   20927957.6724
  -5303581.33248  -4099817.53945  22536625.5004                   22536626.3874
 -22252703.25046 -17305855.46544  24580615.9224                   24580613.9774
   9268326.21147   7257381.60544  24554621.7274                   24554621.5474
 -16474696.91447 -12804822.65644  23325407.4224                   23325405.8794
 -17167751.32447 -13352082.75846  21528670.8754                   21528668.7344
 -18238562.54748 -14178536.02746  20789330.9144                   20789328.4804
 -20102517.82848 -15632711.34046  20881389.0474                   20881386.5664
 11  7 30  2 38 30.0000000  0  8G02G25G17G29G04G10G05G12
 -23833741.80548 -18539776.63346  20926117.9774                   20926114.0204
  -5402975.87948  -4177267.80145  22517711.4844                   22517711.8404
 -22212369.18047 -17274426.31644  24588290.8444                   24588289.9304
   9154028.54347   7168318.49244  24532870.8054                   24532870.7424
 -16424967.33647 -12766072.33244  23334871.2814                   23334869.4144
 -17143644.75047 -13333298.41045  21533258.4534                   21533256.1914
 -18319569.36348 -14241658.19146  20773915.7274                   20773913.3554
 -20137855.17648 -15660246.93046  20874664.8284                   20874662.2384
 11  7 30  2 39  0.0000000  0  8G02G25G17G29G04G10G05G12
 -23843243.87148 -18547180.83646  20924309.9064                   20924305.0634
  -5501917.31247  -4254364.97745  22498883.0634                   22498884.3874
 -22171852.20347 -17242854.65644  24596001.2664                   24596000.1374
   9039673.52047   7079210.69544  24511110.1174                   24511109.5594
 -16375237.02046 -12727321.46944  23344333.9694                   23344333.0824
 -17119007.06647 -13314100.21945  21537946.7894                   21537944.4494
 -18400038.75048 -14304361.58246  20758602.5554                   20758600.1524
 -20172603.60548 -15687323.62146  20868052.3594                   20868049.5664
 11  7 30  2 39 30.0000000  0  8G02G25G17G29G04G10G05G12
 -23852561.47748 -18554441.30546  20922537.2274                   20922532.5044
  -5600404.75848  -4331108.39545  22480141.3524                   22480141.8634
 -22131153.95747 -17211141.70344  24603746.4144                   24603744.2544
   8925260.45747   6990057.66044  24489338.0314                   24489337.7584
 -16325508.29347 -12688571.81244  23353797.0704                   23353796.3954
 -17093841.88347 -13294490.97745  21542735.3204                   21542732.9494
 -18479971.00448 -14366646.42646  20743392.0314                   20743389.9924
 -20206764.68448 -15713942.64146  20861552.0634                   20861549.1484
 11  7 30  2 40  0.0000000  0  8G02G25G17G29G04G10G05G12
 -23861696.92248 -18561559.81646  20920798.7344                   20920793.8134
  -5698437.14847  -4407497.23845  22461486.4064                   22461487.1454
 -22090275.35247 -17179288.25844  24611524.7814                   24611523.8634
   8810788.98447   6900859.12943  24467554.7894                   24467554.7544
 -16275783.19946 -12649825.02344  23363259.6724                   23363258.8054
 -17068152.62547 -13274473.37545  21547623.4534                   21547621.7344
 -18559365.61748 -14428512.32446  20728283.7664                   20728281.5664
 -20240339.39848 -15740104.75846  20855162.8054                   20855159.9964
 11  7 30  2 40 30.0000000  0  7G02G25G29G04G10G05G12
 -23870645.48048 -18568532.70746  20919095.6564                   20919090.8014
  -5796006.30947  -4483525.11746  22442919.8284                   22442920.5474
   8696265.60546   6811620.16043  24445761.6024                   24445761.5784
 -16226056.96546 -12611077.32044  23372722.1484                   23372721.3874
 -17041935.86747 -13254044.73045  21552612.7894                   21552610.8204
 -18638215.24248 -14489953.56247  20713279.0634                   20713276.6254
 -20273321.50048 -15765805.09046  20848886.3984                   20848883.5354
 11  7 30  2 41  0.0000000  0  7G02G25G29G04G10G05G12
 -23879413.96948 -18575365.29746  20917427.0164                   20917422.3874
  -5893115.93747  -4559194.91845  22424440.2504                   22424440.8404
   8581685.18846   6722336.76643  24423957.3204                   24423957.7624
 -16176336.36747 -12572333.98844  23382182.8674                   23382182.6214
 -17015199.88347 -13233211.50845  21557700.6564                   21557698.2384
 -18716524.54348 -14550973.77346  20698377.2734                   20698374.8164
 -20305716.82048 -15791048.19546  20842721.9064                   20842718.8984
 11  7 30  2 41 30.0000000  0  7G02G25G29G04G10G05G12
 -23887996.70348 -18582053.12546  20915793.7274                   20915789.4804
  -5989757.17248  -4634499.74246  22406050.0554                   22406050.7344
   8467054.93046   6633014.52343  24402143.8594                   24402143.9414
 -16126615.89147 -12533590.78544  23391645.0784                   23391644.4454
 -16987939.71948 -13211969.81645  21562887.8754                   21562886.0904
 -18794285.16448 -14611566.43446  20683579.9924                   20683577.6884
 -20337518.63348 -15815828.82846  20836670.0554                   20836667.3364
 11  7 30  2 42  0.0000000  0  7G02G25G29G04G10G05G12
 -23896392.14148 -18588595.01646  20914196.3134                   20914191.5704
  -6085925.33647  -4709435.93745  22387749.6334                   22387750.5124
   8352378.04746   6543655.95743  24380321.7584                   24380321.1134
 -16076893.91447 -12494846.39844  23401107.2664                   23401105.6884
 -16960155.64147 -13190319.89845  21568175.0084                   21568173.1214
 -18871493.60548 -14671728.82847  20668887.7034                   20668885.4344
 -20368724.04348 -15840144.73446  20830731.9454                   20830729.5434
 11  7 30  2 42 30.0000000  0  7G02G25G29G04G10G05G12
 -23904605.31648 -18594994.89146  20912633.3984                   20912629.1094
  -6181622.44147  -4784005.06246  22369539.5084                   22369539.7384
   8237651.11346   6454258.34043  24358488.9224                   24358489.0944
 -16027175.45746 -12456104.75443  23410567.4454                   23410566.9184
 -16931854.22348 -13168266.85245  21573561.0004                   21573558.2304
 -18948152.65648 -14731463.11746  20654300.2114                   20654297.8404
 -20399337.65648 -15863999.49646  20824906.3284                   20824903.9224
 11  7 30  2 43  0.0000000  0  7G02G25G29G04G10G05G12
 -23912638.21148 -18601254.26646  20911104.7664                   20911100.2734
  -6276847.11748  -4858206.07046  22351418.7424                   22351418.7274
   8122873.85246   6364821.55943  24336648.2344                   24336648.2384
 -15977461.96947 -12417366.96144  23420028.4844                   23420027.4574
 -16903038.23847 -13145812.84045  21579044.1644                   21579041.9654
 -19024261.74648 -14790768.87546  20639816.8444                   20639814.5594
 -20429359.73448 -15887393.32846  20819193.4614                   20819190.6374
 11  7 30  2 43 30.0000000  0  7G02G25G29G04G10G05G12
 -23920492.09848 -18607374.17246  20909610.2274                   20909605.4224
  -6371597.53948  -4932037.53146  22333387.9844                   22333388.9844
   8008046.89146   6275346.06343  24314798.0164                   24314797.6804
 -15927754.95347 -12378634.22344  23429487.6954                   23429485.9804
 -16873710.62147 -13122960.15245  21584624.8834                   21584623.1094
 -19099819.99648 -14849645.41046  20625438.5784                   20625436.1954
 -20458790.91048 -15910326.71546  20813592.5084                   20813589.9384
 11  7 30  2 44  0.0000000  0  7G02G25G29G04G10G05G12
 -23928166.33648 -18613354.09046  20908149.7194                   20908145.6644
  -6465870.12948  -5005496.64846  22315449.0784                   22315449.6254
   7893172.37146   6185833.48443  24292937.4304                   24292937.7664
 -15878053.84046 -12339906.07444  23438944.5634                   23438943.6764
 -16843872.08247 -13099709.35245  21590303.1954                   21590301.0314
 -19174824.86348 -14908090.73046  20611165.6334                   20611163.3524
 -20487629.71948 -15932798.50846  20808105.0704                   20808102.3324
 11  7 30  2 44 30.0000000  0  7G02G25G29G04G10G05G12
 -23935666.04748 -18619198.00446  20906722.6334                   20906718.1804
  -6559666.66848  -5078584.82446  22297600.1414                   22297600.4774
   7778247.36746   6096281.59843  24271068.5864                   24271068.5594
 -15828363.51247 -12301186.34443  23448400.8204                   23448399.3484
 -16813528.91447 -13076065.32445  21596076.9614                   21596075.0124
 -19249278.59448 -14966106.59847  20596997.5474                   20596995.3524
 -20515880.05148 -15954811.75446  20802729.0554                   20802726.4024
 11  7 30  2 45  0.0000000  0  7G02G25G29G04G10G05G12
 -23942991.59048 -18624906.21546  20905328.6724                   20905323.8164
  -6652984.54748  -5151300.01646  22279841.9224                   22279842.1054
   7663273.00446   6006691.24644  24249189.3674                   24249189.4344
 -15778684.18046 -12262475.19544  23457854.6254                   23457853.6024
 -16782682.94547 -13052029.51645  21601947.0554                   21601944.7624
 -19323179.75848 -15023691.89146  20582934.7274                   20582932.2734
 -20543541.33648 -15976366.01246  20797465.3284                   20797462.6484
 11  7 30  2 45 30.0000000  0  7G02G25G29G04G10G05G12
 -23950140.74648 -18630476.98846  20903968.1094                   20903964.0084
  -6745818.46948  -5223638.10246  22262176.3834                   22262176.8954
   7548252.95346   5917065.23844  24227301.9614                   24227301.7584
 -15729013.58246 -12223770.83644  23467306.7894                   23467305.6414
 -16751333.29747 -13027601.21945  21607912.7894                   21607910.6094
 -19396523.95348 -15080843.18746  20568977.6024                   20568975.4024
 -20570610.80948 -15997459.10546  20792313.9224                   20792311.3284
 11  7 30  2 46  0.0000000  0  7G02G25G29G04G10G05G12
 -23957117.27348 -18635913.22746  20902640.5634                   20902636.4024
  -6838169.17248  -5295599.64846  22244602.3364                   22244602.7384
   7433185.35246   5827402.21544  24205404.9614                   24205404.9224
 -15679355.35246 -12185076.10544  23476755.5864                   23476754.9774
 -16719485.44547 -13002784.71545  21613973.5704                   21613971.4534
 -19469312.79748 -15137561.73446  20555126.3754                   20555123.9384
 -20597091.48448 -16018093.39546  20787274.7974                   20787272.5234
 11  7 30  2 46 30.0000000  0  7G02G25G29G04G10G05G12
 -23963919.63748 -18641213.77346  20901345.9694                   20901341.1644
  -6930032.20348  -5367181.20346  22227121.3914                   22227122.0664
   7318073.12547   5737704.41044  24183499.5164                   24183500.3484
 -15629708.08646 -12146389.93044  23486203.1334                   23486202.3364
 -16687139.57047 -12977580.13345  21620128.3134                   21620126.3714
 -19541542.71948 -15193844.76247  20541381.5864                   20541379.1094
 -20622980.38348 -16038266.56246  20782348.3204                   20782345.8554
 11  7 30  2 47  0.0000000  0  7G02G25G29G04G10G05G12
 -23970555.62148 -18646384.66446  20900082.9384                   20900078.9104
  -7021412.36348  -5438386.50046  22209732.4224                   22209733.6254
   7202911.00847   5647967.74644  24161585.3134                   24161585.2344
 -15580079.12147 -12107718.02744  23495647.8754                   23495646.7734
 -16654304.84047 -12951994.63345  21626376.5554                   21626374.0664
 -19613219.47748 -15249696.75846  20527741.6724                   20527739.6454
 -20648285.09848 -16057984.52046  20777533.0784                   20777530.8094
 11  7 30  2 47 30.0000000  0  7G02G25G29G04G10G05G12
 -23977019.01648 -18651421.06646  20898853.5554                   20898848.7854
  -7112300.33248  -5509208.26646  22192437.0234                   22192438.1844
   7087706.97747   5558198.40644  24139662.6954                   24139662.3134
 -15530462.25847 -12069055.53944  23505089.5944                   23505088.4344
 -16620976.56647 -12926024.53545  21632718.4454                   21632716.3874
 -19684334.93448 -15305111.37546  20514208.9304                   20514206.7854
 -20672998.56648 -16077241.77346  20772830.2584                   20772827.9614
 11  7 30  2 48  0.0000000  0  7G02G25G29G04G10G05G12
 -23983312.45748 -18656325.04346  20897655.8364                   20897651.2894
  -7202695.82848  -5579646.28546  22175235.1174                   22175235.9804
   6972459.53147   5468395.26644  24117731.7814                   24117731.3914
 -15480859.90247 -12030404.34444  23514528.5944                   23514527.6994
 -16587158.65247 -12899672.91445  21639154.1724                   21639151.9264
 -19754889.27048 -15360088.75047  20500782.5784                   20500780.6254
 -20697122.51248 -16096039.65246  20768239.6804                   20768237.0864
 11  7 30  2 48 30.0000000  0  7G02G25G29G04G10G05G12
 -23989439.45748 -18661099.33246  20896489.8284                   20896485.1294
  -7292599.65648  -5649701.18446  22158127.0394                   22158127.7464
   6857166.81647   5378556.85544  24095792.5004                   24095791.9304
 -15431275.74247 -11991767.33644  23523964.6254                   23523963.1684
 -16552856.41847 -12872943.90645  21645681.6334                   21645679.8244
 -19824884.72348 -15414630.64546  20487463.2504                   20487460.7814
 -20720660.15648 -16114380.67646  20763760.5634                   20763758.0554
 11  7 30  2 49  0.0000000  0  7G02G25G29G04G10G05G12
 -23995398.18448 -18665742.48046  20895355.6024                   20895351.3834
  -7382006.79748  -5719369.04746  22141113.2974                   22141113.7934
   6741832.81346   5288686.28944  24073845.1954                   24073844.5594
 -15381707.52047 -11953142.76244  23533397.0164                   23533395.5594
 -16518069.57048 -12845837.26645  21652301.5944                   21652298.8594
 -19894317.05148 -15468733.73046  20474250.6954                   20474248.2624
 -20743608.70748 -16132262.66046  20759393.9534                   20759391.2704
 11  7 30  2 49 30.0000000  0  7G02G25G29G04G10G05G12
 -24001192.21548 -18670257.30946  20894253.2344                   20894249.0594
  -7470918.10548  -5788650.55546  22124194.2344                   22124194.3594
   6626455.61346   5198782.06644  24051889.7894                   24051888.9964
 -15332158.83246 -11914533.39844  23542825.8674                   23542824.7664
 -16482803.20747 -12818356.98845  21659012.4614                   21659010.1334
 -19963187.97348 -15522399.35946  20461144.7584                   20461142.3754
 -20765971.07448 -16149687.88346  20755138.7344                   20755135.5554
 11  7 30  2 50  0.0000000  0  7G02G25G29G04G10G05G12
 -24006824.28548 -18674645.93746  20893182.0004                   20893177.3874
  -7559333.59448  -5857545.69946  22107368.9844                   22107369.1174
   6511034.07846   5108843.30543  24029924.4534                   24029923.5124
 -15282632.36346 -11875941.34444  23552250.1024                   23552248.6454
 -16447061.78147 -12790506.52045  21665813.4064                   21665811.5864
 -20031498.81648 -15575628.57047  20448145.8834                   20448143.6054
 -20787749.70748 -16166658.25046  20750993.9144                   20750991.4024
 11  7 30  2 50 30.0000000  0  7G02G25G29G04G10G05G12
 -24012292.35248 -18678906.76246  20892140.7664                   20892136.0234
  -7647248.11748  -5926050.50046  22090639.7274                   22090639.8444
   6395572.09446   5018872.98043  24007952.4774                   24007952.3594
 -15233125.87946 -11837364.90643  23561671.3134                   23561669.5744
 -16410844.67647 -12762285.39845  21672705.5634                   21672703.4384
 -20099245.29348 -15628418.00846  20435254.1334                   20435251.5044
 -20808941.81648 -16183171.59046  20746961.2194                   20746958.5124
 11  7 30  2 51  0.0000000  0  7G02G25G29G04G10G05G12
 -24017592.16448 -18683036.48846  20891132.4384                   20891127.9964
  -7734654.58248  -5994159.40246  22074006.8594                   22074007.3054
   6280076.06646   4928876.11743  23985975.3054                   23985974.6914
 -15183634.75846 -11798800.38343  23571088.5314                   23571087.4734
 -16374149.48047 -12733691.75045  21679688.3834                   21679686.3834
 -20166421.10548 -15680762.77047  20422470.9844                   20422468.5514
 -20829542.64848 -16199224.18746  20743041.0004                   20743038.7384
 11  7 30  2 51 30.0000000  0  7G02G25G29G04G10G05G12
 -24022729.40248 -18687039.52346  20890155.1174                   20890150.3364
  -7821556.09448  -6061874.83246  22057470.1414                   22057470.1294
   6164541.65646   4838849.36743  23963989.2114                   23963989.3404
 -15134164.79346 -11760252.34443  23580502.1954                   23580500.9614
 -16336983.61747 -12704731.34045  21686760.8594                   21686758.6884
 -20233030.58248 -15732666.23447  20409795.6884                   20409792.7074
 -20849557.44548 -16214820.13346  20739232.4844                   20739229.7814
 11  7 30  2 52  0.0000000  0  7G02G25G29G04G10G05G12
 -24027706.01648 -18690917.39846  20889207.8594                   20889203.5274
  -7907951.91448  -6129196.21946  22041028.9534                   22041029.7194
   6048968.62146   4748792.50043  23941996.3914                   23941996.6564
 -15084717.76146 -11721722.22743  23589911.3984                   23589911.3134
 -16299350.42247 -12675406.78145  21693922.3204                   21693920.0944
 -20299073.81648 -15784128.47747  20397227.9144                   20397225.4414
 -20868987.69948 -16229960.59446  20735534.8834                   20735532.5204
 11  7 30  2 52 30.0000000  0  7G02G25G29G04G10G05G12
 -24032527.74648 -18694674.57846  20888290.6564                   20888285.7114
  -7993844.71548  -6196125.64546  22024683.9924                   22024684.5354
   5933353.36346   4658702.78144  23919995.5784                   23919995.9224
 -15035299.15246 -11683214.22743  23599316.3594                   23599314.7034
 -16261257.56247 -12645724.02745  21701171.0634                   21701168.5354
 -20364554.61348 -15835152.45347  20384766.8754                   20384764.8014
 -20887838.92648 -16244649.86346  20731947.6414                   20731945.2664
 11  7 30  2 53  0.0000000  0  7G02G25G29G04G10G05G12
 -24037188.56648 -18698306.38346  20887403.3364                   20887398.9534
  -8079225.84448  -6262656.35546  22008436.9304                   22008437.6094
   5817703.61747   4568586.17244  23897988.5234                   23897987.7154
 -14985902.80547 -11644723.55143  23608716.0864                   23608714.6764
 -16222700.73047 -12615679.73045  21708508.2814                   21708505.6524
 -20429465.35948 -15885732.22347  20372415.2424                   20372413.1914
 -20906104.19948 -16258882.53946  20728471.8444                   20728469.1644
 11  7 30  2 53 30.0000000  0  7G02G25G29G04G10G05G12
 -24041694.38748 -18701817.39546  20886546.0234                   20886541.4574
  -8164098.66448  -6328790.99246  21992286.1414                   21992286.3874
   5702015.10547   4478439.34444  23875973.2584                   23875972.8754
 -14936534.61747 -11606254.89143  23618111.1254                   23618109.3874
 -16183687.77747 -12585280.02345  21715931.7034                   21715929.4534
 -20493810.41048 -15935871.20347  20360170.6094                   20360168.3594
 -20923789.20748 -16272663.06646  20725106.7344                   20725103.9414
 11  7 30  2 54  0.0000000  0  7G02G25G29G04G10G05G12
 -24046042.38748 -18705205.44546  20885718.4304                   20885714.2384
  -8248457.60948  -6394525.20746  21976232.9774                   21976233.5474
   5586292.43847   4388265.88344  23853952.4534                   23853951.5514
 -14887191.50847 -11567805.70344  23627500.1724                   23627499.3014
 -16144217.34047 -12554523.84045  21723443.1174                   21723440.8404
 -20557585.14548 -15985565.77747  20348034.9384                   20348032.2464
 -20940891.29748 -16285989.37146  20721852.4534                   20721849.8284
 11  7 30  2 54 30.0000000  0  7G02G25G29G04G10G05G12
 -24050233.30548 -18708471.09046  20884921.1644                   20884916.8164
  -8332300.83648  -6459857.55146  21960278.1334                   21960278.6174
   5470536.63746   4298066.64544  23831924.1954                   23831924.3364
 -14837873.98046 -11529376.49244  23636884.3444                   23636883.6254
 -16104291.93047 -12523413.12145  21731040.6724                   21731038.4494
 -20620788.76648 -16034815.32847  20336007.6414                   20336004.8834
 -20957410.89148 -16298861.78546  20718708.4844                   20718705.8014
 11  7 30  2 55  0.0000000  0  7G02G25G29G04G10G05G12
 -24054265.14148 -18711612.77346  20884153.9924                   20884149.4304
  -8415623.59448  -6524784.35246  21944422.5164                   21944422.4454
   5354751.59447   4207844.61344  23809891.1484                   23809890.7304
 -14788579.92647 -11490965.53544  23646264.8674                   23646263.8984
 -16063911.30147 -12491947.70745  21738724.9304                   21738722.7544
 -20683418.08648 -16083617.37146  20324089.6804                   20324086.8834
 -20973345.23448 -16311278.16446  20715676.1094                   20715673.8754
 11  7 30  2 55 30.0000000  0  7G02G25G29G04G10G05G12
 -24058143.98448 -18714635.24246  20883415.7194                   20883411.4614
  -8498429.45748  -6589308.37146  21928665.1094                   21928665.5204
   5238933.06647   4117596.48844  23787851.3284                   23787851.5944
 -14739315.25447 -11452577.49644  23655640.3914                   23655639.4534
 -16023083.45747 -12460133.80145  21746494.0234                   21746491.6524
 -20745477.25448 -16131975.13347  20312279.9534                   20312277.4024
 -20988700.50048 -16323243.30946  20712753.7584                   20712751.6994
 11  7 30  2 56  0.0000000  0  7G02G25G29G04G10G05G12
 -24061867.50448 -18717536.68746  20882707.0704                   20882702.5354
  -8580713.37548  -6653425.68746  21913006.6954                   21913007.1174
   5123085.35247   4027325.59444  23765806.9454                   23765805.8284
 -14690077.42647 -11414210.38344  23665010.2274                   23665008.7584
 -15981807.95747 -12427971.07845  21754348.7504                   21754346.5554
 -20806962.04348 -16179885.33247  20300579.9224                   20300577.1024
 -21003473.60948 -16334754.82846  20709943.0394                   20709940.7384
 11  7 30  2 56 30.0000000  0  7G02G25G29G04G10G05G12
 -24065435.78548 -18720317.16046  20882028.1564                   20882023.9924
  -8662472.61748  -6717134.16046  21897448.4384                   21897448.7114
   5007210.31647   3937033.43444  23743756.2034                   23743756.0164
 -14640866.09446 -11375863.92643  23674373.6174                   23674373.7814
 -15940086.27347 -12395460.68445  21762288.0784                   21762285.8324
 -20867871.14848 -16227346.94147  20288989.0314                   20288986.6684
 -21017664.61348 -16345812.75846  20707242.7584                   20707240.2734
 11  7 30  2 57  0.0000000  0  7G02G25G29G04G10G05G12
 -24068852.80948 -18722979.77046  20881377.7114                   20881373.4024
  -8743709.16448  -6780435.34046  21881989.6564                   21881989.9924
   4891305.68447   3846718.24244  23721699.8914                   23721699.9104
 -14591685.52346 -11337541.39543  23683732.8834                   23683731.6134
 -15897924.52047 -12362607.37945  21770310.9454                   21770308.8134
 -20928207.78948 -16274362.48447  20277507.4614                   20277504.6254
 -21031277.93048 -16356420.53946  20704652.1954                   20704649.5514
 11  7 30  2 57 30.0000000  0  7G02G25G29G04G10G05G12
 -24072117.61348 -18725523.75046  20880756.8054                   20880752.1604
  -8824419.58648  -6843326.54746  21866631.1024                   21866631.3674
   4775373.73047   3756381.72344  23699638.8674                   23699638.2464
 -14542534.59046 -11299242.00844  23693086.4924                   23693085.1054
 -15855323.75047 -12329411.97745  21778417.3364                   21778415.3404
 -20987969.32448 -16320929.89147  20266135.3984                   20266132.4184
 -21044312.52348 -16366577.36346  20702171.7274                   20702168.8484
 11  7 30  2 58  0.0000000  0  7G02G25G29G04G10G05G12
 -24075235.69948 -18727953.42246  20880163.3984                   20880158.9104
  -8904606.66448  -6905809.96146  21851371.6254                   21851372.3204
   4659411.23447   3666021.41044  23677572.0394                   23677571.1644
 -14493418.40246 -11260969.69143  23702432.7584                   23702431.5904
 -15812291.35247 -12295880.23445  21786606.4534                   21786604.2504
 -21047159.68048 -16367052.21947  20254871.4304                   20254869.3364
 -21056772.69148 -16376286.59046  20699800.5784                   20699798.2274
 11  7 30  2 58 30.0000000  0  7G02G25G29G04G10G05G12
 -24078201.05948 -18730264.07446  20879598.8834                   20879594.4654
  -8984261.70348  -6967878.78546  21836213.9064                   21836214.3094
   4543426.16046   3575643.50844  23655500.6954                   23655500.6844
 -14444330.31646 -11222719.27343  23711774.1564                   23711772.0394
 -15768822.95347 -12262008.75845  21794878.3984                   21794876.4384
 -21105771.16448 -16412723.47347  20243718.2274                   20243715.4574
 -21068653.70748 -16385544.52346  20697539.9614                   20697537.1054
 11  7 30  2 59  0.0000000  0  7G02G25G29G04G10G05G12
 -24081020.08648 -18732460.71546  20879062.3834                   20879057.9804
  -9063389.00848  -7029536.40246  21821156.5164                   21821156.7774
   4427413.49246   3485244.12144  23633424.0084                   23633423.5554
 -14395277.07646 -11184495.99943  23721108.0084                   23721107.5554
 -15724927.14147 -12227804.22745  21803231.1414                   21803228.6054
 -21163809.30548 -16457947.98447  20232673.8524                   20232671.0864
 -21079961.66448 -16394355.92646  20695388.2504                   20695385.6454
 11  7 30  2 59 30.0000000  0  7G02G25G29G04G10G05G12
 -24083692.53148 -18734543.13346  20878553.9924                   20878549.6054
  -9141985.87948  -7090780.69546  21806200.2504                   21806200.0004
   4311375.53546   3394825.02344  23611341.9844                   23611342.4144
 -14346258.32846 -11146299.59843  23730436.7194                   23730435.6484
 -15680605.21947 -12193267.66845  21811665.3984                   21811662.9964
 -21221272.67648 -16502724.60947  20221738.9924                   20221736.3524
 -21090696.27048 -16402720.55946  20693345.3134                   20693342.5434
 11  7 30  3  0  0.0000000  0  7G02G25G29G04G10G05G12
 -22510797.38348 -17508910.53946  21177866.0314                   21177861.4064
  -7644626.23848  -5924006.92246  22091138.0164                   22091138.4844
   5770739.19147   4531991.60244  23889050.0864                   23889049.7274
 -12721854.07446  -9880530.07843  24039550.9384                   24039548.9694
 -14060439.80547 -10930801.10245  22119972.2814                   22119970.6764
 -19702736.64548 -15319449.75847  20510706.3594                   20510704.3094
 -19525435.89848 -15183037.15646  20991204.4694                   20991201.7734
 11  7 30  3  0 30.0000000  0  7G02G25G29G04G10G05G12
 -22513174.59448 -17510762.90246  21177413.6724                   21177409.2234
  -7722152.84048  -5984417.23046  22076385.0084                   22076385.4574
   5654658.49247   4441539.19944  23866960.2814                   23866960.4384
 -12672900.96546  -9842384.78143  24048865.9614                   24048864.4384
 -14015269.91447 -10895603.79745  22128568.3134                   22128566.1884
 -19759044.15248 -15363325.71147  20499991.5634                   20499989.1254
 -19535021.25448 -15190506.26646  20989380.2734                   20989377.7934
 11  7 30  3  1  0.0000000  0  7G02G25G29G04G10G05G12
 -22515410.33648 -17512505.03146  21176988.0864                   21176983.5594
  -7799147.04348  -6044412.69146  22061733.5944                   22061734.0234
   5538553.03547   4351067.51644  23844866.8364                   23844866.3794
 -12623986.53946  -9804269.68743  24058173.7274                   24058173.1684
 -13969685.12547 -10860083.17645  22137242.6724                   22137240.3204
 -19814778.18748 -15406754.80147  20489386.0164                   20489383.4144
 -19544038.32448 -15197532.55946  20987664.3674                   20987662.1644
 11  7 30  3  1 30.0000000  0  7G02G25G29G04G10G05G12
 -22517499.68448 -17514133.07846  21176590.3914                   21176585.8284
  -7875601.60248  -6103987.66046  22047184.8284                   22047185.0124
   5422429.25447   4260581.53944  23822769.5234                   23822769.1954
 -12575105.78546  -9766180.74643  24067476.5784                   24067474.4694
 -13923682.22747 -10824236.76645  22145996.6954                   22145994.9414
 -19869932.41448 -15449732.10247  20478890.5234                   20478888.0204
 -19552482.48448 -15204112.43446  20986057.3834                   20986054.9224
 11  7 30  3  2  0.0000000  0  7G02G25G29G04G10G05G12
 -22519445.06248 -17515648.96146  21176220.2814                   21176216.1294
  -7951516.81248  -6163142.34846  22032739.0004                   22032738.8674
   5306286.90247   4170081.05544  23800668.3834                   23800667.3834
 -12526261.12946  -9728120.04343  24076770.1254                   24076769.2584
 -13877265.99647 -10788068.28545  22154829.4844                   22154827.3404
 -19924508.35548 -15492258.78947  20468504.6954                   20468502.3714
 -19560356.60548 -15210248.12146  20984558.9224                   20984556.6414
 11  7 30  3  2 30.0000000  0  7G02G25G29G04G10G05G12
 -22521245.49648 -17517051.87946  21175877.7504                   21175873.5354
  -8026889.17648  -6221874.03946  22018396.0084                   22018395.9414
   5190128.82047   4079568.32844  23778563.6024                   23778562.5864
 -12477450.98046  -9690086.16443  24086058.2274                   24086057.9654
 -13830437.26647 -10751578.36745  22163740.9844                   22163738.9304
 -19978503.71148 -15534333.06247  20458230.0784                   20458227.3244
 -19567659.55948 -15215938.74646  20983169.6804                   20983166.8014
 11  7 30  3  3  0.0000000  0  7G02G25G29G04G10G05G12
 -22522904.14148 -17518344.31646  21175562.1804                   21175557.6334
  -8101719.87148  -6280183.64146  22004155.8364                   22004156.2974
   5073953.58647   3989042.23844  23756456.5554                   23756455.5744
 -12428678.43746  -9652081.60543  24095340.6024                   24095339.0514
 -13783201.25047 -10714771.09445  22172729.4924                   22172727.8284
 -20031920.88348 -15575956.80947  20448065.1254                   20448062.6334
 -19574394.76248 -15221186.96546  20981887.6334                   20981885.1414
 11  7 30  3  3 30.0000000  0  7G02G25G29G04G10G05G12
 -22524420.69948 -17519526.04346  21175273.2974                   21175269.4024
  -8176006.36748  -6338069.20746  21990020.1334                   21990020.1844
   4957763.67247   3898504.71944  23734345.8134                   23734345.1374
 -12379943.04746  -9614106.03943  24104613.3524                   24104613.4384
 -13735559.94947 -10677648.00845  22181795.2814                   22181793.5354
 -20084758.50048 -15617128.95747  20438010.0234                   20438007.8014
 -19580562.55148 -15225993.03546  20980714.0004                   20980711.5744
 11  7 30  3  4  0.0000000  0  7G02G25G29G04G10G05G12
 -22525798.20348 -17520599.41046  21175011.3444                   21175007.1844
  -8249749.19548  -6395531.12946  21975986.8594                   21975987.2504
   4841557.89147   3807954.80944  23712232.5474                   23712231.3444
 -12331247.20746  -9576161.27343  24113879.5394                   24113879.3954
 -13687517.90247 -10640212.64545  22190937.1414                   22190935.6804
 -20137018.22748 -15657850.80147  20428065.8134                   20428063.1844
 -19586165.27348 -15230358.80946  20979648.1724                   20979645.1844
 11  7 30  3  4 30.0000000  0  7G02G25G29G04G10G05G12
 -22527033.48848 -17521561.96946  21174776.3364                   21174771.6604
  -8322943.14548  -6452565.35946  21962058.6174                   21962058.6024
   4725341.28947   3717396.46544  23690117.6254                   23690116.2894
 -12282587.69146  -9538244.80543  24123140.8204                   24123139.2544
 -13639074.16847 -10602464.29745  22200155.7034                   22200153.4224
 -20188695.68748 -15698118.92647  20418231.5004                   20418228.9064
 -19591200.86748 -15234282.64846  20978689.8204                   20978687.0084
 11  7 30  3  5  0.0000000  0  7G02G25G29G04G10G05G12
 -22528126.25848 -17522413.46946  21174568.1094                   21174563.7424
  -8395586.31248  -6509170.40246  21948234.8914                   21948235.2664
   4609115.56347   3626831.02044  23668000.2114                   23667999.7194
 -12233964.42246  -9500356.64143  24132392.7344                   24132392.5204
 -13590230.66047 -10564404.41445  22209450.7734                   22209448.3364
 -20239790.17248 -15737932.78947  20408508.9064                   20408506.6454
 -19595669.71548 -15237764.87946  20977839.3364                   20977836.9574
 11  7 30  3  5 30.0000000  0  7G02G25G29G04G10G05G12
 -22529082.48848 -17523158.58246  21174386.0234                   21174381.9804
  -8467682.56648  -6565349.30146  21934515.4064                   21934515.5274
   4492876.68847   3536255.34044  23645880.9924                   23645880.1994
 -12185383.24246  -9462501.18743  24141637.3834                   24141636.9614
 -13540995.77747 -10526039.57845  22218819.5634                   22218817.8014
 -20290307.22348 -15777296.70347  20398895.6484                   20398893.0784
 -19599577.95748 -15240810.27346  20977095.7664                   20977092.8094
 11  7 30  3  6  0.0000000  0  7G02G25G29G04G10G05G12
 -22529898.55548 -17523794.47346  21174231.0314                   21174226.4264
  -8539225.70348  -6621097.17646  21920901.4064                   21920901.5634
   4376630.62147   3445674.05144  23623759.9614                   23623758.9884
 -12136839.60546  -9424675.02343  24150875.7974                   24150873.9924
 -13491367.22347 -10487367.99245  22228263.3914                   22228261.8284
 -20340241.30948 -15816206.35947  20389393.3284                   20389391.0744
 -19602922.01648 -15243416.03946  20976459.5084                   20976456.5164
 11  7 30  3  6 30.0000000  0  7G02G25G29G04G10G05G12
 -22530579.28548 -17524324.90246  21174101.6884                   21174097.4924
  -8610218.69148  -6676416.36346  21907391.6174                   21907391.7074
   4260374.38747   3355084.84844  23601637.1094                   23601635.9104
 -12088338.41446  -9386881.93743  24160104.5554                   24160104.5554
 -13441352.25047 -10448395.28945  22237780.9694                   22237779.3484
 -20389596.85948 -15854665.20747  20380001.1334                   20379998.8364
 -19605707.20348 -15245586.32446  20975929.4534                   20975926.1334
 11  7 30  3  7  0.0000000  0  7G02G25G29G04G10G05G12
 -22531124.43048 -17524749.68046  21173998.0704                   21173993.0314
  -8680659.19948  -6731305.05146  21893987.4454                   21893987.7154
   4144110.22747   3264489.44144  23579512.2344                   23579511.6954
 -12039878.96146  -9349121.36743  24169325.7894                   24169324.7544
 -13390952.61747 -10409122.85945  22247371.5704                   22247369.8714
 -20438372.39548 -15892672.09447  20370719.6024                   20370717.1914
 -19607933.93448 -15247321.44146  20975505.5554                   20975502.9774
 11  7 30  3  7 30.0000000  0  7G02G25G29G04G10G05G12
 -22531532.37548 -17525067.56246  21173919.8444                   21173915.8484
  -8750544.00848  -6785760.73046  21880688.9774                   21880688.9494
   4027841.08647   3173890.17644  23557387.1644                   23557386.3554
 -11991459.78147  -9311392.17644  24178540.6484                   24178539.7114
 -13340169.29347 -10369551.44545  22257035.6884                   22257033.9534
 -20486566.27748 -15930225.74647  20361548.6484                   20361546.2584
 -19609601.30948 -15248620.71146  20975188.5394                   20975185.8284
 11  7 30  3  8  0.0000000  0  7G02G25G29G04G10G05G12
 -22531802.57848 -17525278.09446  21173868.3524                   21173864.0234
  -8819870.57848  -6839781.40646  21867496.5554                   21867496.4414
   3911569.70347   3083289.17244  23535261.2194                   23535260.6414
 -11943080.02046  -9273693.70343  24187746.2894                   24187745.5314
 -13289003.73447 -10329682.19145  22266772.0004                   22266770.2704
 -20534176.87548 -15967324.89847  20352488.6804                   20352486.3954
 -19610709.27348 -15249484.07046  20974977.3914                   20974974.9614
 11  7 30  3  8 30.0000000  0  7G02G25G29G04G10G05G12
 -22531937.91048 -17525383.53946  21173842.8284                   21173838.0514
  -8888639.72348  -6893367.73446  21854410.2584                   21854409.9104
   3795295.07047   2992685.64144  23513134.4774                   23513134.3444
 -11894742.35247  -9236027.94143  24196945.4614                   24196943.6414
 -13237460.62947 -10289518.73445  22276580.6804                   22276578.6724
 -20581206.29748 -16003971.17247  20343539.3284                   20343536.8634
 -19611260.89148 -15249913.90646  20974872.5084                   20974869.8204
 11  7 30  3  9  0.0000000  0  7G02G25G29G04G10G05G12
 -22531937.27748 -17525383.03946  21173843.0394                   21173838.8364
  -8956848.41848  -6946517.36346  21841430.5234                   21841430.6054
   3679020.32046   2902082.00044  23491008.5704                   23491007.5784
 -11846445.19546  -9198393.84443  24206135.6954                   24206134.5864
 -13185541.15247 -10249062.01245  22286460.5944                   22286458.2194
 -20627652.48848 -16040162.98847  20334700.9064                   20334697.9344
 -19611256.00048 -15249910.10546  20974873.4064                   20974870.5204
 11  7 30  3  9 30.0000000  0  7G02G25G29G04G10G05G12
 -22531804.32448 -17525279.43746  21173868.2504                   21173864.1484
  -9024498.50848  -6999231.69946  21828556.9694                   21828557.5314
   3562743.83646   2811477.02744  23468881.4844                   23468880.9734
 -11798192.01647  -9160793.90243  24215318.0084                   24215316.4534
 -13133251.06247 -10208316.48445  22296410.4384                   22296409.3754
 -20673518.71148 -16075902.87947  20325972.6094                   20325970.2234
 -19610699.05948 -15249476.13346  20974979.1954                   20974976.5984
 11  7 30  3 10  0.0000000  0  7G02G25G29G04G10G05G12
 -22531538.82448 -17525072.54746  21173918.8594                   21173914.0354
  -9091587.90648  -7051509.14846  21815789.9144                   21815790.5004
   3446467.71947   2720872.31644  23446754.9454                   23446754.5084
 -11749982.37147  -9123227.96143  24224491.6414                   24224490.7664
 -13080592.16447 -10167283.58245  22306431.4614                   22306429.1484
 -20718804.10548 -16111190.18047  20317355.2664                   20317352.6804
 -19609590.23048 -15248612.12546  20975190.5704                   20975188.0084
 11  7 30  3 10 30.0000000  0  7G02G25G29G04G10G05G12
 -22531143.44548 -17524764.45746  21173994.0394                   21173989.7194
  -9158117.72348  -7103350.53946  21803130.1334                   21803130.4574
   3330191.03947   2630267.19944  23424628.4614                   23424627.0634
 -11701818.78546  -9085697.86743  24233656.7894                   24233655.4964
 -13027569.80147 -10125967.45744  22316521.6174                   22316518.9924
 -20763510.69548 -16146026.46147  20308848.1024                   20308845.3094
 -19607932.98048 -15247320.76646  20975505.5004                   20975503.4024
 11  7 30  3 11  0.0000000  0  7G02G25G29G04G10G05G12
 -22530616.09448 -17524353.52346  21174094.6334                   21174089.4964
  -9224083.70748  -7154752.59046  21790577.1644                   21790577.0354
   3213918.13347   2539665.00444  23402502.4454                   23402501.5124
 -11653698.66446  -9048201.74243  24242814.1254                   24242812.7734
 -12974183.58647 -10084367.81244  22326680.3364                   22326678.2934
 -20807635.45748 -16180409.37547  20300451.1564                   20300448.3164
 -19605725.59448 -15245600.73046  20975925.8834                   20975923.0434
 11  7 30  3 11 30.0000000  0  7G02G25G29G04G10G05G12
 -22529959.92248 -17523842.22746  21174219.2034                   21174214.8794
  -9289487.64148  -7205716.68046  21778130.9844                   21778131.3984
   3097647.23847   2449064.37144  23380377.0164                   23380376.0824
 -11605625.13746  -9010741.84843  24251961.7814                   24251961.3484
 -12920439.45347 -10042489.27344  22336908.1564                   22336905.5554
 -20851181.86348 -16214341.61747  20292164.7114                   20292162.0984
 -19602972.11748 -15243455.18046  20976450.0314                   20976447.4264
 11  7 30  3 12  0.0000000  0  7G02G25G29G04G10G05G12
 -22529178.12948 -17523233.02746  21174368.2344                   21174363.3984
  -9354331.06248  -7256244.00446  21765791.8364                   21765791.9614
   2981377.25447   2358464.43444  23358251.3674                   23358250.0904
 -11557601.21146  -8973320.59843  24261100.5784                   24261100.4264
 -12866342.55147 -10000335.85544  22347202.6724                   22347199.9104
 -20894152.10248 -16247824.89847  20283987.4774                   20283985.1724
 -19599677.26648 -15240887.77346  20977076.9384                   20977074.0394
 11  7 30  3 12 30.0000000  0  7G02G25G29G04G10G05G12
 -22528268.07848 -17522523.89546  21174540.9534                   21174536.7814
  -9418609.36748  -7306330.97746  21753559.8134                   21753559.9884
   2865113.07847   2267869.02044  23336126.7504                   23336125.6414
 -11509623.73046  -8935935.69142  24270230.1094                   24270230.0354
 -12811892.37947  -9957907.13345  22357563.1174                   22357561.7814
 -20936542.79748 -16280856.59047  20275920.7424                   20275917.9844
 -19595838.59448 -15237896.60946  20977807.5084                   20977804.9774
 11  7 30  3 13  0.0000000  0  7G02G25G29G04G10G05G12
 -22527225.33248 -17521711.35546  21174739.6484                   21174735.3634
  -9482316.59448  -7355972.96946  21741436.9694                   21741437.4144
   2748860.77347   2177282.85544  23314004.6884                   23314003.5314
 -11461688.30146  -8898583.41443  24279352.4454                   24279351.7624
 -12757086.80947  -9915201.50044  22367992.0634                   22367990.8244
 -20978349.46948 -16313433.19547  20267965.2194                   20267962.6094
 -19591452.65248 -15234479.00046  20978642.0554                   20978639.4064
 11  7 30  3 13 30.0000000  0  7G02G25G29G04G10G05G12
 -22526056.13748 -17520800.28946  21174961.8204                   21174957.4144
  -9545457.29348  -7405173.50046  21729421.7894                   21729421.7384
   2632616.26247   2086702.78544  23291884.3444                   23291882.9414
 -11413800.52045  -8861268.31243  24288465.3284                   24288464.5704
 -12701934.37947  -9872225.59845  22378487.3674                   22378485.7274
 -21019577.76248 -16345559.11747  20260119.7974                   20260117.1564
 -19586526.18448 -15230640.19946  20979579.3754                   20979576.7424
 11  7 30  3 14  0.0000000  0  7G02G25G29G04G10G05G12
 -22524758.65648 -17519789.25846  21175208.9064                   21175204.3794
  -9608028.15248  -7453930.00846  21717514.6564                   21717515.0704
   2516383.25847   1996131.66444  23269765.5554                   23269763.7814
 -11365958.68746  -8823988.93443  24297569.0634                   24297568.4104
 -12646435.27047  -9828979.55545  22389049.1334                   22389046.9224
 -21060225.46948 -16377232.64547  20252384.7114                   20252382.4184
 -19581058.54348 -15226379.70746  20980619.6804                   20980617.9184
 11  7 30  3 14 30.0000000  0  8G02G25G26G29G04G10G05G12
 -22523331.45348 -17518677.15246  21175480.9304                   21175476.1484
  -9670026.30148  -7502240.23846  21705716.8284                   21705717.2274
  12416397.98456   9700306.12553  24761079.4144                   24761079.3954
   2400165.03946   1905572.05544  23247649.5234                   23247648.6764
 -11318161.03946  -8786744.11343  24306664.5084                   24306664.1604
 -12590590.57047  -9785464.20344  22399676.0944                   22399673.7304
 -21100290.97748 -16408452.50047  20244760.2664                   20244758.0354
 -19575049.31648 -15221697.20346  20981763.3134                   20981760.9414
 11  7 30  3 15  0.0000000  0  8G02G25G26G29G04G10G05G12
 -22521780.21548 -17517468.38346  21175775.7584                   21175771.1214
  -9731455.71548  -7550107.30146  21694027.4304                   21694027.7034
  12288590.89847   9600716.28543  24736758.8914                   24736758.4024
   2283957.96946   1815021.13344  23225536.3524                   23225534.8914
 -11270412.77046  -8749537.71143  24315751.5314                   24315749.9774
 -12534407.99247  -9741685.56644  22410367.3444                   22410364.8444
 -21139779.22348 -16439222.54347  20237245.9614                   20237243.9144
 -19568505.19948 -15216597.89846  20983008.9144                   20983005.8594
 11  7 30  3 15 30.0000000  0  8G02G25G26G29G04G10G05G12
 -22520106.41048 -17516164.11746  21176094.3444                   21176089.8444
  -9792316.56248  -7597531.31646  21682446.0394                   21682445.7704
  12160665.18846   9501034.00843  24712415.0704                   24712414.4534
   2167762.12547   1724478.98444  23203425.0394                   23203424.2154
 -11222715.35947  -8712370.90643  24324827.8204                   24324826.4454
 -12477891.61347  -9697646.82444  22421122.2274                   22421119.6884
 -21178692.02748 -16469544.18747  20229841.1414                   20229838.8164
 -19561428.32448 -15211083.46146  20984355.3984                   20984353.0554
 11  7 30  3 16  0.0000000  0  8G02G25G26G29G04G10G05G12
 -22518313.74248 -17514767.21546  21176435.6094                   21176430.6884
  -9852610.97348  -7644513.96146  21670972.0864                   21670972.4344
  12032620.66846   9401259.14543  24688048.3204                   24688048.5274
   2051576.43446   1633944.73844  23181315.5394                   23181314.7584
 -11175072.27746  -8675246.52743  24333894.0784                   24333893.6604
 -12421047.25047  -9653352.51644  22431938.9064                   22431936.1844
 -21217032.62148 -16499419.94947  20222545.3284                   20222542.4844
 -19553824.06248 -15205158.07446  20985802.4144                   20985799.4924
 11  7 30  3 16 30.0000000  0  8G02G25G26G29G04G10G05G12
 -22516396.38748 -17513273.16846  21176800.4774                   21176795.8134
  -9912331.82048  -7691049.67246  21659607.7734                   21659607.8674
  11904466.53546   9301398.88743  24663661.7814                   24663661.7814
   1935408.46946   1543424.32844  23159209.3914                   23159208.8984
 -11127477.33247  -8638159.56643  24342951.6564                   24342950.0594
 -12363871.49247  -9608799.96544  22442819.5084                   22442816.8404
 -21254795.00448 -16528845.16447  20215359.2974                   20215356.7504
 -19545687.57848 -15198817.98046  20987351.0004                   20987348.7034
 11  7 30  3 17  0.0000000  0  8G02G25G26G29G04G10G05G12
 -22514363.70748 -17511689.25846  21177187.3754                   21177182.5084
  -9971486.75848  -7737144.41046  21648350.8054                   21648350.8634
  11776197.29346   9201448.89543  24639252.6954                   24639252.0634
   1819250.96146   1452912.05544  23137105.1884                   23137104.1884
 -11079939.43747  -8601117.09443  24351996.6334                   24351996.2894
 -12306375.67247  -9563998.03944  22453759.8204                   22453758.1484
 -21291987.73848 -16557826.50047  20208281.6884                   20208279.2934
 -19537028.52048 -15192070.66446  20988998.4534                   20988996.0044
 11  7 30  3 17 30.0000000  0  8G02G25G26G29G04G10G05G12
 -22512210.07048 -17510011.10546  21177597.0634                   21177592.5044
 -10030069.19548  -7782793.03546  21637202.9844                   21637202.8244
  11647821.60946   9101416.01643  24614823.3444                   24614823.8524
   1703110.77047   1362413.26244  23115004.7274                   23115003.9454
 -11032452.93047  -8564114.64143  24361034.6024                   24361032.1564
 -12248556.97747  -9518944.52744  22464762.9614                   22464760.3524
 -21328606.15648 -16586360.30147  20201313.7034                   20201311.2194
 -19527843.02348 -15184913.15246  20990746.4774                   20990743.7624
 11  7 30  3 18  0.0000000  0  8G02G25G26G29G04G10G05G12
 -22509936.43748 -17508239.43046  21178029.7504                   21178025.2154
 -10088078.64848  -7827995.20346  21626163.8364                   21626164.4534
  11519342.11345   9001302.27042  24590373.1644                   24590374.8674
   1586989.69147   1271929.38745  23092907.5634                   23092906.2894
 -10985018.68447  -8527152.90643  24370060.0784                   24370059.3554
 -12190418.71947  -9473641.98844  22475825.9924                   22475824.0704
 -21364650.35948 -16614446.67647  20194454.4844                   20194451.8014
 -19518133.23848 -15177347.10246  20992594.3834                   20992591.6564
 11  7 30  3 18 30.0000000  0  8G02G25G26G29G04G10G05G12
 -22507546.94948 -17506377.48446  21178484.1334                   21178479.4804
 -10145517.79348  -7872752.96546  21615233.7424                   21615234.2704
  11390758.44946   8901107.35542  24565905.0084                   24565905.9304
   1470885.27347   1181458.49245  23070813.8134                   23070812.8054
 -10937640.07046  -8490234.59443  24379075.8524                   24379075.5784
 -12131966.94947  -9428095.14844  22486949.3524                   22486947.3954
 -21400124.38348 -16642088.75447  20187704.0634                   20187701.4574
 -19507904.02048 -15169376.29746  20994540.4924                   20994538.0004
 11  7 30  3 19  0.0000000  0  8G02G25G26G29G04G10G05G12
 -22505035.14848 -17504420.23846  21178962.1484                   21178957.6214
 -10202379.18748  -7917060.52746  21604413.1804                   21604413.4734
  11262080.34846   8800838.86342  24541419.4924                   24541419.2424
   1354805.88747   1091007.10245  23048724.5864                   23048723.4304
 -10890310.87946  -8453354.66042  24388082.9614                   24388081.3014
 -12073197.91047  -9382301.10544  22498132.9144                   22498130.6054
 -21435021.94948 -16669281.64147  20181063.2034                   20181060.4654
 -19497150.48848 -15160996.93446  20996587.0944                   20996584.9184
 11  7 30  3 19 30.0000000  0  8G02G25G26G29G04G10G05G12
 -22502402.45747 -17502368.78946  21179463.3834                   21179458.6954
 -10258662.78948  -7960917.86346  21593703.1414                   21593702.8874
  11133310.16046   8700498.51243  24516914.8984                   24516914.7664
   1238752.18847   1000575.72345  23026639.9844                   23026639.0744
 -10843031.89546  -8416513.98842  24397077.8594                   24397078.6094
 -12014115.25847  -9336262.67644  22509376.1024                   22509373.5164
 -21469344.16448 -16696026.20747  20174531.9694                   20174529.3754
 -19485875.31248 -15152211.10546  20998732.7034                   20998730.2704
 11  7 30  3 20  0.0000000  0  8G02G25G26G29G04G10G05G12
 -22499653.85548 -17500227.00846  21179986.3984                   21179981.8404
 -10314372.17248  -8004327.76246  21583102.0164                   21583101.8284
  11004446.71146   8600085.49243  24492393.1644                   24492392.1254
   1122721.39847    910162.21145  23004560.1954                   23004559.2624
 -10795807.58646  -8379715.78942  24406066.1254                   24406065.1414
 -11954725.85247  -9289985.21944  22520676.9844                   22520674.6054
 -21503095.80148 -16722326.17247  20168108.9384                   20168106.4804
 -19474084.20748 -15143023.24246  21000976.1954                   21000974.1134
 11  7 30  3 20 30.0000000  0  8G02G25G26G29G04G10G05G12
 -22496784.14147 -17497990.85546  21180532.3204                   21180527.8554
 -10369501.52048  -8047285.68746  21572611.1024                   21572611.2584
  10875498.02347   8499606.09843  24467855.1254                   24467853.5864
   1006720.32447    819771.84445  22982486.1564                   22982484.6024
 -10748633.08646  -8342956.48442  24415041.3984                   24415042.8244
 -11895027.43447  -9243466.96544  22532037.3674                   22532034.3714
 -21536272.56248 -16748178.16847  20161796.0164                   20161793.3094
 -19461773.84448 -15133430.75846  21003319.2344                   21003316.5904
 11  7 30  3 21  0.0000000  0  8G02G25G26G29G04G10G05G12
 -22493797.58248 -17495663.66446  21181100.8284                   21181096.5004
 -10424053.61748  -8089793.81246  21562230.3364                   21562230.3404
  10746463.74647   8399059.92643  24443300.6884                   24443299.7814
    890746.77747    729402.94145  22960416.9384                   22960415.3404
 -10701512.23046  -8306238.98042  24424009.5704                   24424009.6294
 -11835026.41847  -9196712.94144  22543455.6724                   22543452.9534
 -21568878.18048 -16773585.12947  20155591.2814                   20155588.2304
 -19448949.50448 -15123437.77746  21005759.3834                   21005757.2854
 11  7 30  3 21 30.0000000  0  8G02G25G26G29G04G10G05G12
 -22490693.99248 -17493245.27746  21181691.1024                   21181686.9024
 -10478027.24648  -8131851.17646  21551959.0164                   21551959.6764
  10617347.64147   8298449.98843  24418731.0314                   24418729.3164
    774802.79347    639057.05944  22938352.7974                   22938351.4384
 -10654444.62946  -8269562.99643  24432966.1564                   24432966.1764
 -11774724.92247  -9149724.76644  22554930.3284                   22554927.8484
 -21600912.71548 -16798547.09047  20149494.9304                   20149492.4694
 -19435611.89848 -15113044.85246  21008297.9144                   21008295.3794
 11  7 30  3 22  0.0000000  0  8G02G25G26G29G04G10G05G12
 -22487474.87948 -17490736.87146  21182303.5084                   21182299.2584
 -10531423.00848  -8173458.26646  21541798.5314                   21541798.4844
  10488151.60247   8197777.79343  24394145.4694                   24394144.1454
    658888.59047    548734.35544  22916295.5634                   22916293.8594
 -10607431.46546  -8232929.32843  24441913.0634                   24441911.6914
 -11714127.21147  -9102505.78144  22566460.9774                   22566459.5084
 -21632377.87148 -16823065.37547  20143507.5474                   20143504.9064
 -19421765.23048 -15102255.25046  21010932.7344                   21010930.1294
 11  7 30  3 22 30.0000000  0  8G02G25G26G29G04G10G05G12
 -22484135.86348 -17488135.04746  21182939.3524                   21182934.7544
 -10584235.09048  -8214610.53146  21531748.4534                   21531748.9574
  10358883.80147   8097049.75043  24369546.5944                   24369545.6564
    543011.51647    458440.62144  22894244.9454                   22894243.4774
 -10560467.85546  -8196334.39843  24450849.4454                   24450848.8914
 -11653230.88347  -9055054.09844  22578049.2584                   22578047.3594
 -21663269.05548 -16847136.40647  20137628.9454                   20137626.1294
 -19407405.47748 -15091065.84846  21013665.0554                   21013662.7814
 11  7 30  3 23  0.0000000  0  8G02G25G26G29G04G10G05G12
 -22480679.05148 -17485441.42646  21183597.1884                   21183592.5474
 -10636464.84848  -8255309.03546  21521809.5394                   21521809.9574
  10229545.46546   7996266.66043  24344933.6414                   24344933.0164
    427170.98447    368175.34444  22872200.7664                   22872199.0664
 -10513555.82846  -8159779.60543  24459777.2664                   24459775.9224
 -11592040.53547  -9007373.31644  22589693.6954                   22589691.3674
 -21693588.82448 -16870762.18447  20131859.2814                   20131856.8094
 -19392536.12948 -15079479.35246  21016494.9614                   21016492.4184
 11  7 30  3 23 30.0000000  0  8G02G25G26G29G04G10G05G12
 -22477105.27348 -17482656.66846  21184277.1644                   21184272.5084
 -10688112.14148  -8295553.66446  21511981.4064                   21511981.7704
  10100139.44946   7895430.91043  24320308.5394                   24320308.6374
    311368.10547    277939.40644  22850163.8444                   22850162.6724
 -10466695.97746  -8123265.37943  24468693.3754                   24468692.2894
 -11530559.40247  -8959465.96544  22601393.4144                   22601391.1054
 -21723338.31248 -16893943.58247  20126198.1644                   20126195.5474
 -19377160.17648 -15067498.10246  21019420.8284                   21019418.2704
 11  7 30  3 24  0.0000000  0  8G02G25G26G29G04G10G05G12
 -20897997.37948 -16252182.97746  21484771.4224                   21484766.8874
  -9163756.95348  -7107744.42246  21802056.7894                   21802056.6054
  11546090.92646   9022146.41043  24595464.4384                   24595463.5084
   1771026.05947   1415335.29344  23127928.0944                   23127926.3554
  -8844472.03146  -6859194.84043  24777393.4384                   24777392.6174
  -9893374.84047  -7683737.73444  22912939.3674                   22912936.8954
 -20177099.29348 -15689081.99647  20420437.8134                   20420434.9694
 -17785862.14848 -13827525.61746  21322234.7584                   21322232.6644
 11  7 30  3 24 30.0000000  0  8G02G25G26G29G04G10G05G12
 -20894200.57048 -16249224.42246  21485494.1644                   21485489.3834
  -9214247.41848  -7147087.63746  21792448.6174                   21792448.4694
  11416549.07046   8921204.84443  24570812.1024                   24570812.9734
   1655293.62547   1325154.25845  23105904.7344                   23105903.1414
  -8797726.48847  -6822769.77043  24786288.7114                   24786287.6844
  -9831330.34047  -7635391.37944  22924746.1024                   22924744.0354
 -20205719.69148 -15711383.59447  20414991.4064                   20414988.7584
 -17769486.82048 -13814765.63746  21325350.6564                   21325348.1804
 11  7 30  3 25  0.0000000  0  8G02G25G26G29G04G10G05G12
 -20890284.29348 -16246172.77346  21486238.9064                   21486233.9734
  -9264150.21148  -7185972.91446  21782952.3054                   21782952.3484
  11286952.81646   8820220.84443  24546151.1484                   24546151.0634
   1539607.31347   1235009.16845  23083889.9224                   23083889.0044
  -8751029.76247  -6786382.67643  24795174.2034                   24795173.3054
  -9768999.94147  -7586822.22744  22936606.7194                   22936604.5984
 -20233768.10948 -15733239.49247  20409654.2734                   20409651.3794
 -17752607.02348 -13801612.56246  21328563.0234                   21328560.4344
 11  7 30  3 25 30.0000000  0  8G02G25G26G29G04G10G05G12
 -20886257.09448 -16243034.69146  21487005.4694                   21487001.0164
  -9313472.91848  -7224406.18046  21773566.8674                   21773566.6994
  11157297.06646   8719190.49643  24521479.3284                   24521479.2424
   1423960.76247   1144895.03545  23061883.4144                   23061881.7814
  -8704390.19547  -6750040.16043  24804049.2194                   24804049.2154
  -9706394.78147  -7538039.01644  22948520.4224                   22948518.2274
 -20261253.41848 -15754656.59047  20404423.9144                   20404421.1174
 -17735232.25448 -13788073.78146  21331868.9924                   21331866.3674
 11  7 30  3 26  0.0000000  0  7G02G25G26G29G10G05G12
 -20882119.39548 -16239810.50446  21487792.5004                   21487788.5164
  -9362215.14848  -7262387.13346  21764291.3754                   21764291.0944
  11027585.12146   8618116.36343  24496795.8984                   24496795.0944
   1308355.60547   1054813.17245  23039884.3054                   23039883.4224
  -9643517.32047  -7489043.59444  22960485.6644                   22960483.4304
 -20288176.02348 -15775635.22747  20399300.4454                   20399297.6954
 -17717364.31648 -13774150.72346  21335269.3524                   21335267.0904
 11  7 30  3 26 30.0000000  0  7G02G25G26G29G10G05G12
 -20877866.10948 -16236496.25846  21488602.0004                   21488597.5314
  -9410371.15248  -7299911.28146  21755127.2734                   21755127.3834
  10897825.43446   8517004.97343  24472102.6484                   24472102.4534
   1192798.73847    964768.95345  23017894.4224                   23017893.1334
  -9580365.01647  -7439834.01644  22972502.6884                   22972500.4264
 -20314531.66048 -15796172.07447  20394284.8284                   20394282.7034
 -17699000.00048 -13759840.89146  21338764.0394                   21338761.3054
 11  7 30  3 27  0.0000000  0  7G02G25G26G29G10G05G12
 -20873497.62948 -16233092.24246  21489433.4774                   21489429.0394
  -9457940.43448  -7336978.24246  21746075.2974                   21746075.3204
  10768021.32846   8415858.95743  24447402.1954                   24447401.6684
   1077291.81347    874763.62945  22995913.8674                   22995913.2464
  -9516940.53147  -7390412.34044  22984572.6484                   22984569.9104
 -20340320.88348 -15816267.55947  20389377.6804                   20389374.5554
 -17680141.18048 -13745145.71946  21342352.6644                   21342350.3444
 11  7 30  3 27 30.0000000  0  7G02G25G26G29G10G05G12
 -20869010.69948 -16229595.91846  21490287.2814                   21490282.7774
  -9504919.24248  -7373585.09846  21737135.4144                   21737135.4344
  10638179.54747   8314683.64543  24422694.2814                   24422693.0164
    961840.01647    784801.27745  22973944.8054                   22973942.6524
  -9453243.21147  -7340778.07444  22996693.3204                   22996690.6884
 -20365541.33248 -15835919.83647  20384578.5554                   20384575.7114
 -17660786.58248 -13730064.22346  21346035.7814                   21346033.3164
 11  7 30  3 28  0.0000000  0  7G02G25G26G29G10G05G12
 -20864403.04348 -16226005.52746  21491164.0634                   21491159.7584
  -9551304.47748  -7409729.42646  21728308.6254                   21728308.5204
  10508306.08247   8213483.58643  24397979.6334                   24397978.7234
    846447.73447    694885.27745  22951986.2504                   22951984.4884
  -9389273.28947  -7290931.39144  23008867.1644                   23008863.7894
 -20390191.16048 -15855127.47747  20379887.5234                   20379885.0314
 -17640935.19148 -13714595.64146  21349813.8364                   21349810.9614
 11  7 30  3 28 30.0000000  0  7G02G25G26G29G10G05G12
 -20859679.32448 -16222324.70346  21492063.0864                   21492058.6564
  -9597100.18048  -7445414.37546  21719593.8284                   21719593.9454
  10378399.62147   8112257.83843  24373259.3364                   24373258.6884
    731112.57447    605013.79345  22930037.9614                   22930036.7664
  -9325038.12147  -7240877.99244  23021089.5084                   23021088.4654
 -20414275.03148 -15873894.10947  20375304.5474                   20375302.1294
 -17620593.44148 -13698744.94546  21353684.2344                   21353681.9304
 11  7 30  3 29  0.0000000  0  7G02G25G26G29G10G05G12
 -20854843.66448 -16218556.64546  21492983.3834                   21492978.6644
  -9642310.03948  -7480642.83246  21710990.6414                   21710990.7074
  10248459.76647   8011006.05543  24348533.0394                   24348530.8914
    615831.95747    515184.83245  22908100.4924                   22908099.1334
  -9260544.45347  -7190623.21144  23033363.0784                   23033361.3284
 -20437798.08248 -15892223.75447  20370828.1334                   20370825.3134
 -17599767.46948 -13682516.94546  21357647.4384                   21357644.9844
 11  7 30  3 29 30.0000000  0  7G02G25G26G29G10G05G12
 -20849895.47748 -16214700.89146  21493924.8674                   21493920.2734
  -9686932.89148  -7515413.87146  21702499.4384                   21702499.5124
  10118490.60246   7909731.43043  24323800.1564                   24323798.6644
    500608.70747    425400.54745  22886175.1414                   22886173.1374
  -9195793.90247  -7140168.23444  23045684.6804                   23045682.6914
 -20460760.37548 -15910116.43447  20366458.6484                   20366455.4344
 -17578458.80148 -13665912.81246  21361702.2734                   21361700.0274
 11  7 30  3 30  0.0000000  0  7G02G25G26G29G10G05G12
 -20844836.82048 -16210759.07046  21494887.5234                   21494883.0864
  -9730969.79348  -7549728.34446  21694119.3204                   21694119.5824
   9988494.09446   7808435.53143  24299061.7734                   24299061.8984
    385443.25447    335661.31645  22864259.5864                   22864257.7734
  -9130790.41847  -7089516.20344  23058053.6564                   23058052.1804
 -20483164.02048 -15927573.80947  20362195.6094                   20362192.8324
 -17556670.24248 -13648934.73046  21365848.7194                   21365846.3984
 11  7 30  3 30 30.0000000  0  7G02G25G26G29G10G05G12
 -20839668.84448 -16206732.05946  21495870.9384                   21495866.6054
  -9774421.41848  -7583586.73446  21685850.9224                   21685851.2384
   9858472.62546   7707120.17643  24274320.1954                   24274319.4414
    270336.39547    245967.72745  22842355.3054                   22842354.1374
  -9065537.96947  -7038670.14544  23070471.1954                   23070469.2234
 -20505010.93748 -15944597.37147  20358038.1564                   20358035.4734
 -17534405.07848 -13631585.27746  21370085.7344                   21370082.9654
